GFSSGP_sfc_thetae_000.txt.gz
Theta_e
346 339 343 342 326 324 313 315 322 321 320 325 326 322 319 324 322 316 339 338 342 352 357 358 365 364 361 360 360 360 360 360 359 361 360 360 360 360 361 360 360 358 357 358 358 358 357 356 357
343 338 343 334 319 310 310 317 315 319 323 327 324 321 317 314 325 325 328 334 340 343 356 360 364 365 364 362 362 361 362 361 361 361 360 360 360 360 359 358 358 357 357 357 356 357 357 356 356
339 334 329 325 317 308 310 315 314 320 322 323 318 317 315 314 320 321 325 331 334 341 353 361 365 365 364 362 363 363 362 361 362 361 359 359 358 358 358 358 358 358 357 356 359 359 358 357 356
332 336 327 316 312 314 314 313 315 317 319 320 315 309 314 318 319 320 325 326 329 339 351 361 365 364 364 362 360 361 361 359 358 358 358 358 358 358 356 356 358 357 358 357 359 359 357 358 356
333 328 317 311 311 315 314 314 314 314 315 315 314 308 310 317 321 321 323 325 328 333 350 358 362 361 361 360 359 357 356 354 355 355 357 359 355 355 354 356 353 355 356 356 356 355 356 355 358
325 325 310 306 310 313 313 314 312 312 313 313 310 309 310 317 317 318 321 323 330 332 348 354 360 359 357 355 353 353 352 353 352 352 353 355 355 356 356 352 350 351 352 353 354 355 353 354 355
326 319 308 310 310 310 311 313 308 311 310 310 312 308 310 313 317 318 319 323 326 327 330 348 348 353 355 353 353 352 349 349 351 347 347 350 356 352 349 354 349 349 350 350 352 352 352 353 351
326 321 312 312 309 310 312 313 311 313 307 314 313 306 306 313 316 317 318 318 318 321 323 325 329 330 334 336 347 345 350 346 343 344 341 344 341 344 341 348 347 350 350 349 352 350 349 352 352
332 314 307 310 313 312 312 309 312 313 310 313 313 312 313 316 317 314 313 315 315 318 318 319 320 320 319 318 327 332 336 338 335 331 335 326 320 323 325 337 345 346 350 347 351 350 349 350 351
318 310 311 315 315 312 311 309 308 308 309 310 310 312 313 314 313 312 311 310 310 310 312 313 313 314 314 316 312 312 314 313 314 314 313 315 316 321 326 329 338 340 342 342 342 348 349 347 345
316 312 316 314 314 316 310 309 310 307 306 310 309 309 311 310 309 309 309 310 309 308 309 310 309 309 310 310 311 311 310 311 312 312 311 313 314 313 313 315 316 321 329 323 326 326 330 334 339
309 314 314 316 313 314 309 311 307 308 310 313 312 311 310 308 308 308 308 309 309 308 306 307 308 307 308 311 310 310 308 308 308 309 310 310 309 309 308 310 311 313 315 314 316 318 320 321 337
308 310 313 313 312 310 312 307 307 308 313 313 312 311 308 307 307 307 308 309 308 306 305 305 304 304 306 307 308 308 307 306 307 308 309 309 307 307 308 308 308 309 310 311 310 311 313 315 318
311 310 310 310 308 311 308 307 308 309 312 311 309 307 307 307 307 307 307 306 305 304 303 304 304 303 304 305 306 306 306 306 307 308 307 308 307 306 307 307 307 307 308 309 309 310 311 312 316
311 304 306 306 307 306 308 304 304 309 310 306 306 306 307 307 308 306 307 306 305 303 302 302 303 303 302 303 305 306 305 306 304 305 306 306 307 307 305 306 306 306 307 308 308 309 311 312 315
304 304 299 305 306 307 306 297 306 308 307 305 305 305 306 306 306 306 307 306 303 303 301 302 305 302 302 302 303 303 303 303 303 303 304 305 307 306 305 306 306 306 307 307 307 307 308 309 310
302 296 298 302 307 306 303 299 307 308 307 305 305 305 306 305 305 305 305 303 304 302 301 301 302 301 302 301 301 301 302 302 302 302 303 303 306 306 304 305 305 305 305 305 306 305 305 305 307
297 296 299 299 304 304 301 300 306 307 306 304 305 306 306 306 305 305 304 303 303 302 301 301 302 301 300 300 300 301 301 301 301 301 301 302 304 304 304 305 304 305 304 303 303 302 304 305 307
303 300 299 303 306 302 300 301 303 307 305 304 304 305 306 306 308 306 304 301 300 300 300 300 301 300 299 299 298 297 297 298 300 300 301 301 303 303 303 303 303 303 302 302 302 302 302 302 304
302 299 298 302 305 302 301 300 304 305 305 305 304 305 306 307 307 306 303 300 299 299 299 299 300 300 299 300 298 298 297 298 299 301 301 302 301 302 302 300 301 301 301 301 301 301 300 301 303
301 298 298 298 303 302 300 297 299 303 305 307 307 307 307 307 306 305 301 299 299 298 299 299 299 300 300 299 299 299 299 299 299 299 300 301 301 301 301 300 299 299 299 299 299 299 299 298 300
296 303 302 301 297 291 299 289 297 301 302 303 306 306 306 307 308 306 302 300 298 298 300 300 300 299 300 300 298 296 295 295 296 297 298 299 300 299 300 300 299 299 298 297 298 300 298 297 297
300 304 302 301 296 294 296 291 294 301 299 302 304 305 306 307 307 306 304 302 300 299 299 299 299 299 299 298 298 297 296 297 297 297 297 297 298 299 300 299 298 298 298 298 298 298 298 299 298
304 301 301 299 295 288 293 294 293 298 300 302 304 305 306 306 306 306 305 304 300 300 301 300 299 298 299 299 298 297 296 296 295 295 295 296 297 298 299 300 298 298 298 298 298 298 298 299 299
301 296 289 288 288 287 297 293 296 301 301 300 302 303 304 305 305 304 303 303 300 299 300 300 300 299 299 298 297 296 296 296 295 295 295 295 295 296 297 298 297 297 298 298 298 297 298 298 299
297 296 290 284 286 290 295 289 294 302 302 302 304 304 305 304 304 303 302 302 301 300 300 299 299 298 298 297 296 296 296 297 296 296 295 295 295 296 298 298 298 298 298 298 297 297 298 299 299
298 293 299 292 293 289 292 296 300 301 299 300 301 302 303 303 303 302 302 303 302 301 300 300 299 299 298 297 296 294 294 294 295 296 296 296 296 299 298 298 297 298 298 298 297 297 297 299 300
299 302 292 292 283 282 289 290 293 297 298 298 298 298 301 303 303 302 302 302 303 301 302 301 300 298 298 297 295 295 294 294 295 295 295 295 296 297 297 297 297 297 297 297 296 297 298 298 298
295 294 296 295 291 284 284 289 298 297 298 299 298 299 301 302 303 302 301 301 302 301 300 299 298 297 296 296 295 294 294 294 294 294 295 295 296 296 296 297 297 297 296 296 295 296 297 298 298
300 296 297 290 288 291 291 291 302 299 299 300 299 300 301 303 303 302 301 300 300 299 298 297 296 296 296 296 294 294 294 294 293 293 294 295 295 296 296 296 297 297 296 296 295 296 298 297 298

GFSSGP_sfc_thetae_003.txt.gz
Theta_e
347 341 333 332 316 311 310 308 317 316 317 319 323 322 320 322 321 311 335 350 353 355 358 362 366 365 361 360 360 360 360 361 362 362 361 360 360 360 359 359 358 357 357 357 357 356 355 355 356
344 341 332 322 310 304 303 310 309 315 320 319 320 319 315 312 323 323 326 339 353 355 361 360 364 366 364 361 363 362 361 361 362 361 359 359 358 358 358 358 358 358 357 357 356 355 356 355 356
337 338 318 314 309 304 303 308 310 317 318 317 312 313 311 312 318 318 322 337 350 354 359 361 366 365 364 363 363 363 361 360 360 360 360 358 358 356 357 357 358 358 359 358 357 359 355 354 355
324 326 320 308 303 306 307 308 312 315 316 314 311 307 311 314 316 317 322 332 346 351 357 362 365 363 362 363 361 357 357 357 358 360 358 357 354 353 355 351 354 357 358 358 358 359 356 357 355
323 318 308 302 304 306 306 310 311 311 311 310 310 306 306 314 317 319 320 326 343 350 356 357 362 362 361 359 356 354 353 355 355 355 354 354 354 352 352 349 351 351 352 352 354 356 355 355 356
315 315 302 298 303 307 306 308 308 307 308 308 307 306 306 312 313 316 322 324 337 348 354 357 360 359 357 353 352 352 351 352 352 347 347 355 355 352 351 353 351 349 350 350 350 350 353 354 354
315 310 302 301 302 303 306 308 302 305 305 305 309 303 305 309 312 317 321 320 320 332 349 350 346 350 355 353 351 349 348 345 343 342 341 341 339 339 344 346 350 353 352 350 349 346 348 351 353
317 312 304 303 302 302 306 307 308 306 303 310 309 302 301 308 313 315 315 314 316 318 324 339 343 340 334 332 346 343 343 340 334 333 335 333 332 333 333 336 342 345 347 347 351 348 349 350 351
317 304 299 302 304 305 306 304 308 309 306 309 309 307 308 312 313 310 310 312 312 314 313 312 313 312 315 318 321 322 329 330 328 324 328 321 316 318 318 328 334 335 340 339 343 344 348 348 349
309 299 303 310 307 304 306 304 304 305 305 305 305 307 310 311 309 308 308 308 307 306 308 307 307 308 308 314 309 308 311 310 310 309 310 311 310 314 317 320 325 328 330 330 329 330 331 338 336
307 304 311 310 312 310 306 305 306 303 301 306 304 305 308 307 307 307 306 307 305 304 305 306 304 306 308 308 306 305 305 306 307 307 308 308 309 308 308 308 310 312 320 315 315 314 314 316 324
302 309 309 311 310 309 304 306 303 304 304 309 307 307 306 305 305 306 306 305 304 304 301 304 304 304 305 306 306 304 304 303 304 305 306 304 305 305 305 306 307 308 310 308 309 309 311 311 313
302 305 309 308 308 306 307 304 303 305 308 308 308 308 306 304 304 305 306 306 303 302 301 301 301 301 303 303 303 303 302 302 303 303 304 303 304 303 305 305 306 306 307 307 307 307 309 310 312
305 306 306 307 305 305 304 303 304 305 309 306 306 305 304 304 305 304 305 304 301 300 300 300 301 300 301 301 302 302 301 302 301 302 303 305 304 303 304 305 305 305 305 306 306 306 307 308 310
305 300 301 302 303 302 304 300 301 305 308 305 303 302 303 304 305 304 305 303 301 298 299 299 300 300 300 301 301 301 300 301 299 300 302 303 304 303 303 304 304 304 305 306 306 306 306 306 308
299 297 292 300 303 304 302 292 302 305 305 302 301 300 302 303 304 303 305 304 300 298 297 299 304 300 299 299 299 299 299 299 298 299 300 301 305 303 302 303 303 304 304 305 304 303 303 303 303
294 288 292 297 303 303 299 294 302 305 305 301 299 300 302 301 302 302 303 303 301 298 297 298 298 299 299 298 298 298 299 298 298 298 298 299 303 304 301 303 302 303 303 302 302 302 302 302 303
290 290 293 293 299 301 297 296 301 302 303 301 300 301 301 302 304 303 302 301 301 298 297 297 298 297 297 297 297 297 297 297 298 298 298 299 300 302 300 301 302 302 301 301 301 300 301 301 302
296 295 294 296 302 298 297 298 299 302 302 300 300 300 302 303 305 303 301 300 299 298 296 296 297 296 297 296 295 294 294 295 296 297 299 299 300 301 299 300 301 301 300 299 300 300 299 299 301
297 294 293 297 302 299 296 297 300 300 302 303 302 301 302 303 302 302 300 298 297 297 296 295 297 297 296 296 296 295 294 295 296 298 298 299 299 299 300 298 299 299 298 298 297 298 297 298 299
297 294 294 294 298 298 296 292 296 300 302 304 304 304 304 303 302 301 298 297 296 295 296 295 296 297 297 297 297 296 296 295 295 296 296 298 299 299 298 298 297 297 297 296 296 296 296 295 296
293 300 299 297 293 287 294 286 292 297 298 299 303 302 302 304 305 302 299 296 296 296 295 296 296 296 297 297 296 294 293 292 294 294 296 296 297 297 298 298 297 296 296 296 296 299 296 295 294
295 300 298 297 292 289 290 287 289 295 295 297 299 303 303 304 304 302 300 299 297 297 295 296 296 296 297 296 296 295 294 294 295 295 294 294 296 297 298 297 296 296 296 296 296 296 296 296 294
301 298 296 294 291 283 289 289 291 292 296 297 298 300 304 304 304 303 302 300 297 297 297 296 296 295 296 296 296 295 294 294 293 293 293 294 295 296 296 297 296 296 296 295 296 296 295 296 296
297 291 284 283 283 282 291 289 293 295 298 299 300 299 302 304 303 301 299 299 297 296 297 297 296 295 295 296 295 295 294 294 293 293 293 292 293 294 295 295 296 295 296 296 296 295 295 295 295
293 292 284 279 281 286 293 286 292 299 303 300 301 301 300 302 303 302 301 300 298 297 297 298 296 296 296 295 295 294 294 294 294 294 293 293 293 294 295 296 296 297 296 296 296 295 295 295 295
293 290 295 287 286 283 287 290 295 297 296 298 298 299 300 301 301 301 301 301 298 297 298 298 297 297 297 295 294 293 293 292 294 294 294 293 294 297 296 296 296 296 296 296 296 295 294 295 296
295 296 288 287 280 278 284 286 288 293 298 296 295 298 299 300 299 300 300 300 299 298 298 298 298 297 297 296 294 294 292 292 293 293 293 293 294 294 295 296 296 296 296 296 295 295 295 295 297
292 292 292 290 286 280 280 283 293 296 297 295 298 297 299 300 300 300 299 300 300 299 298 298 298 298 297 296 294 293 292 293 292 292 292 293 294 294 295 295 295 295 295 295 294 293 294 295 296
297 294 295 288 283 287 288 288 295 295 297 297 296 298 298 301 300 300 298 298 299 298 298 299 298 297 297 296 294 292 293 293 291 291 292 293 293 294 294 295 295 295 295 294 294 294 295 295 295

GFSSGP_sfc_thetae_006.txt.gz
Theta_e
347 343 333 331 313 310 306 308 315 315 314 318 323 322 319 320 318 310 335 350 353 353 359 361 364 362 360 360 359 360 360 360 360 359 359 359 358 358 358 358 358 357 356 355 355 355 354 354 355
344 342 329 320 309 301 303 308 310 314 317 319 318 316 314 313 320 320 326 350 355 356 359 358 362 362 361 360 359 359 359 359 359 358 357 356 356 355 356 357 358 358 358 357 356 355 355 353 354
332 337 317 311 304 305 302 308 311 316 318 315 310 312 310 311 317 317 329 349 356 355 357 358 362 363 362 360 360 358 357 357 357 357 356 352 351 349 348 351 354 355 357 358 357 356 354 352 354
322 322 317 305 301 305 307 308 313 314 314 313 310 306 309 313 316 317 340 348 350 352 355 361 362 361 360 357 353 354 353 352 351 352 352 350 349 348 346 345 346 346 349 352 355 356 356 354 353
322 316 305 301 302 304 306 310 313 311 308 309 309 304 306 312 316 319 335 346 349 350 354 356 360 359 357 354 350 348 350 347 346 347 350 351 346 349 348 346 346 347 346 345 346 351 354 355 354
314 312 300 297 301 305 303 308 308 308 305 307 306 304 305 311 314 318 326 339 350 351 354 356 359 356 353 348 347 348 342 338 338 339 339 341 340 340 340 343 347 346 347 348 344 345 348 351 354
311 306 300 299 300 302 305 306 302 304 303 303 307 302 304 307 312 319 317 326 341 350 350 344 345 349 351 349 348 341 336 335 334 335 335 333 334 333 335 336 339 339 339 341 345 345 347 345 350
316 309 302 300 301 301 307 306 306 305 302 307 308 301 301 308 312 317 315 315 318 335 342 338 335 332 330 323 338 334 333 331 330 331 329 326 325 326 329 331 333 335 334 336 336 338 347 344 344
315 302 298 301 302 305 306 303 306 307 306 307 306 304 307 311 311 309 309 310 311 314 315 313 310 310 312 311 318 322 326 325 324 320 323 314 309 312 313 324 328 330 329 329 330 330 329 328 329
306 296 299 308 306 303 304 303 304 305 304 303 303 306 308 309 308 308 308 307 306 306 305 306 305 306 307 311 305 305 309 306 306 307 306 306 306 311 313 317 323 324 324 324 324 324 323 319 315
305 301 308 308 310 307 305 303 305 303 301 304 303 305 307 307 306 307 307 308 306 304 305 304 303 305 307 305 303 302 302 303 304 304 304 304 306 305 305 305 307 308 316 309 311 310 310 309 312
301 307 308 309 309 307 303 305 301 304 303 308 307 307 306 305 305 305 306 305 304 303 302 303 304 304 304 305 302 302 302 301 301 302 303 302 302 303 303 303 304 305 305 305 305 306 307 308 310
301 303 308 308 306 305 306 302 301 301 307 307 307 306 305 304 303 304 307 305 302 301 300 302 301 301 301 302 301 300 300 300 301 301 302 302 302 301 302 303 303 303 303 304 304 304 305 305 306
303 304 305 305 305 304 303 302 302 303 305 304 305 304 303 304 303 303 304 304 301 300 299 299 301 299 301 300 300 298 299 299 299 300 301 303 302 300 302 302 303 302 302 304 303 302 303 302 304
304 299 300 301 302 301 303 299 300 303 304 303 302 301 302 303 304 304 306 305 302 299 299 298 299 300 299 299 300 298 300 299 297 299 300 302 303 301 301 302 301 301 302 303 303 302 302 302 304
298 296 290 297 301 302 300 292 299 303 304 301 301 300 301 302 303 302 304 304 300 298 297 298 303 300 298 298 298 298 298 298 297 298 298 301 303 301 300 301 301 301 302 302 301 301 300 300 300
292 286 290 294 301 301 297 293 298 302 305 303 301 301 301 301 301 301 303 302 300 298 296 297 298 298 298 296 296 297 297 297 297 297 297 298 302 302 299 300 300 301 300 300 300 300 300 298 299
288 288 290 291 297 299 296 295 298 301 304 304 302 302 301 302 303 304 303 301 299 296 296 297 296 296 296 295 295 296 296 296 296 296 297 298 299 300 298 298 299 300 299 298 299 297 299 298 298
292 291 291 294 299 297 296 297 299 300 300 301 300 300 300 302 305 303 302 300 298 296 295 295 295 294 295 294 294 293 293 294 295 296 298 297 298 299 297 297 298 299 298 297 298 297 297 296 297
294 291 290 295 299 297 295 295 299 298 300 301 302 300 300 302 302 302 302 299 299 296 295 294 296 295 295 295 294 294 293 294 295 296 297 297 298 298 297 297 296 297 296 296 295 295 294 296 296
295 293 291 293 296 296 294 293 294 298 300 303 304 304 303 302 302 302 301 300 298 297 296 295 295 296 296 296 295 294 294 294 294 295 295 296 298 298 297 296 296 295 295 294 294 294 293 292 294
292 297 297 296 292 286 294 287 290 294 296 297 301 303 303 303 304 303 302 300 297 298 297 296 296 296 296 295 295 294 293 292 293 293 294 295 296 295 296 296 295 294 294 294 294 297 294 293 292
294 299 297 295 290 287 289 285 287 292 292 296 297 300 303 305 304 303 302 300 299 298 297 296 295 296 296 295 295 294 292 293 294 293 293 293 294 295 296 295 295 294 294 294 294 294 294 293 292
299 296 294 292 288 282 289 288 291 291 295 298 300 298 300 303 303 304 303 301 298 297 296 295 295 296 295 295 294 294 293 293 292 292 292 293 293 294 295 296 295 294 294 294 295 294 293 293 293
296 290 283 281 281 283 290 287 292 292 294 295 298 299 297 302 302 302 300 298 297 295 296 296 295 295 295 295 295 294 294 293 293 292 292 292 292 293 293 294 294 294 294 295 294 293 293 293 293
292 291 284 279 280 285 289 284 290 296 301 302 300 299 297 300 302 300 300 299 297 296 296 296 295 295 294 295 295 294 294 294 293 293 293 292 292 293 294 294 294 295 295 295 294 293 294 293 293
292 288 293 286 283 281 285 289 293 295 296 296 296 297 298 300 301 301 300 299 298 297 296 297 296 296 295 295 295 293 293 293 293 293 293 292 292 295 294 294 294 295 295 295 294 293 293 293 293
295 295 286 285 280 278 283 283 287 290 296 297 295 296 298 299 299 300 299 299 298 298 297 297 297 296 296 295 295 294 292 292 292 292 292 292 293 293 294 293 294 294 294 294 293 293 293 293 294
291 291 290 288 286 283 282 286 291 295 296 295 295 297 299 299 300 300 300 300 298 297 297 297 296 296 296 296 295 293 292 291 291 291 292 292 292 292 293 294 294 294 293 293 292 292 293 292 293
297 294 294 288 285 283 287 288 293 293 294 295 298 297 297 299 299 299 298 297 297 296 296 296 296 296 297 297 295 294 292 291 290 291 291 291 291 292 293 293 293 293 293 293 292 292 293 293 293

GFSSGP_sfc_thetae_009.txt.gz
Theta_e
346 342 332 329 313 309 304 307 313 313 313 317 322 321 318 317 317 308 337 345 352 355 359 359 361 360 360 359 359 359 359 359 358 357 356 356 356 356 357 357 358 357 356 355 354 355 353 354 355
341 338 327 318 306 300 302 307 310 313 317 319 314 315 314 313 319 321 339 350 353 355 357 357 360 361 360 359 358 358 357 356 355 354 352 351 348 349 352 353 354 355 357 357 356 355 354 353 354
332 332 316 309 304 301 302 307 310 315 319 313 309 310 309 310 316 316 333 354 355 354 355 355 360 361 360 359 358 355 353 353 352 352 350 348 345 344 345 346 346 349 353 354 356 356 354 353 353
322 320 313 304 301 304 307 309 313 314 311 311 309 305 308 311 314 327 346 352 350 351 354 359 360 359 358 354 354 353 349 345 347 350 349 346 347 345 344 343 343 344 345 346 351 354 355 354 353
321 314 303 301 301 304 305 311 313 311 308 308 308 304 306 311 318 339 344 349 347 348 352 354 358 355 351 350 347 345 341 342 344 349 343 343 346 344 344 345 344 343 343 343 345 347 351 354 354
313 309 300 297 300 304 303 307 310 308 305 306 305 304 305 310 321 332 342 344 349 349 352 354 357 354 350 344 341 339 338 338 339 339 338 338 338 338 339 340 340 340 340 342 343 345 344 347 352
310 303 299 299 300 301 305 306 302 304 303 304 307 302 303 306 314 324 335 341 347 350 348 347 346 346 349 348 338 336 335 335 335 333 332 331 331 333 334 336 337 336 338 337 339 343 339 336 345
314 307 301 298 299 300 306 306 305 305 302 306 307 301 301 307 314 316 325 332 340 342 339 335 331 329 319 323 336 334 332 331 331 328 326 324 323 325 329 330 332 332 332 332 332 332 330 330 335
312 301 297 299 300 303 305 302 305 306 304 305 306 304 306 310 313 310 311 313 322 331 329 323 318 315 310 312 324 325 327 326 322 318 321 312 308 310 313 325 327 327 326 326 327 327 326 324 325
302 296 299 306 306 304 305 302 303 304 303 302 302 304 306 309 310 309 308 310 313 315 311 308 307 306 305 309 303 304 308 304 304 303 303 304 304 310 311 317 321 322 321 321 322 322 320 315 311
304 298 302 308 308 307 304 302 304 302 300 303 303 304 306 306 308 310 309 310 309 308 305 305 303 305 305 303 301 301 301 302 302 301 302 302 304 303 303 304 304 304 313 306 308 307 307 306 308
300 306 307 308 308 305 302 303 300 303 303 306 306 307 307 305 308 309 309 306 304 303 303 304 304 304 304 304 301 300 300 300 300 300 302 301 300 301 301 302 302 302 303 303 303 302 303 304 305
300 302 307 307 306 304 305 302 301 301 304 305 306 306 307 307 307 308 309 308 303 302 301 302 302 301 301 300 299 300 300 299 300 300 302 301 300 300 301 301 302 301 302 302 301 301 302 301 302
302 303 303 304 303 303 301 301 301 301 304 304 304 304 306 306 305 305 304 305 302 302 301 301 301 300 300 299 298 298 298 298 299 299 301 302 300 300 301 300 301 300 300 301 300 300 300 299 300
302 298 299 300 301 301 301 298 298 302 303 303 302 303 304 305 305 305 307 307 304 300 299 299 300 300 299 299 298 297 298 298 298 298 300 302 301 299 300 300 299 299 300 301 300 299 300 298 300
296 294 290 296 300 301 299 291 298 301 301 301 300 300 301 303 303 304 306 307 303 300 297 297 303 299 298 298 298 297 297 296 297 297 297 302 302 300 299 299 299 300 300 300 299 298 299 297 297
291 286 288 293 299 299 297 291 297 299 302 301 300 300 301 302 301 300 302 305 304 301 296 296 298 298 298 296 296 296 296 295 296 296 296 299 302 300 298 298 298 300 299 298 299 297 298 296 296
286 287 288 288 294 296 294 294 297 298 301 301 301 301 301 302 304 304 303 304 303 299 297 297 297 297 296 295 294 294 295 295 295 295 296 297 299 299 297 297 297 298 298 297 297 295 297 296 296
290 289 288 291 296 296 294 296 298 299 299 300 300 301 301 302 306 304 303 302 298 296 295 296 296 295 295 293 292 292 293 293 294 295 297 296 297 298 296 296 296 297 297 295 296 295 295 294 295
292 289 289 292 296 295 294 294 298 300 297 301 301 301 302 303 304 302 302 300 299 297 296 296 297 295 296 296 293 293 292 293 294 296 296 296 296 297 296 295 295 296 295 294 294 294 293 294 294
293 291 290 290 294 294 292 293 293 297 299 300 301 303 304 303 303 303 302 301 300 298 296 296 296 296 296 295 294 293 293 293 294 294 295 295 296 297 296 295 294 294 294 293 293 293 292 291 293
290 296 295 294 290 287 292 286 289 293 295 297 300 301 301 302 303 304 303 302 300 299 298 297 297 296 297 295 294 293 293 291 292 293 294 294 295 295 295 295 294 293 293 293 293 296 293 292 291
293 297 295 294 289 287 288 285 286 290 291 294 297 298 301 303 303 303 303 303 302 301 297 297 297 296 297 296 296 294 292 292 292 292 293 292 293 294 295 294 294 293 293 293 293 292 292 292 291
298 294 293 290 287 282 288 287 290 292 293 295 298 298 298 300 301 304 305 304 302 300 298 296 296 296 296 295 295 294 293 292 292 291 292 292 292 293 294 295 294 293 293 293 293 293 292 291 291
294 289 282 281 280 283 288 286 291 291 293 294 297 299 299 296 298 302 301 301 300 298 297 297 296 295 295 295 295 294 293 293 292 292 292 291 291 292 293 293 293 292 293 293 293 292 291 291 291
291 291 285 278 279 284 287 283 290 295 297 299 298 299 299 299 299 300 301 301 299 297 297 297 295 295 295 295 294 294 294 294 293 293 292 292 292 292 293 293 293 293 294 294 293 292 292 292 292
290 287 294 286 289 280 287 288 293 294 294 296 295 296 297 300 298 299 299 300 298 296 296 297 296 295 295 295 295 294 294 293 293 293 292 292 292 294 293 293 293 293 293 293 293 292 291 292 292
293 294 286 284 280 280 285 282 286 289 292 295 295 296 296 298 297 298 299 299 298 297 297 297 297 295 295 295 295 295 294 294 294 292 292 292 292 292 293 293 292 292 293 293 292 291 292 291 292
292 289 289 288 286 283 281 285 292 294 296 296 295 294 296 297 297 297 297 298 297 297 297 296 295 295 295 295 295 295 294 293 292 291 292 292 292 292 292 292 292 293 292 292 291 290 291 291 291
297 292 290 286 285 285 286 287 293 292 294 294 294 295 296 296 298 298 297 296 295 295 296 296 296 295 295 295 295 294 294 292 290 290 290 291 291 292 292 292 292 292 292 291 290 290 291 291 291

GFSSGP_sfc_thetae_012.txt.gz
Theta_e
346 338 332 326 312 308 303 308 312 311 311 316 321 319 316 316 316 307 334 343 352 354 357 357 360 360 359 358 358 359 358 358 356 354 355 354 354 354 355 356 358 358 357 356 355 356 354 356 355
338 335 325 316 306 300 301 307 310 313 317 316 314 315 315 312 319 329 337 348 353 356 357 356 359 360 359 358 357 356 355 354 353 350 349 345 346 348 350 349 351 354 356 357 356 355 355 355 355
332 328 316 308 304 301 301 307 311 316 318 311 308 309 312 311 316 329 335 350 353 352 354 354 359 360 359 358 355 353 352 350 349 349 347 345 344 344 344 344 346 347 348 353 355 356 355 354 354
321 319 312 305 300 304 306 308 313 315 314 311 308 305 307 311 314 323 349 351 348 349 351 357 359 358 358 355 354 349 346 348 349 349 345 347 346 343 344 344 343 344 344 346 349 352 355 356 354
320 312 303 300 301 303 304 310 314 312 308 308 308 304 305 310 318 343 347 349 346 348 351 352 358 355 353 351 346 343 343 348 349 344 343 342 343 341 342 341 343 343 343 344 346 345 348 352 354
311 309 300 298 300 303 302 309 312 309 305 305 305 304 305 310 334 338 345 344 347 347 350 352 356 352 350 346 342 340 341 341 341 339 338 338 338 339 339 339 338 340 339 344 345 341 339 346 350
307 303 300 298 299 301 305 307 305 306 303 304 306 303 303 306 323 336 340 342 346 348 348 346 344 345 348 342 339 337 338 337 335 333 333 332 333 334 335 336 336 335 335 336 337 335 334 338 339
311 305 298 297 299 300 305 305 305 305 303 306 308 302 301 307 316 329 336 340 347 345 342 336 332 324 325 327 337 335 334 333 331 329 326 325 325 329 330 331 331 331 330 331 331 330 329 330 333
310 300 296 299 299 302 305 303 304 305 302 304 305 304 305 309 315 321 322 331 338 338 333 328 320 313 315 319 327 329 330 326 324 321 320 314 308 309 314 325 326 326 326 326 326 325 324 321 322
302 296 298 304 304 303 305 302 302 302 301 302 302 304 305 311 314 322 320 327 326 326 322 319 312 306 305 311 305 305 308 302 302 302 302 302 305 310 312 317 320 322 320 320 320 319 318 312 307
301 296 299 305 307 307 304 301 304 302 299 303 304 304 305 308 309 323 324 328 327 325 316 310 306 304 304 303 301 300 300 300 300 301 301 301 302 302 302 302 302 303 311 304 305 304 304 303 303
298 304 306 307 307 305 302 303 300 302 304 306 306 305 305 306 310 314 320 320 319 315 313 307 305 304 302 303 300 299 299 299 298 300 300 299 300 300 300 300 300 301 301 300 300 300 301 301 302
299 301 305 307 306 303 303 301 301 300 303 304 305 305 305 307 311 312 315 316 316 313 308 304 303 302 301 300 299 299 300 298 299 299 301 299 300 299 300 299 299 299 300 299 299 299 298 299 299
300 301 302 303 303 302 301 300 300 301 302 303 304 303 304 307 309 309 306 306 304 313 305 303 303 301 300 299 299 298 298 298 299 299 300 300 299 299 300 299 299 298 299 299 298 298 297 297 297
300 297 298 298 300 301 300 297 297 301 301 300 302 301 303 305 306 308 309 308 307 304 303 301 301 300 299 298 297 298 297 299 298 298 300 300 300 299 299 298 298 298 299 299 298 297 297 296 298
294 293 290 295 299 301 299 293 298 299 300 300 299 299 301 303 304 307 309 308 307 304 299 300 305 300 298 297 297 297 296 296 297 296 298 300 300 299 298 298 298 299 299 298 298 297 297 295 295
290 286 287 291 298 297 296 292 296 296 298 298 298 299 300 302 303 303 304 307 305 305 300 298 299 299 298 297 296 295 295 295 296 295 296 300 301 299 298 297 297 299 298 297 298 295 296 294 294
286 285 287 287 292 295 293 292 297 296 298 298 299 298 298 300 303 305 303 304 305 304 300 299 299 298 296 295 294 293 294 294 294 295 295 297 299 298 296 296 297 297 297 295 295 294 295 295 294
288 287 287 289 294 293 292 294 296 299 297 298 298 299 299 301 305 305 303 303 302 299 297 297 298 297 296 294 293 291 292 292 293 294 296 296 297 298 295 295 296 297 296 294 295 294 294 293 294
292 289 289 291 294 293 292 292 296 298 297 299 300 300 301 302 303 301 302 301 301 300 299 298 298 297 297 297 293 293 292 292 294 295 295 296 296 297 295 294 295 295 294 293 293 293 292 292 293
291 289 289 289 292 292 291 291 293 295 298 297 299 302 303 302 303 304 302 301 302 301 299 298 298 297 297 297 294 292 293 292 293 293 294 295 295 296 295 294 294 294 293 293 292 292 292 290 291
287 293 293 292 288 286 290 285 288 291 294 294 297 299 300 301 303 304 303 302 301 302 300 300 299 297 297 296 295 293 293 291 292 293 294 294 295 295 295 294 294 293 293 292 292 294 292 291 289
291 296 293 292 288 286 287 284 291 290 289 293 295 296 299 301 302 302 303 304 304 303 300 300 298 297 297 296 297 295 291 292 292 292 293 292 293 293 294 294 293 292 292 292 292 291 291 291 290
296 292 291 289 286 281 288 286 289 290 291 293 295 296 297 298 299 301 304 304 304 303 301 299 297 297 297 296 296 295 294 292 291 291 291 291 292 292 293 294 292 292 292 292 292 291 291 290 290
293 288 281 280 280 282 288 286 291 291 290 293 295 297 299 297 295 296 299 301 302 300 299 298 297 296 296 296 295 295 295 293 293 292 292 291 291 291 292 292 292 292 292 293 292 291 291 290 289
288 288 282 278 277 281 285 282 289 292 294 294 296 296 296 297 297 295 298 300 301 299 298 298 296 296 295 296 295 295 294 294 294 293 292 292 292 292 293 293 292 292 292 293 292 291 291 291 290
288 285 290 285 288 283 286 288 294 295 294 294 295 295 296 298 299 297 298 298 298 298 297 297 296 296 295 295 295 295 294 294 293 292 293 292 292 294 293 292 292 292 292 292 292 291 291 290 290
291 292 285 284 279 279 283 283 286 291 294 294 293 295 297 298 299 298 297 298 298 297 297 297 297 296 295 295 295 295 294 294 294 293 292 292 292 293 293 292 292 292 292 292 291 290 290 290 290
292 290 288 288 288 282 280 284 289 287 290 292 294 296 298 299 300 298 299 297 297 295 296 296 296 296 295 295 295 295 294 294 293 293 293 292 292 292 292 292 292 292 292 291 290 289 290 289 290
294 292 291 284 282 282 281 282 292 292 292 293 293 296 299 300 301 300 297 296 294 294 294 295 296 295 295 296 295 294 294 293 292 292 292 292 292 292 292 292 291 292 292 291 290 289 290 289 289

GFSSGP_sfc_thetae_015.txt.gz
Theta_e
347 338 339 335 322 318 312 314 318 316 318 322 328 324 321 322 320 314 342 347 350 353 358 359 360 361 358 356 358 358 359 356 355 353 351 353 353 354 354 355 357 359 358 357 356 356 356 357 356
339 335 333 326 316 310 311 315 316 319 321 324 323 323 322 319 325 337 341 349 353 355 358 357 360 361 360 359 357 355 354 353 351 348 346 346 347 347 348 349 351 351 356 357 357 356 355 356 356
335 329 328 318 312 310 309 314 319 319 322 317 316 316 320 320 322 340 343 352 355 355 357 357 360 361 359 356 353 352 351 350 349 348 346 345 344 344 345 345 346 346 350 352 354 356 356 355 354
329 329 320 314 309 312 313 315 319 320 319 317 315 314 315 321 325 337 350 353 352 353 356 358 360 360 358 354 353 349 350 350 349 345 349 346 344 345 344 345 345 345 346 348 348 351 354 356 355
326 321 312 309 308 310 313 315 320 318 316 313 314 313 313 316 321 341 351 352 349 352 355 356 359 358 355 352 347 347 350 350 346 344 343 342 342 342 341 341 341 342 347 347 343 344 350 352 353
321 317 309 306 308 309 310 316 320 318 312 311 311 311 314 317 332 348 352 349 350 351 354 354 358 356 353 346 344 344 346 345 343 340 340 340 340 340 340 339 338 339 340 341 338 338 342 344 347
316 314 309 308 306 308 311 315 317 318 311 311 313 311 313 314 337 348 349 348 350 352 352 354 350 350 351 344 342 342 341 339 338 336 335 336 336 337 336 336 335 335 335 336 335 334 336 338 339
317 314 305 306 306 308 311 313 313 315 315 311 314 311 312 316 336 345 346 347 348 351 352 349 344 341 337 337 339 339 337 335 333 331 329 330 331 332 332 331 331 331 331 331 330 329 328 331 332
316 309 303 306 305 310 310 309 308 310 309 309 312 311 313 316 334 339 340 340 341 346 347 343 336 334 333 333 334 335 333 331 328 325 323 319 320 323 326 327 327 327 327 326 325 324 321 319 323
311 305 305 309 309 309 310 308 308 307 307 308 309 311 311 318 331 334 334 333 335 337 339 338 330 328 329 327 325 323 318 314 314 311 313 315 317 318 319 322 322 321 321 321 320 318 316 314 313
305 304 304 307 311 311 309 306 308 307 305 309 310 312 311 316 328 332 333 334 335 338 338 333 324 323 323 318 314 312 310 309 310 310 311 311 311 311 310 311 311 311 312 310 310 309 310 311 311
304 307 308 311 311 308 307 307 305 307 313 311 312 311 310 314 321 329 331 333 334 337 337 330 320 315 316 314 311 311 309 309 309 309 309 310 310 309 309 309 310 309 309 308 308 307 308 307 308
304 305 307 310 310 308 307 306 306 305 309 310 310 310 310 313 318 326 331 333 335 334 333 325 318 313 312 312 310 309 310 308 309 309 309 310 310 309 309 308 309 308 308 307 307 306 306 306 305
303 304 305 306 307 306 304 306 305 306 308 307 308 309 310 311 315 318 325 328 331 332 329 322 316 313 311 310 309 309 310 308 309 309 308 309 310 309 309 308 308 308 308 307 307 305 305 305 304
302 300 302 303 305 305 305 302 301 308 307 307 306 309 309 310 313 315 317 323 326 330 330 319 316 312 310 310 309 309 308 308 308 309 308 309 309 309 308 308 307 308 308 307 306 306 305 304 304
299 299 296 300 302 305 305 298 304 305 305 306 306 307 307 309 310 313 316 317 321 325 325 318 314 310 310 308 308 307 307 307 307 308 308 308 308 309 308 307 307 308 308 308 306 306 304 304 303
296 292 292 295 300 301 301 299 303 302 301 302 304 304 305 307 308 311 313 315 317 318 320 316 312 310 308 307 306 306 306 306 306 306 308 308 308 308 308 307 307 308 307 307 305 305 305 303 303
290 291 291 292 297 298 298 297 301 304 302 303 304 305 304 305 307 311 311 313 315 314 315 315 311 310 308 306 305 305 304 304 305 305 306 307 307 306 307 306 307 307 306 306 305 304 304 304 303
293 291 291 295 297 295 296 296 299 302 301 302 303 304 304 305 309 310 311 311 311 312 311 309 309 308 306 303 302 302 301 301 303 304 304 306 306 305 306 305 305 306 305 305 304 304 303 303 303
294 292 292 295 297 295 295 294 298 300 301 303 303 304 305 306 307 308 309 309 309 310 310 308 308 307 305 306 305 304 303 302 303 304 304 304 305 305 304 304 305 305 304 304 303 304 302 303 303
293 291 291 291 295 296 293 293 297 299 301 302 302 305 306 306 306 308 308 308 308 308 308 308 307 307 306 306 303 300 301 301 301 301 302 302 303 305 304 303 304 304 304 303 303 303 302 300 302
289 295 294 293 291 288 295 287 295 298 299 299 301 303 304 306 307 307 308 307 307 308 309 309 307 307 306 305 302 301 302 301 302 302 302 302 303 303 303 303 303 303 303 302 302 302 302 301 299
294 296 294 294 291 291 292 290 295 298 297 299 303 303 302 304 306 306 307 309 309 310 309 308 307 306 306 302 304 303 304 305 302 301 301 302 302 302 303 302 302 302 302 302 302 302 301 301 300
299 296 294 292 291 286 291 290 292 295 296 298 301 302 303 303 303 304 306 308 309 310 310 308 306 305 305 303 304 303 303 301 300 300 301 301 301 301 302 301 302 302 302 302 302 302 301 301 300
296 291 285 284 284 285 291 290 293 297 300 299 299 300 300 303 304 303 302 304 307 309 308 306 305 304 304 302 303 303 304 302 302 300 301 299 299 299 300 301 300 301 302 302 302 301 301 301 300
293 292 286 280 282 285 291 286 292 298 298 298 299 299 301 303 304 305 305 305 305 306 308 306 304 303 303 302 302 303 304 302 303 302 301 300 300 301 301 301 301 301 301 301 301 301 301 301 300
292 290 293 287 290 285 289 292 297 300 296 295 296 296 297 300 302 304 305 305 306 304 305 304 303 303 302 301 302 302 302 302 301 301 301 301 301 300 301 301 300 300 300 300 301 300 300 300 300
295 295 287 288 281 279 286 288 289 295 291 294 294 295 295 299 302 303 304 305 306 304 304 303 303 301 301 301 302 301 301 301 302 301 299 300 300 301 300 300 300 300 300 300 300 300 300 299 299
289 286 287 289 287 281 280 285 291 291 293 291 292 295 296 299 300 302 304 305 305 303 301 301 301 300 300 300 301 301 300 300 300 300 300 300 300 300 300 299 299 299 299 299 299 299 299 298 298
290 289 286 279 278 280 277 276 291 293 291 291 293 295 297 298 300 302 303 303 304 304 301 299 300 300 300 300 300 300 300 300 300 300 300 300 299 300 299 299 299 298 299 299 298 298 297 297 297

GFSSGP_sfc_thetae_018.txt.gz
Theta_e
347 343 348 343 327 324 318 319 325 322 323 328 332 329 325 327 323 319 348 350 348 349 352 358 361 360 359 356 359 359 357 356 351 351 352 353 352 352 353 354 354 358 358 358 357 356 357 356 357
342 337 342 337 320 314 315 322 320 324 326 330 331 328 326 322 332 340 344 351 351 350 352 353 361 360 359 360 357 356 353 352 347 347 347 347 347 348 349 349 349 353 355 357 358 356 355 356 356
340 336 332 325 320 314 314 321 325 326 327 328 327 328 327 323 329 339 348 353 351 351 351 355 360 362 360 356 354 353 351 349 347 347 345 345 344 345 346 346 347 348 351 352 354 357 356 356 355
334 334 328 319 316 318 318 322 327 325 325 325 325 320 324 331 333 344 351 354 352 350 351 359 361 360 357 354 353 351 349 349 346 350 346 344 345 344 345 345 346 347 349 346 348 353 355 355 356
337 330 320 317 318 319 321 322 327 325 323 323 322 319 322 326 333 347 352 353 351 347 349 353 361 360 355 353 350 350 352 348 345 345 344 342 342 342 341 342 341 345 344 341 344 347 349 350 353
323 326 315 312 316 319 319 323 326 326 324 320 318 319 323 328 330 347 352 352 347 345 347 349 359 358 354 349 348 351 349 346 344 342 341 341 341 341 340 338 338 339 340 339 338 341 344 345 348
316 316 312 314 315 318 319 322 324 325 324 321 322 318 323 324 333 347 350 349 345 344 345 346 353 355 351 346 346 347 346 343 341 339 339 338 339 338 337 336 335 336 336 335 334 335 337 339 341
327 317 310 312 311 313 320 321 324 325 323 320 323 318 317 324 334 346 349 345 343 343 343 343 348 351 346 342 344 343 341 339 336 335 335 335 334 334 332 332 332 332 332 331 330 329 331 333 333
324 311 307 310 311 312 318 318 318 321 324 319 321 322 321 325 339 344 344 341 341 341 342 343 343 346 343 338 339 339 337 335 332 329 328 326 327 328 328 328 328 328 327 327 325 323 322 321 325
315 308 308 314 315 314 316 316 318 314 317 317 319 321 319 327 337 338 338 337 337 339 341 343 341 342 339 333 335 331 331 328 323 321 319 319 321 322 324 324 323 322 322 321 319 317 316 317 320
311 305 309 309 313 316 315 314 316 314 314 318 318 321 320 324 333 334 335 335 335 338 342 342 340 340 337 332 331 327 321 318 317 316 317 318 318 317 317 317 316 315 312 314 313 313 314 314 316
306 309 311 311 313 313 312 314 313 315 317 319 319 321 321 320 327 330 332 333 334 337 340 342 340 338 336 332 326 321 317 316 315 315 315 316 315 314 314 314 314 314 314 312 313 312 311 311 311
308 308 310 312 312 312 313 311 311 312 316 319 318 316 317 319 322 329 331 333 334 335 338 341 341 335 334 329 323 319 318 316 316 315 315 315 315 314 313 313 313 313 313 312 311 311 311 309 308
308 308 308 309 310 311 309 309 311 311 316 315 316 316 317 318 320 323 327 330 332 335 337 340 339 334 331 326 322 319 318 317 316 315 315 315 315 314 313 312 312 312 313 313 312 311 311 310 309
308 304 307 307 308 308 310 305 307 313 314 312 312 314 316 318 319 320 323 327 331 334 337 337 337 333 328 324 322 320 319 316 316 316 314 314 315 314 313 312 312 312 312 310 311 310 311 310 310
303 303 300 305 306 308 307 300 308 311 310 310 311 312 314 315 317 319 321 324 329 332 334 336 334 331 326 323 321 319 318 316 316 315 314 314 314 314 313 312 311 312 312 311 310 310 310 310 310
302 296 299 301 305 305 305 302 307 309 308 307 309 310 311 313 315 317 319 321 324 327 331 334 334 328 325 323 321 319 318 316 316 315 314 314 314 313 313 312 312 312 311 310 309 309 310 309 309
296 296 297 297 302 302 300 300 304 307 307 307 308 309 310 311 312 315 317 320 321 324 326 331 334 328 326 324 320 319 316 316 315 314 314 313 313 313 312 312 311 311 310 309 309 308 309 309 308
298 296 296 300 303 301 300 300 303 306 306 306 308 308 309 310 313 315 318 319 319 321 323 325 329 328 327 322 318 316 313 313 313 313 313 313 313 312 312 311 310 311 309 309 309 308 306 307 308
298 296 296 300 301 300 300 300 304 306 306 308 308 308 310 311 313 314 315 317 317 318 320 321 324 327 327 323 321 318 316 315 314 313 312 313 312 311 310 310 310 310 309 309 308 308 306 307 307
298 296 297 297 300 302 301 300 304 307 307 308 309 310 311 311 312 314 315 316 317 317 318 319 321 322 326 321 320 317 316 314 311 310 310 310 311 310 309 309 309 309 309 308 308 308 307 304 306
296 300 299 298 297 294 301 292 301 305 305 306 308 310 310 310 310 310 311 312 314 316 318 318 319 319 322 321 318 314 312 308 310 310 310 309 309 309 309 308 308 308 308 307 307 307 306 305 302
297 301 299 298 297 297 297 294 299 304 302 303 306 306 307 309 309 309 310 312 314 314 315 317 318 318 319 318 318 315 313 314 313 311 310 309 308 309 309 308 307 307 308 307 307 305 305 305 303
301 299 300 299 297 290 296 295 296 299 300 303 304 305 304 304 306 307 309 310 311 315 315 316 316 316 318 318 317 316 315 314 314 311 309 308 308 308 308 307 307 307 307 307 306 306 305 305 304
301 298 291 290 290 290 296 294 297 302 302 301 300 301 301 302 302 304 306 307 310 312 314 313 314 314 315 315 315 314 316 316 313 310 310 308 308 307 307 307 306 306 307 307 307 306 305 305 304
298 296 290 283 286 288 295 290 296 304 305 304 303 302 300 300 301 303 305 307 308 310 312 312 312 313 313 313 312 312 314 315 314 311 311 310 309 308 308 307 306 306 306 306 306 305 305 305 304
296 293 297 291 292 287 291 295 300 302 302 298 299 299 297 299 301 302 304 306 308 309 311 311 310 312 312 312 311 310 312 313 312 312 311 311 309 308 308 307 306 305 305 305 305 304 304 304 304
293 295 285 288 279 280 286 287 289 293 291 293 294 295 297 299 300 302 305 306 307 309 311 312 310 309 310 310 310 309 310 311 311 312 310 309 309 308 307 306 305 305 305 304 304 304 304 303 304
287 287 289 289 287 280 279 283 293 289 290 290 293 296 297 299 301 303 304 305 307 309 310 312 311 308 308 309 309 308 309 309 310 309 309 309 308 307 306 305 305 304 304 303 303 303 303 302 302
290 289 287 281 279 282 281 280 291 291 291 293 294 297 298 300 301 302 303 305 305 307 308 310 311 309 307 307 308 307 308 308 308 308 308 308 307 307 305 305 304 303 303 303 302 302 301 301 301

GFSSGP_sfc_thetae_021.txt.gz
Theta_e
351 345 350 346 329 325 317 319 324 322 322 328 329 326 324 324 321 322 348 349 341 346 352 356 361 358 360 359 361 356 356 352 352 352 352 351 352 352 352 353 355 357 358 357 357 358 357 357 358
344 342 345 338 321 314 314 322 319 323 327 329 329 328 325 321 330 341 343 349 343 347 352 354 362 360 358 360 358 355 354 349 347 348 347 348 348 348 348 349 351 354 355 356 357 356 356 356 356
343 341 334 326 320 312 315 321 323 325 328 327 325 330 325 322 328 338 346 350 348 347 351 358 363 362 361 357 355 353 351 348 347 346 346 346 346 347 348 348 349 351 349 351 356 356 357 356 355
336 336 330 319 316 320 320 323 326 325 328 328 326 321 327 333 332 339 348 350 349 350 351 358 361 361 357 355 353 351 351 349 348 347 345 345 344 344 344 345 348 348 345 349 351 352 353 355 356
336 332 321 318 317 321 324 325 327 325 326 325 325 321 323 331 338 344 347 348 349 349 350 352 361 359 356 354 352 350 350 348 348 345 343 343 342 342 342 341 342 343 341 342 346 348 350 351 355
324 324 314 311 314 319 323 325 326 325 327 325 322 322 324 333 334 344 346 347 349 347 347 352 361 359 356 352 351 351 350 346 345 343 342 341 342 340 339 338 339 339 339 338 340 342 344 347 353
319 317 311 311 312 314 319 325 322 324 325 325 326 319 325 328 334 345 346 346 345 343 342 344 351 356 354 350 351 352 348 345 343 342 340 340 340 338 337 336 336 336 336 335 335 337 339 340 344
324 318 311 312 309 311 317 322 324 323 321 328 327 318 319 327 334 343 344 343 341 339 340 339 349 352 350 346 349 348 346 343 340 339 337 337 337 334 332 334 332 332 332 331 330 330 333 334 335
325 310 306 309 310 312 317 316 320 324 322 323 326 325 325 328 334 339 340 340 338 338 339 338 343 348 346 344 344 344 342 339 337 335 335 333 330 330 329 330 329 328 327 326 325 323 321 324 328
313 308 307 312 314 313 315 315 316 316 316 316 320 325 325 326 333 335 336 336 335 336 337 338 339 342 345 341 341 336 333 331 329 325 323 323 324 325 326 326 325 323 321 320 318 316 316 321 321
311 306 310 311 311 313 312 312 315 314 313 314 314 319 324 324 331 333 334 334 334 336 338 338 339 339 341 339 337 332 330 327 323 321 320 320 322 321 322 320 319 317 315 315 315 315 314 315 317
307 310 310 311 312 312 310 313 311 313 314 317 318 322 322 323 325 331 332 333 333 334 337 338 338 337 337 339 334 332 327 321 318 318 318 319 318 317 316 316 316 315 315 313 313 312 312 313 311
308 310 311 312 312 312 312 310 310 311 315 317 318 318 319 321 323 326 331 332 333 332 335 338 340 337 336 335 334 331 324 318 318 318 317 318 318 316 316 315 315 314 314 313 312 312 311 310 309
310 310 309 310 310 311 308 310 311 312 315 314 315 316 317 318 320 323 325 328 330 332 333 337 339 338 335 333 332 329 323 319 319 318 318 317 318 317 316 315 314 314 313 313 312 311 311 310 310
309 305 308 309 309 309 311 306 307 313 315 313 313 314 315 316 318 320 322 324 328 330 332 334 338 340 335 332 331 330 325 320 319 318 318 317 318 317 316 315 314 314 313 311 311 310 310 310 309
305 306 301 307 308 309 307 300 308 312 312 310 311 312 313 314 316 318 321 322 325 327 329 332 336 338 337 331 330 327 324 321 320 318 318 316 317 317 316 315 314 314 313 312 311 310 309 309 309
304 299 301 303 307 305 305 302 308 311 310 309 310 311 312 313 314 316 318 320 321 323 326 329 334 336 336 332 328 325 323 322 320 318 318 317 317 316 316 315 314 314 313 312 311 310 309 308 309
298 298 299 299 304 305 303 302 306 309 309 308 309 310 311 312 313 315 316 318 319 321 323 326 331 334 335 333 328 325 323 322 321 319 318 316 317 316 316 316 315 313 312 311 311 309 309 308 308
300 298 297 301 305 303 302 302 305 309 310 310 310 311 311 312 315 316 318 318 318 320 321 324 326 331 334 331 326 323 321 321 320 320 318 317 316 316 317 316 314 314 313 311 311 309 308 308 308
300 299 299 304 306 304 303 302 306 309 310 311 310 310 311 312 314 314 315 316 317 318 320 321 322 326 332 332 329 325 322 322 321 321 319 319 317 316 314 314 314 313 313 312 311 312 308 307 307
301 300 300 299 302 304 303 301 305 309 311 310 310 311 311 310 310 311 313 314 316 316 317 319 320 322 327 333 330 327 324 323 320 319 317 317 316 316 314 314 313 312 313 312 312 311 312 307 307
298 302 301 299 298 294 303 292 301 305 306 306 307 307 306 306 308 309 310 311 312 314 316 318 317 319 322 328 330 326 322 319 319 318 317 315 315 314 313 312 312 312 312 311 311 310 309 309 305
298 302 300 300 298 298 299 296 301 305 302 304 304 304 303 303 304 305 306 309 310 312 313 316 317 317 320 321 328 327 323 322 321 318 315 315 314 314 313 311 311 311 312 310 310 309 307 308 306
303 302 302 302 300 292 298 297 298 300 302 302 303 304 305 302 302 305 306 307 308 311 314 316 315 315 318 321 323 327 323 321 318 316 314 314 313 312 312 311 311 311 311 310 310 309 308 307 305
302 297 291 291 292 292 299 294 298 303 303 301 299 301 301 301 301 303 304 306 307 310 312 313 315 316 315 316 319 322 323 322 320 318 315 313 311 310 311 311 310 310 311 311 311 309 308 307 306
298 296 290 284 287 290 296 290 296 304 303 302 299 299 299 300 302 303 304 306 307 308 310 311 311 313 314 313 316 318 321 321 319 320 317 314 312 311 312 311 310 310 310 310 310 309 308 308 307
296 292 296 291 292 288 291 295 300 302 298 296 295 296 296 299 300 302 303 305 306 307 308 309 311 313 314 312 313 314 316 318 318 319 320 315 314 312 312 311 310 309 309 309 309 307 306 306 305
297 294 286 289 281 281 287 288 289 292 291 292 293 294 296 299 300 301 303 304 305 307 308 309 310 312 313 313 311 312 313 315 316 317 318 315 314 313 311 310 309 309 308 308 308 307 306 305 305
290 288 290 290 288 282 280 284 294 291 291 291 293 294 296 298 299 300 301 303 305 306 307 307 307 310 312 313 311 310 311 312 312 314 316 316 315 313 311 310 309 308 307 307 305 304 304 304 304
291 289 288 283 282 284 283 282 293 293 293 293 293 295 298 299 299 300 301 302 303 305 304 303 304 307 310 311 312 309 309 310 310 311 313 315 313 312 310 309 308 307 306 306 304 304 303 303 303

GFSSGP_sfc_thetae_024.txt.gz
Theta_e
350 347 347 348 328 324 315 316 324 321 323 325 327 323 319 322 318 320 345 343 342 345 352 357 362 360 359 359 358 357 354 353 353 352 352 353 353 352 353 354 357 357 358 357 358 358 357 358 359
342 342 347 339 321 312 312 319 320 323 324 326 326 323 321 317 331 338 339 342 342 347 348 356 361 363 359 360 358 355 352 350 349 349 348 348 349 350 350 352 353 354 354 357 357 357 356 356 356
340 341 334 327 320 311 313 318 322 325 326 326 324 325 321 322 327 339 344 343 342 344 350 358 363 362 360 358 356 354 350 349 347 346 347 347 348 348 348 349 349 348 352 353 355 356 357 356 356
338 338 330 318 314 319 316 321 324 326 327 328 324 318 324 329 328 336 346 345 340 343 354 363 364 363 359 357 355 352 350 349 348 346 346 345 344 344 343 346 345 344 346 348 349 351 352 356 355
336 332 320 316 316 319 322 323 324 322 325 325 324 319 321 328 337 342 342 344 343 344 351 357 364 361 358 355 353 352 350 350 348 344 344 344 343 343 341 341 342 341 341 344 346 347 349 355 356
325 325 312 307 310 314 317 324 322 322 323 324 321 319 321 329 334 339 342 341 344 344 349 353 362 359 357 354 352 351 349 347 345 344 343 343 342 340 339 338 339 338 338 338 340 343 346 348 354
325 317 310 310 309 311 314 321 319 318 318 320 325 318 320 325 332 340 339 340 342 344 343 349 355 355 358 355 353 352 350 346 345 343 342 342 340 339 337 337 336 336 335 335 336 338 340 343 346
325 320 310 309 308 309 316 317 323 317 315 322 325 317 313 323 331 338 338 337 338 336 337 343 349 351 348 346 355 352 349 345 344 341 340 340 338 336 335 334 333 332 332 331 330 331 333 336 337
332 310 303 305 307 311 315 311 316 319 317 318 317 320 321 327 330 333 333 333 333 332 332 331 345 346 346 343 347 349 347 344 341 338 338 336 327 327 326 331 330 329 328 326 325 323 321 327 330
315 308 308 311 311 309 311 310 312 310 311 311 312 318 322 326 325 328 329 329 329 329 330 331 340 344 343 343 341 338 337 332 328 328 326 325 322 324 325 326 327 325 322 320 318 316 318 321 317
314 307 312 310 312 311 310 309 311 308 306 312 311 312 317 320 323 326 328 329 329 329 330 331 330 341 340 338 338 334 331 327 324 320 318 316 320 319 317 315 314 311 317 312 314 310 309 308 310
308 310 309 312 312 311 308 311 308 308 309 313 312 313 314 318 319 324 326 328 327 328 330 331 331 331 335 337 335 331 327 324 319 315 313 314 314 313 313 312 311 309 309 306 306 306 307 306 304
306 308 311 312 311 310 311 308 308 308 312 313 313 313 312 314 314 320 325 328 327 326 329 332 331 330 331 333 331 330 323 319 313 311 311 313 312 309 309 308 308 308 307 305 305 304 304 302 302
309 309 308 308 308 309 307 307 308 309 312 311 311 310 310 311 314 314 317 319 324 325 327 332 333 333 329 329 329 328 322 313 311 312 311 312 312 310 309 308 308 307 306 306 305 303 303 302 301
310 303 305 307 307 308 309 303 304 309 311 309 309 307 310 311 312 313 315 316 318 324 325 329 332 334 333 328 328 327 322 316 312 312 311 311 312 310 309 308 307 307 306 305 303 301 302 302 303
303 303 298 307 308 309 306 297 307 308 307 306 306 305 307 308 308 309 312 315 316 317 320 324 332 334 334 330 326 325 321 315 312 311 311 311 313 312 309 308 308 308 306 305 304 303 302 301 301
303 295 299 301 307 307 304 298 305 308 306 305 304 304 305 306 307 308 311 311 313 315 315 318 325 332 333 333 326 323 320 316 313 311 311 310 312 312 310 309 308 307 306 305 305 304 303 302 302
295 295 296 295 301 303 301 300 304 306 306 305 305 304 305 306 309 311 312 313 314 314 313 313 317 329 332 332 328 321 319 316 314 312 311 311 311 311 309 309 308 307 307 305 304 302 302 302 301
298 296 295 299 304 302 301 301 303 306 306 305 306 306 306 307 309 310 310 311 312 313 314 313 315 317 326 330 327 319 315 313 313 312 311 310 310 310 309 309 308 307 306 305 304 302 301 300 300
299 297 297 301 305 301 299 299 303 305 306 305 304 303 303 303 304 305 307 308 309 309 311 312 314 314 315 327 328 325 318 315 314 313 312 311 311 310 309 308 307 306 306 305 304 302 300 301 301
299 297 297 297 300 301 299 297 301 304 305 304 302 301 300 299 300 302 303 304 306 307 308 310 311 313 314 314 325 321 318 315 313 313 313 312 311 310 310 308 307 306 306 304 303 303 302 298 299
295 301 299 298 295 290 299 287 296 300 300 300 299 299 299 298 300 301 302 303 303 304 308 309 310 311 313 313 313 320 320 316 315 314 314 311 311 310 310 308 307 306 305 304 304 305 302 301 298
296 302 299 299 295 294 295 291 295 300 297 298 299 299 297 298 299 300 301 303 304 305 307 308 309 309 311 312 312 312 318 320 317 315 312 312 311 310 309 308 307 306 306 304 304 302 302 301 299
303 300 298 296 294 288 294 294 293 295 296 294 295 295 295 296 298 300 301 303 303 305 306 306 307 308 310 310 310 310 311 318 318 314 312 311 310 310 309 308 307 306 306 304 304 302 301 300 299
300 294 286 286 287 288 295 291 292 296 295 292 292 293 294 295 297 298 299 300 302 303 304 306 306 306 308 309 309 308 309 312 319 317 314 309 309 308 308 307 306 306 305 304 303 302 300 300 298
294 293 287 281 283 286 293 286 292 296 294 294 294 294 294 294 296 297 298 299 301 302 303 304 304 304 307 309 309 308 308 310 314 319 317 311 310 309 308 307 306 306 305 304 303 302 301 300 299
294 289 292 287 289 285 288 292 296 293 291 292 292 293 293 294 296 297 298 299 299 300 301 303 304 303 304 306 309 308 308 308 309 316 317 315 312 310 308 307 305 305 305 304 302 302 300 299 299
294 295 285 285 278 277 283 284 285 286 288 290 291 291 292 294 296 297 298 299 299 301 301 304 301 300 302 304 309 309 309 307 307 309 314 314 313 310 307 306 306 304 304 304 302 300 300 298 298
289 287 288 287 284 277 277 281 289 288 289 289 291 292 292 293 295 296 297 298 299 300 301 300 300 300 300 303 307 307 308 308 307 307 309 312 313 311 307 307 305 304 303 303 302 301 299 298 298
290 287 287 282 280 281 278 279 291 290 291 292 291 292 293 295 296 297 297 297 297 298 299 299 300 300 300 302 304 306 307 309 307 305 305 306 310 312 309 306 305 304 303 303 302 300 300 299 297

GFSSGP_sfc_thetae_027.txt.gz
Theta_e
349 341 343 337 319 317 311 314 321 315 316 318 321 319 315 318 320 314 339 339 351 351 356 359 362 361 357 359 358 356 356 355 354 354 354 353 353 353 355 357 357 358 358 358 358 357 357 358 358
344 341 338 328 313 307 309 319 318 317 320 321 322 318 315 319 335 334 335 339 348 351 354 357 361 363 360 359 357 354 353 352 351 350 350 350 351 351 353 352 351 353 358 356 358 357 356 357 358
342 340 323 318 312 309 309 318 318 320 322 321 318 319 316 318 336 334 339 338 348 347 354 357 364 363 361 359 356 353 351 349 348 347 347 348 348 348 349 348 348 351 351 353 355 356 356 356 357
329 329 322 310 308 313 316 318 320 321 323 323 320 315 320 324 336 338 340 338 340 345 354 361 364 362 359 358 356 352 350 347 347 347 346 345 345 345 346 345 343 346 347 348 350 350 354 355 357
326 322 312 309 310 314 318 321 319 318 320 322 320 315 317 326 338 341 340 337 343 350 355 359 363 361 359 357 355 351 350 349 346 345 344 344 343 342 342 342 341 341 343 345 345 347 351 356 355
315 315 303 300 304 308 308 315 316 314 315 319 317 315 316 326 335 338 340 338 347 350 356 358 364 362 359 357 354 352 350 350 344 345 344 343 341 340 340 340 339 338 339 340 342 344 347 353 354
311 308 302 303 304 305 309 312 311 311 311 313 319 312 316 321 332 336 337 337 344 348 351 355 356 357 359 357 354 352 350 347 345 344 344 342 341 338 338 338 337 336 336 337 337 339 343 347 346
314 310 302 300 302 303 310 310 314 311 310 316 317 312 311 320 331 335 335 335 337 345 349 352 351 352 350 349 356 352 349 347 344 343 343 341 339 336 337 335 335 334 333 333 333 334 335 338 339
315 299 296 298 301 304 308 306 310 310 310 313 312 315 318 324 330 331 329 329 332 336 344 349 349 348 346 344 349 352 350 346 344 341 342 337 326 327 328 331 332 331 330 329 327 326 326 328 330
306 299 299 305 304 302 306 306 306 305 304 305 307 310 319 323 324 327 326 327 326 326 328 345 347 347 344 345 345 341 340 335 331 330 328 326 323 322 325 328 329 327 325 323 322 320 319 320 316
304 299 305 306 307 309 306 305 308 303 301 303 305 309 315 318 319 324 325 326 326 326 326 335 345 344 343 341 342 339 335 329 327 325 324 321 322 322 318 316 316 311 319 310 312 308 306 305 307
300 306 307 307 310 308 305 307 304 305 305 307 308 307 310 315 318 320 323 325 325 325 327 328 341 342 341 338 338 336 333 329 324 322 321 313 313 313 312 311 309 306 307 307 304 303 304 303 301
300 303 307 308 307 306 306 304 304 305 307 308 309 310 307 307 313 317 322 325 324 323 325 327 327 339 338 335 335 331 328 328 322 318 316 313 311 310 311 308 308 306 304 302 302 302 301 299 299
303 305 304 305 305 304 303 303 304 305 307 307 307 306 306 307 308 310 311 320 322 323 324 328 328 328 331 332 332 329 323 324 316 312 312 311 310 308 306 305 305 304 303 302 302 301 300 299 299
304 300 301 302 303 303 304 299 300 304 304 303 303 298 300 303 307 307 309 310 314 318 321 328 329 329 326 328 329 327 322 317 310 309 309 310 309 307 306 304 304 303 303 302 301 299 299 299 300
297 296 291 300 303 305 301 293 302 305 302 301 301 300 302 304 307 307 309 310 310 310 312 319 331 331 330 324 328 327 322 314 311 309 308 308 310 308 306 305 304 304 303 301 300 299 298 298 298
295 288 291 294 300 303 299 294 300 303 302 300 299 299 304 304 305 306 307 308 308 309 310 312 314 319 329 328 323 326 323 315 311 310 309 307 310 310 306 305 305 305 303 301 302 300 299 298 298
287 287 290 289 296 299 297 296 300 301 302 300 301 301 300 301 301 304 305 306 307 307 308 309 312 312 315 323 322 319 318 313 311 310 310 308 308 309 307 306 305 304 302 301 301 300 299 299 299
293 291 291 295 300 297 295 296 299 302 300 297 296 295 296 297 300 303 303 304 304 307 307 307 308 310 311 312 312 317 316 316 311 310 311 310 309 309 307 306 305 304 303 302 301 299 298 298 297
295 292 291 296 301 297 295 295 298 297 296 296 295 294 295 297 298 300 302 302 303 304 306 306 306 308 308 310 310 313 318 315 316 313 310 311 310 309 307 307 305 303 302 301 301 299 298 298 297
294 292 292 292 297 297 294 291 295 296 297 297 296 295 296 296 297 298 299 300 302 302 304 305 305 306 308 308 309 311 312 315 312 310 309 309 310 309 309 307 306 304 304 303 301 299 298 297 297
290 298 297 296 292 285 294 284 291 293 294 295 292 291 293 295 297 298 299 299 300 302 304 304 304 305 309 309 308 305 305 307 313 313 314 311 309 309 310 308 307 306 305 302 303 302 299 297 296
294 299 296 295 291 289 291 286 288 294 289 288 289 291 291 294 296 296 297 298 300 301 302 304 303 304 306 306 307 307 304 305 309 314 312 312 308 309 309 308 307 306 305 305 303 301 300 299 297
300 297 293 291 289 282 289 289 287 288 286 287 288 290 291 292 294 295 297 298 298 299 300 301 302 303 304 304 305 306 306 304 304 307 311 310 311 308 308 308 308 307 306 304 304 302 300 299 298
294 287 281 281 282 282 290 286 284 286 288 289 289 289 290 291 293 294 295 296 297 297 298 300 300 301 302 301 302 304 306 303 304 305 308 310 309 309 306 307 306 305 306 305 304 301 301 300 299
289 288 282 277 278 282 289 282 285 289 290 290 290 290 290 291 293 294 294 295 295 296 297 298 300 299 300 300 300 301 305 306 307 306 306 307 312 310 310 307 307 307 305 305 304 303 302 300 299
289 284 288 282 284 279 283 286 286 289 288 289 289 290 289 290 292 293 294 294 294 294 296 297 298 298 299 298 298 300 303 304 305 306 307 306 309 312 309 307 307 306 304 305 304 303 301 301 298
289 291 282 280 274 273 278 280 282 283 285 288 289 290 289 290 291 293 293 294 295 296 297 297 296 296 297 298 299 302 302 303 304 307 306 305 306 310 309 308 306 305 304 304 303 302 301 299 298
284 282 283 282 279 273 272 277 284 283 287 288 290 291 291 291 292 293 294 294 294 294 295 295 296 296 297 299 298 300 300 302 304 306 307 306 304 308 310 308 306 304 303 304 302 302 300 299 298
287 283 283 275 276 277 272 276 287 288 290 290 290 291 290 292 293 293 293 293 292 293 294 294 295 296 297 298 299 300 301 302 302 304 305 305 305 306 309 308 307 305 304 303 302 301 301 299 297

GFSSGP_sfc_thetae_030.txt.gz
Theta_e
347 341 341 336 316 316 309 315 318 314 314 317 319 317 315 317 316 306 335 347 350 352 355 359 362 359 359 359 358 357 356 356 355 356 355 354 354 356 356 357 358 357 357 357 356 357 357 358 357
345 341 335 325 310 306 306 314 314 315 319 319 320 316 314 316 333 333 332 345 351 352 356 357 362 360 359 358 357 355 354 354 353 352 352 352 351 353 353 352 354 356 357 356 356 355 356 357 356
337 339 322 316 311 305 308 316 316 319 320 319 318 318 316 317 334 333 336 349 350 350 355 355 363 362 361 358 356 354 352 352 350 348 348 348 349 350 349 349 351 351 352 354 356 356 355 357 356
326 327 321 309 306 310 312 315 319 319 320 321 317 314 318 327 333 335 338 347 347 348 353 359 364 361 361 358 355 353 350 348 347 347 346 345 346 347 345 345 348 347 348 348 349 352 354 356 355
325 320 309 306 306 309 312 317 317 314 316 319 318 314 315 328 333 337 336 345 342 348 352 359 362 360 360 358 355 352 349 348 348 346 345 344 343 344 344 342 343 345 346 346 346 348 351 356 354
312 312 302 298 302 307 306 308 313 311 311 317 316 313 315 327 335 334 334 341 346 350 354 357 362 362 360 358 355 352 350 347 346 345 344 343 342 341 341 340 339 340 342 343 344 347 352 354 353
310 306 300 300 301 302 307 307 307 306 307 309 317 310 315 325 334 337 334 342 348 351 353 354 357 359 361 359 356 353 351 348 345 344 344 343 341 340 340 339 338 338 338 339 341 345 347 348 348
314 307 300 298 299 298 307 307 310 306 306 314 315 309 312 321 331 335 334 340 345 350 352 354 355 354 352 351 357 353 351 348 345 344 344 342 340 338 338 337 336 336 336 337 336 338 343 344 343
312 296 295 296 298 300 305 303 307 308 303 305 310 308 316 321 330 330 329 330 341 345 348 351 350 349 348 346 349 353 350 347 345 343 343 339 327 328 330 331 334 333 333 332 331 331 332 332 334
304 296 295 302 302 300 304 303 304 303 302 301 303 308 318 322 327 328 326 325 331 339 343 348 347 346 345 348 345 344 343 338 335 333 331 327 323 323 326 329 331 331 329 328 327 324 322 322 314
304 297 302 305 306 307 304 303 307 302 299 301 301 306 307 316 320 326 326 326 327 334 340 346 345 345 343 343 342 340 337 333 330 329 326 324 322 321 321 317 318 312 320 310 311 309 305 306 307
299 304 305 306 308 306 303 305 302 303 303 305 305 305 306 315 318 322 324 325 325 324 330 343 346 344 342 341 342 340 336 332 328 326 325 321 317 317 314 313 311 307 308 305 304 301 302 301 302
298 301 305 306 306 304 305 302 301 303 305 306 306 306 304 304 307 309 309 315 322 324 326 331 344 343 341 338 340 338 336 333 330 324 322 317 314 314 311 309 307 304 303 303 301 300 300 297 297
301 303 303 304 303 303 302 301 302 303 304 303 304 302 302 303 305 305 306 306 306 312 315 324 338 341 340 337 337 335 334 332 327 323 320 316 315 313 310 307 307 305 302 301 300 299 298 297 296
302 297 298 300 302 301 302 298 299 304 302 301 299 300 302 302 304 303 305 305 306 308 310 311 322 332 336 336 336 333 331 329 323 320 318 315 314 311 310 307 304 303 302 301 299 298 297 297 298
296 294 290 298 299 303 299 292 299 302 300 299 299 298 300 300 301 300 304 305 305 306 307 310 313 312 322 325 329 331 328 325 322 317 315 313 312 311 306 306 304 303 302 301 299 297 297 296 296
291 286 289 292 298 299 298 293 299 301 300 297 296 296 298 298 299 300 302 302 304 305 305 307 309 310 311 318 321 321 322 316 316 312 311 310 311 310 307 306 305 304 302 300 299 298 297 296 296
286 286 288 288 295 298 296 293 295 298 297 295 293 292 296 296 297 299 301 300 303 303 304 305 306 308 310 311 311 315 317 317 312 310 310 309 310 310 307 306 305 303 301 300 298 298 298 297 297
291 289 289 292 298 295 293 292 293 294 293 292 291 292 293 295 297 299 300 300 301 302 302 301 304 304 308 309 309 309 309 317 316 312 311 309 308 309 307 306 304 303 303 301 299 298 297 297 296
294 290 290 294 299 295 293 290 293 293 292 292 292 291 293 294 295 296 298 299 300 299 300 302 301 304 305 306 306 305 305 311 314 315 311 311 309 308 308 307 306 304 302 300 299 298 296 296 296
292 290 290 291 295 294 292 289 290 293 292 292 292 293 293 293 294 294 295 296 298 298 298 301 301 303 304 304 305 306 306 307 308 310 313 312 309 310 310 307 307 305 304 303 301 299 298 296 296
289 296 296 294 291 284 293 281 288 290 287 288 287 288 291 292 294 295 295 296 296 297 298 300 301 301 304 303 302 302 302 302 303 305 310 312 310 308 309 309 308 306 305 303 302 301 298 297 295
293 297 295 294 290 287 288 285 285 287 284 285 287 288 288 291 292 293 295 296 296 297 297 298 299 300 302 301 300 300 299 302 303 303 303 305 310 310 310 309 307 307 307 305 304 301 298 297 296
297 293 290 289 287 280 286 287 285 282 283 285 287 288 289 289 292 293 294 296 296 296 296 297 298 298 300 299 299 298 297 300 300 301 301 303 305 309 308 308 308 307 306 306 303 303 302 301 297
292 286 280 280 280 280 288 284 281 284 286 286 287 288 289 289 292 293 293 293 295 295 295 297 296 297 298 296 297 297 297 300 301 301 301 301 303 305 307 307 307 308 308 306 305 303 302 301 300
288 286 280 275 276 280 287 280 281 287 288 288 288 289 289 289 291 292 293 293 293 295 294 295 296 295 296 296 296 297 297 300 302 302 301 302 302 304 306 308 308 308 308 308 307 304 303 302 301
286 283 287 281 280 278 281 281 285 286 286 286 287 288 288 289 291 292 293 293 293 293 293 294 295 295 295 296 297 295 295 300 301 301 302 303 303 305 305 305 308 309 308 308 306 305 302 302 301
287 289 282 280 274 273 276 277 280 282 283 286 287 286 288 289 290 291 292 293 293 293 293 294 294 294 295 295 295 298 297 300 300 301 301 303 303 302 303 303 306 308 308 307 306 305 303 301 300
284 282 282 281 278 273 271 276 283 283 284 286 287 289 290 287 290 290 291 292 293 293 292 293 294 295 296 295 296 296 298 299 299 300 302 303 302 302 303 304 304 307 307 305 306 305 303 300 300
285 282 281 275 275 276 272 275 287 285 288 289 288 289 288 290 291 292 292 291 291 292 292 292 293 293 294 295 295 296 298 299 297 298 301 303 302 302 303 304 305 307 308 306 305 304 303 300 299

GFSSGP_sfc_thetae_033.txt.gz
Theta_e
347 341 339 335 314 312 306 309 316 313 313 316 317 315 313 314 311 303 331 345 347 349 355 358 360 358 359 359 359 358 358 357 357 356 355 354 355 355 356 356 354 355 357 356 357 357 357 356 356
342 339 332 323 309 303 303 312 313 314 317 317 316 316 314 312 331 330 334 346 349 352 354 356 360 359 359 358 357 356 356 355 355 354 353 352 352 352 352 354 355 355 356 355 355 356 357 355 356
334 336 321 314 309 302 304 311 314 318 318 318 316 315 315 315 332 331 334 347 349 350 355 356 361 359 359 358 356 355 354 353 352 350 350 349 350 351 349 352 350 351 356 356 355 354 356 356 356
325 325 319 308 304 308 310 312 317 318 319 320 316 312 316 323 331 333 340 348 347 349 353 357 361 358 357 354 355 354 353 351 348 346 345 345 347 347 345 348 350 348 346 348 351 353 355 355 355
323 316 306 301 302 306 306 310 314 312 313 315 315 311 314 323 332 335 344 347 344 347 351 355 361 360 360 356 355 353 350 348 346 346 344 344 344 344 342 343 345 345 345 345 345 347 354 354 354
311 310 299 295 300 305 305 305 309 306 309 314 314 312 314 322 332 333 343 343 345 347 350 356 362 363 361 357 354 353 348 347 346 345 344 342 342 342 340 339 341 342 343 343 343 345 351 353 353
309 304 298 299 299 298 305 305 302 302 302 306 313 308 315 323 331 331 336 339 343 349 351 354 356 358 361 360 357 353 351 347 346 344 343 342 340 339 339 338 337 337 339 340 342 344 348 353 350
313 305 299 297 297 295 304 304 307 302 301 307 310 305 308 319 332 332 338 342 342 347 350 350 353 355 354 353 358 354 351 349 345 345 343 342 340 338 338 337 335 335 335 336 337 342 345 346 344
309 295 293 295 296 298 303 301 305 305 301 302 303 304 311 318 331 330 329 337 341 346 346 349 352 351 350 348 352 354 351 350 346 345 344 339 328 327 330 332 334 333 333 333 333 334 337 336 334
302 292 293 299 300 298 302 301 302 302 300 298 300 303 307 322 326 328 326 330 336 340 344 351 351 348 346 349 346 344 343 339 337 336 332 328 324 323 327 329 332 331 331 330 328 327 325 322 314
302 296 300 303 305 305 303 302 304 301 298 300 300 302 304 315 322 324 324 324 328 336 342 348 347 347 345 345 344 344 338 337 334 332 329 325 323 321 323 319 318 313 320 310 311 308 305 307 308
298 303 303 305 306 304 301 303 301 301 302 303 302 302 303 302 303 304 304 305 307 322 331 342 346 344 344 344 343 343 338 337 333 331 328 324 319 318 317 315 313 309 308 304 303 301 301 300 302
297 299 303 304 304 303 303 300 299 301 301 302 303 302 301 301 301 303 304 305 306 307 309 319 342 342 341 340 340 341 339 337 334 330 327 325 320 318 316 313 310 306 303 304 301 299 299 296 296
300 301 301 300 301 301 300 299 300 301 300 300 300 299 299 300 301 302 303 302 302 304 307 310 319 342 341 339 336 336 336 335 332 329 327 324 320 317 316 311 307 305 302 301 300 299 297 296 295
301 295 297 297 298 300 300 295 298 299 300 298 297 296 298 298 299 298 301 302 300 302 305 308 311 317 332 335 334 334 332 332 328 326 322 320 318 316 315 311 305 305 303 301 299 297 296 295 296
295 292 289 296 298 299 298 290 295 298 298 295 295 293 296 297 297 296 300 302 302 301 302 306 310 309 310 315 326 331 329 326 325 320 317 317 316 314 312 311 308 305 303 301 299 297 296 295 294
290 286 287 291 297 299 297 290 293 297 295 293 291 292 295 295 297 297 299 299 301 301 300 303 305 306 307 307 310 315 318 321 320 316 313 315 315 313 311 310 309 305 302 300 299 296 296 295 295
285 285 287 287 294 297 291 289 291 293 292 290 290 290 292 294 295 297 299 298 299 300 300 301 303 304 305 306 307 308 310 313 311 309 311 311 311 312 310 306 305 304 302 300 298 297 295 296 296
290 288 288 291 296 293 289 288 290 291 291 290 290 290 292 293 295 296 297 298 298 298 298 299 302 302 304 305 304 304 304 307 310 311 310 309 307 310 307 307 305 303 303 302 299 297 296 295 295
292 289 288 292 297 293 288 287 290 291 290 291 290 290 291 292 293 294 296 296 297 296 296 297 299 301 302 302 302 302 302 306 310 311 313 313 311 307 307 306 305 305 303 301 299 298 295 296 295
291 288 288 289 293 293 289 286 287 289 289 290 290 291 291 291 292 292 292 294 295 295 295 297 298 299 301 301 302 302 301 302 303 304 308 309 312 311 309 307 307 305 306 304 301 300 298 296 294
287 294 294 293 289 284 290 280 285 285 285 286 285 286 289 291 292 293 293 293 294 295 295 296 297 298 302 299 299 298 298 298 301 301 303 304 307 308 311 308 307 307 304 305 304 303 302 298 296
292 296 293 292 288 285 286 283 283 284 283 284 286 287 287 290 292 293 294 294 295 295 294 295 296 297 298 297 296 296 295 297 300 301 301 302 303 305 307 307 305 307 305 305 306 303 301 302 297
294 290 288 288 285 280 283 285 282 283 283 284 285 288 288 288 290 293 294 294 294 295 294 295 295 296 297 296 296 294 293 294 296 299 299 300 301 302 304 306 305 305 305 305 305 304 302 302 302
291 284 278 278 279 279 286 283 280 283 285 286 285 287 288 288 288 291 292 292 293 294 294 295 295 295 295 294 294 294 294 294 294 299 299 298 299 300 302 302 303 304 305 305 305 304 303 303 301
286 284 278 275 275 277 284 279 280 285 287 287 288 288 288 289 288 290 292 292 292 293 293 293 294 293 294 294 294 294 294 295 298 300 299 298 299 301 302 302 301 303 305 306 306 306 304 305 303
285 281 285 280 278 276 279 281 282 285 285 285 286 287 287 288 288 291 292 292 291 292 292 293 293 294 294 294 294 294 294 294 297 298 298 299 300 303 303 301 301 301 303 305 306 305 304 304 304
285 288 281 278 274 273 275 276 279 281 282 285 285 285 287 288 288 290 291 291 292 291 292 292 292 293 293 293 293 295 294 294 295 296 296 298 300 302 301 301 301 301 302 304 305 305 305 304 303
282 280 281 280 277 274 271 275 282 282 284 284 285 286 287 287 288 289 290 291 292 293 293 293 292 293 293 294 293 293 294 296 295 296 297 297 298 301 301 301 301 301 302 304 304 304 305 305 303
283 280 280 275 274 274 271 274 285 285 285 286 286 287 288 289 290 291 291 292 292 293 293 293 293 293 294 294 293 294 295 296 294 295 296 297 297 301 301 301 301 301 302 302 303 303 304 304 303

GFSSGP_sfc_thetae_036.txt.gz
Theta_e
347 339 337 332 313 309 304 308 314 312 312 315 315 313 311 312 309 301 329 342 346 347 354 355 358 359 358 358 357 356 356 356 355 354 352 353 353 356 356 353 353 357 356 357 357 357 355 356 356
338 337 330 320 307 300 303 309 312 314 316 315 315 315 313 310 328 328 333 344 347 351 354 354 358 360 358 356 356 355 355 355 355 353 351 351 350 350 349 354 355 353 356 355 356 357 355 356 356
332 332 319 312 306 300 302 310 313 316 317 316 314 314 313 314 330 328 334 346 349 351 354 354 357 358 359 355 354 355 354 354 353 352 350 347 348 349 347 350 348 351 355 355 354 355 355 356 355
324 323 316 306 302 305 307 307 314 316 318 318 314 310 315 320 328 331 343 347 346 348 351 356 360 359 357 355 353 354 353 352 350 347 345 344 346 346 346 348 345 346 347 349 350 353 355 355 355
320 313 301 299 300 303 304 307 307 308 310 312 314 310 312 323 332 338 344 346 344 347 350 355 359 359 358 357 354 354 352 350 346 344 342 342 343 342 340 343 345 344 344 344 344 348 353 353 354
311 307 296 293 297 303 303 302 306 302 304 307 310 310 312 320 330 338 344 342 346 347 350 353 360 359 359 356 354 354 351 348 346 345 342 341 341 341 339 338 340 341 342 343 343 346 350 353 352
308 301 297 297 297 297 302 303 300 300 298 305 305 305 311 320 330 336 340 340 343 347 348 351 354 359 362 359 354 354 351 348 347 345 343 341 339 339 338 337 336 337 338 339 341 342 350 352 351
310 303 298 297 295 294 302 302 305 300 298 304 305 304 305 310 328 333 338 337 340 344 348 348 351 353 353 352 358 355 352 348 347 345 343 342 339 338 337 336 334 334 334 334 336 340 346 347 346
306 294 292 294 295 296 301 300 303 304 299 300 301 302 304 310 328 330 334 337 339 343 342 345 348 349 350 349 352 356 354 351 348 346 345 340 329 326 328 333 333 333 332 332 332 334 339 337 331
300 291 292 298 298 297 301 299 301 300 299 298 298 302 304 310 319 320 320 324 331 336 343 345 348 350 346 351 347 346 344 343 339 337 335 329 326 324 327 329 332 332 330 330 329 328 326 320 313
301 295 298 302 303 303 301 301 303 299 296 296 296 299 300 301 303 304 304 303 304 317 338 346 349 349 348 347 342 341 339 337 335 333 330 327 325 324 325 320 318 315 319 311 310 307 304 305 308
297 302 302 304 305 303 300 302 297 296 296 300 299 299 300 299 299 300 301 302 304 305 307 314 343 348 347 345 341 340 337 335 332 330 327 323 320 318 319 318 315 312 308 305 304 301 300 300 301
295 298 302 303 302 301 302 299 296 296 299 298 299 299 298 299 299 300 301 302 301 303 306 308 310 341 346 344 338 339 340 336 332 329 327 324 320 317 316 315 313 310 305 304 301 300 298 297 295
298 299 299 298 299 300 299 298 297 297 298 296 296 295 296 297 297 300 300 300 299 300 303 307 309 325 343 340 336 336 339 337 333 328 327 325 322 317 316 314 311 307 303 303 302 299 297 296 294
299 294 295 295 296 298 298 293 292 296 296 294 292 292 295 296 297 296 298 300 298 299 301 305 309 308 311 326 337 336 333 334 330 328 326 325 322 318 317 314 310 306 303 301 299 297 296 295 295
293 291 287 294 298 299 297 287 292 295 293 291 291 291 293 295 295 295 297 298 299 298 299 303 306 306 306 306 312 327 332 331 328 326 324 324 324 321 318 315 315 309 304 302 299 297 296 295 294
289 285 285 290 297 297 293 287 291 293 293 290 289 290 293 293 295 295 297 297 298 298 298 301 302 303 304 304 306 308 310 314 317 318 318 319 321 320 319 315 314 310 307 302 299 297 296 295 294
285 286 286 286 293 292 288 286 289 291 290 289 288 289 291 292 294 295 297 296 297 296 297 298 300 301 302 302 303 305 306 308 309 309 308 310 314 316 312 311 309 309 304 302 299 298 296 296 295
289 287 286 289 294 289 286 286 288 290 289 289 288 289 290 291 294 295 296 295 295 295 295 295 299 299 300 300 300 300 301 304 306 308 310 309 308 308 311 310 306 304 305 305 302 297 296 295 295
291 287 286 291 295 289 286 285 288 289 289 289 289 288 289 291 292 293 294 294 294 293 294 295 296 299 299 299 299 299 299 302 304 305 306 308 311 311 308 309 310 305 303 301 300 300 297 296 296
289 287 287 288 292 289 286 284 285 287 288 289 289 290 291 291 291 292 292 293 294 293 293 295 296 298 298 298 299 299 298 298 300 301 302 303 305 307 308 308 308 307 303 303 300 299 298 300 296
286 293 293 291 288 282 288 280 283 284 284 285 285 285 287 290 291 292 293 293 293 294 294 294 295 296 299 296 296 294 294 293 297 298 301 301 303 303 304 305 305 304 304 302 303 302 301 298 298
291 293 291 290 287 283 284 283 283 283 282 283 285 286 287 287 289 292 292 293 294 294 293 293 294 295 296 295 294 293 292 293 295 297 298 300 300 301 303 303 303 303 302 303 305 302 300 300 301
293 289 287 286 284 279 281 283 281 280 282 283 284 287 287 288 288 289 292 293 293 293 293 294 293 295 295 294 294 293 292 292 293 295 297 299 299 300 301 303 302 302 301 301 302 303 300 302 301
289 281 277 277 278 279 284 282 282 284 284 285 285 285 287 288 288 288 290 291 292 292 293 294 294 293 294 293 293 293 293 292 292 294 297 297 297 298 299 300 301 300 301 302 302 301 302 300 300
285 283 278 275 274 276 283 279 282 284 286 287 286 286 287 287 288 287 289 291 291 291 292 292 292 292 293 293 293 293 293 293 293 295 296 296 296 297 299 300 301 300 300 300 301 301 303 302 302
283 281 284 279 277 275 277 281 282 283 284 285 284 286 286 287 287 288 290 290 290 291 291 292 292 293 293 294 294 293 292 292 293 294 295 295 296 299 299 300 301 300 300 300 300 301 302 303 303
284 287 279 278 274 273 274 275 278 280 282 284 284 284 286 287 288 288 289 290 291 292 292 291 292 292 293 293 293 294 293 293 293 294 293 294 296 297 298 299 300 300 300 300 299 300 302 302 303
281 280 280 279 277 274 271 275 281 283 284 283 284 285 286 287 288 289 289 291 292 292 292 294 294 293 294 294 294 293 294 293 293 292 293 294 295 295 297 299 300 300 300 299 299 299 300 301 302
282 279 280 276 274 273 271 274 284 283 285 285 285 286 286 288 289 290 291 292 292 292 293 294 294 293 294 295 294 295 295 294 292 292 293 293 293 294 296 299 299 300 300 300 299 298 300 299 300

GFSSGP_sfc_thetae_039.txt.gz
Theta_e
349 340 344 338 321 318 311 314 321 319 318 321 321 319 318 319 312 309 340 347 348 350 356 356 358 359 357 357 357 357 355 354 352 351 349 352 354 356 352 352 355 357 356 358 358 355 354 355 355
339 338 337 328 313 309 311 315 316 319 321 321 321 320 319 316 331 333 339 347 350 351 355 355 358 358 357 357 357 354 354 354 355 350 348 350 350 351 349 354 352 354 356 356 357 356 355 357 356
335 333 328 319 312 305 307 312 314 321 322 321 320 321 320 319 334 333 342 349 351 352 356 356 356 358 357 356 354 353 354 353 353 351 350 347 348 346 348 351 348 353 354 354 354 355 354 356 355
332 331 320 312 306 311 313 314 311 317 320 321 320 318 322 329 334 337 347 350 351 353 357 358 357 357 358 356 354 352 354 352 351 348 345 344 346 346 347 348 345 347 348 350 351 353 354 355 355
325 319 308 306 305 309 311 309 310 310 311 313 320 318 319 329 340 344 348 350 349 352 356 356 360 358 358 358 354 352 353 351 348 344 342 342 343 343 341 342 344 344 344 344 348 349 353 354 354
321 314 304 301 303 307 309 308 310 306 306 311 310 316 320 330 333 344 348 349 351 351 354 356 360 360 359 356 355 353 352 350 346 345 343 341 341 341 339 338 341 342 340 342 344 346 348 352 351
316 310 304 303 303 302 306 308 307 306 305 307 308 311 316 315 319 344 347 347 349 351 352 354 356 358 360 359 357 354 353 350 347 346 344 342 340 340 338 337 336 337 337 337 340 342 350 352 352
316 312 305 304 301 300 306 307 308 307 306 309 309 303 309 309 330 343 344 345 347 349 351 352 357 357 358 357 358 356 354 350 349 347 345 343 341 339 338 337 335 334 334 334 335 339 345 344 343
310 305 300 301 301 302 306 305 308 308 306 305 305 304 306 311 332 332 338 340 344 347 350 352 354 357 357 357 355 356 355 352 350 348 347 343 340 339 338 337 335 334 333 333 332 334 338 334 334
307 302 299 302 304 304 305 305 305 306 302 302 303 305 306 309 311 311 311 313 314 318 340 351 352 354 355 355 355 355 354 352 350 345 344 343 340 338 335 336 335 334 332 331 330 329 325 324 330
306 302 303 305 306 306 305 302 302 302 299 299 299 301 303 305 306 306 307 307 308 311 314 316 334 353 351 352 353 354 353 351 349 346 343 341 338 336 336 334 333 333 329 329 326 323 320 317 322
304 305 305 307 306 304 303 302 299 299 299 301 301 302 303 303 303 304 304 305 307 310 311 314 317 319 348 350 349 352 351 350 347 345 342 339 337 334 332 331 330 328 326 323 322 320 316 314 314
302 302 304 305 304 303 302 299 298 297 299 300 301 301 301 302 303 304 305 306 307 307 310 312 316 329 337 347 347 346 349 349 347 344 342 339 337 334 332 329 328 326 323 319 316 315 312 311 310
303 302 302 301 301 302 299 297 300 298 299 298 299 299 300 301 301 304 304 305 305 307 307 311 312 315 326 339 342 341 344 343 341 343 342 339 336 334 332 329 327 325 321 317 315 313 312 310 309
302 299 300 299 301 301 301 295 294 298 297 296 297 298 299 300 301 301 302 303 304 306 308 308 310 312 314 316 324 337 338 339 338 338 341 340 338 335 329 326 326 324 321 315 313 311 310 309 307
297 297 295 297 301 301 301 292 294 297 296 295 296 297 298 299 299 300 302 303 303 305 306 308 309 309 310 313 315 316 317 323 325 330 331 331 331 332 331 330 326 325 321 316 311 311 309 309 307
294 292 292 294 298 299 298 292 293 296 295 294 295 296 297 298 299 300 301 301 302 303 305 306 308 307 308 309 311 312 314 314 316 316 317 321 326 328 326 328 330 326 322 318 313 310 309 309 308
290 291 292 292 296 296 292 290 292 294 294 293 294 295 296 297 298 300 301 301 301 302 303 305 307 306 308 309 309 310 310 311 313 314 314 315 316 317 322 325 324 324 321 318 314 311 308 309 309
294 292 292 294 297 293 290 290 292 293 293 293 294 294 295 296 298 300 301 301 301 301 302 303 305 306 306 307 306 307 306 308 310 311 312 313 313 313 315 316 318 319 318 319 317 312 309 308 306
295 293 292 294 296 294 289 289 291 293 293 294 294 294 295 296 297 299 299 301 300 300 300 302 303 305 305 306 306 307 306 308 308 310 310 312 311 312 311 313 314 315 315 315 314 312 310 308 306
293 292 291 292 294 291 289 288 289 292 293 294 295 295 296 296 297 298 299 300 301 301 300 300 302 303 304 304 305 305 306 306 306 307 308 309 310 310 311 311 312 312 312 312 313 312 311 310 307
291 295 295 293 292 289 291 285 287 288 289 290 292 291 292 293 296 298 299 299 300 301 301 301 301 301 303 303 303 302 301 300 303 304 306 307 310 309 309 310 311 312 311 311 311 311 310 307 308
294 294 293 293 291 289 288 287 290 287 285 288 290 291 292 293 293 294 295 298 300 300 300 300 300 301 302 302 302 301 300 301 302 303 304 307 309 309 308 308 309 310 310 310 310 310 309 309 307
294 291 290 290 288 284 286 288 289 284 286 288 291 291 292 293 294 295 296 296 299 300 300 301 300 301 302 302 302 301 300 300 300 301 302 304 306 306 305 307 307 308 310 309 309 310 310 307 308
292 286 284 283 283 284 288 286 291 289 288 290 290 291 293 293 294 294 295 295 298 299 300 300 301 300 301 301 301 301 301 301 300 300 301 302 303 303 303 305 305 306 309 309 309 309 308 309 308
289 287 284 280 280 281 284 284 289 289 290 291 292 292 292 292 293 294 295 295 297 298 299 300 300 299 300 300 300 300 301 301 301 301 301 301 302 302 304 304 305 305 307 309 308 308 308 308 308
288 285 289 282 281 280 283 285 288 287 287 288 290 290 291 292 293 294 294 296 297 298 298 298 298 298 299 299 299 299 300 300 300 300 301 301 302 301 303 304 304 304 305 308 308 307 307 308 308
289 289 283 283 279 277 280 280 284 284 286 287 288 290 291 292 292 294 295 296 297 297 298 298 298 297 298 299 299 299 299 299 299 300 299 300 301 301 302 302 302 303 304 306 307 307 307 307 307
286 285 283 284 282 280 277 282 286 287 288 288 289 290 291 291 292 293 295 296 296 297 297 297 297 297 298 298 299 299 299 299 299 298 299 300 300 300 300 301 301 301 303 304 305 305 305 305 306
286 284 285 283 279 278 278 280 288 288 288 289 289 290 291 291 292 294 295 295 295 296 296 296 296 296 297 298 298 298 299 299 298 298 299 299 298 299 299 300 300 300 302 302 302 303 304 305 304

GFSSGP_sfc_thetae_042.txt.gz
Theta_e
351 343 352 346 326 324 316 318 325 321 320 326 326 323 320 322 317 313 347 349 347 349 352 357 359 358 357 356 360 355 355 355 352 349 349 353 354 353 353 353 356 356 357 358 355 355 354 355 354
341 342 345 337 321 314 314 320 320 323 325 327 325 324 322 321 330 334 339 349 348 349 352 355 358 359 358 356 355 355 351 351 354 350 347 350 351 350 350 352 351 355 355 356 356 354 356 357 356
339 339 333 323 318 311 313 319 322 325 325 324 321 326 324 325 335 335 346 349 349 350 352 355 359 355 358 356 356 352 353 353 353 351 350 347 347 346 349 351 348 351 354 354 354 356 355 355 354
339 338 330 316 310 315 315 316 316 321 319 324 324 319 329 334 338 342 348 349 348 351 353 357 359 357 356 355 352 351 353 352 351 349 344 345 347 346 347 346 346 348 349 349 351 352 355 355 354
337 328 315 311 310 313 313 314 313 311 311 314 321 318 323 323 337 348 348 347 346 349 351 355 358 357 357 356 353 352 353 352 350 345 342 344 344 342 342 342 342 343 343 344 347 350 351 354 354
327 323 311 307 307 311 311 313 311 310 311 311 312 316 320 325 333 347 349 347 348 348 350 351 358 358 358 355 354 352 352 351 347 344 342 342 343 342 339 339 341 342 340 340 343 346 352 351 352
321 319 310 309 307 308 308 312 310 310 309 309 313 311 320 317 333 349 349 349 349 349 350 351 353 357 359 357 355 352 352 351 347 345 343 341 340 340 339 337 337 338 338 337 340 341 349 350 352
325 320 310 310 305 305 309 310 312 311 308 313 313 308 312 316 333 347 348 347 348 350 351 352 355 355 355 353 358 354 353 352 349 347 345 342 340 339 338 337 336 335 335 335 336 338 343 342 343
317 314 308 305 304 306 310 308 312 312 310 309 310 310 312 320 331 339 343 343 344 347 351 352 351 353 356 356 356 355 355 353 350 349 347 344 342 340 338 339 335 335 335 334 334 335 337 334 337
315 312 304 307 309 308 309 308 309 309 308 307 308 311 315 320 323 323 324 326 326 328 332 340 351 352 354 355 355 355 354 353 351 348 346 345 343 339 336 336 336 335 334 333 333 332 330 331 340
312 308 308 309 311 310 308 306 307 308 306 304 304 307 312 315 317 317 317 318 319 321 323 324 329 339 343 353 354 355 354 353 351 349 348 346 343 341 338 335 335 334 333 332 330 329 327 325 329
308 309 309 310 308 307 306 307 304 305 303 305 306 307 310 310 310 311 312 313 316 318 320 322 327 333 336 348 352 351 354 354 352 350 348 347 345 342 338 335 331 331 330 327 326 325 324 322 322
307 307 308 307 307 307 307 304 303 302 303 305 306 307 307 308 309 310 311 312 313 314 317 319 323 328 338 343 349 349 348 348 353 351 350 348 345 344 341 337 333 330 329 326 322 321 320 319 317
307 306 305 307 307 306 304 303 304 301 304 304 304 305 306 306 307 307 308 308 310 311 312 315 317 321 326 332 342 342 343 343 343 343 346 348 348 345 343 341 337 332 329 327 322 319 317 316 315
306 303 305 305 306 304 306 301 299 302 303 302 303 304 304 304 305 304 305 306 308 309 310 310 311 314 317 320 323 325 329 333 333 335 336 335 335 338 340 339 339 337 332 327 323 319 317 316 315
303 303 300 303 305 304 305 299 300 302 302 301 301 302 302 302 303 304 305 306 307 308 308 309 309 309 310 312 314 317 318 320 322 323 325 328 331 332 333 334 335 338 332 328 324 320 317 316 315
302 298 298 299 303 303 303 300 301 301 301 300 301 301 301 301 302 304 305 305 306 308 308 308 309 309 309 310 311 311 312 313 314 316 317 318 320 321 325 331 333 333 332 332 326 323 319 316 316
296 297 298 298 301 302 300 298 299 300 300 300 300 300 301 301 301 303 304 305 305 306 307 308 309 309 309 310 310 310 310 311 311 312 312 313 314 315 317 320 323 328 328 327 330 326 323 318 317
300 299 298 300 301 300 298 298 298 299 299 299 300 300 300 300 302 304 305 305 305 306 306 307 307 308 308 308 307 307 307 308 308 310 310 311 313 313 314 314 316 319 322 325 325 327 323 320 318
300 298 298 299 300 300 299 298 299 298 298 299 299 300 300 300 301 303 304 305 304 305 305 306 306 307 308 308 308 308 307 308 309 310 310 310 311 312 312 312 313 314 315 318 320 319 321 321 319
299 297 297 296 299 298 297 297 296 297 298 299 299 300 300 300 300 302 303 304 305 305 306 305 306 306 307 308 308 308 307 307 306 307 308 309 310 311 312 312 311 312 313 313 315 318 316 312 317
296 299 298 297 296 294 296 291 295 297 295 297 298 299 299 300 301 301 302 304 305 306 306 306 306 306 306 307 306 305 304 303 305 306 307 308 309 309 311 310 310 310 311 311 312 313 315 314 310
298 298 297 297 296 294 294 292 297 296 293 295 297 298 299 299 300 300 301 302 303 306 306 307 306 306 306 306 306 305 305 305 306 306 306 307 308 308 308 308 307 307 308 309 310 311 311 313 311
298 296 295 296 295 290 293 293 297 293 295 296 297 297 298 299 299 300 302 303 303 306 307 307 306 305 305 305 304 304 303 303 304 305 305 305 306 307 308 308 307 307 307 307 308 310 311 310 311
297 294 291 290 290 291 293 292 296 298 296 298 296 297 298 299 299 299 300 301 302 304 305 304 303 302 303 303 303 303 303 303 303 303 304 304 304 305 306 307 306 306 306 307 308 309 310 309 309
294 293 290 285 288 290 291 289 296 295 297 298 298 298 298 298 299 299 300 301 302 302 302 302 301 301 302 302 302 302 302 302 303 303 304 303 303 304 306 306 306 305 305 305 307 308 310 310 309
293 292 294 289 288 287 292 293 296 293 294 295 296 297 297 297 298 299 300 301 301 301 301 301 301 301 301 301 301 301 301 301 302 302 303 304 303 304 304 304 304 304 305 305 305 305 308 309 308
294 295 290 291 285 284 289 289 292 291 292 294 295 296 297 297 298 299 300 301 301 301 301 301 300 299 300 300 300 300 300 301 301 301 301 302 303 303 303 303 303 304 304 304 304 305 309 308 308
291 291 290 290 289 286 286 290 296 295 295 295 296 297 298 297 297 298 299 300 300 301 300 299 299 299 298 299 299 299 300 300 301 301 301 302 302 301 301 302 302 303 302 303 303 303 305 305 305
291 290 292 288 287 288 286 288 295 295 295 296 297 298 298 298 298 298 299 299 299 299 298 298 297 297 298 299 298 298 299 299 299 299 300 301 300 301 302 301 301 301 302 302 302 302 303 303 303

GFSSGP_sfc_thetae_045.txt.gz
Theta_e
352 346 349 348 330 327 315 316 322 319 319 324 325 322 321 323 317 315 346 345 345 345 352 356 358 356 356 358 358 355 356 353 351 350 351 352 353 352 355 354 355 356 357 357 355 355 356 354 357
341 344 347 338 322 311 313 320 319 322 323 324 323 324 324 323 330 335 339 345 345 345 350 355 358 359 356 358 356 354 348 351 352 347 349 349 350 349 352 350 355 356 355 356 356 356 357 356 357
340 341 334 323 317 311 313 320 320 323 323 321 321 324 327 327 335 336 343 344 345 345 348 357 359 359 358 356 354 349 349 352 353 347 349 345 346 346 350 350 351 351 352 353 353 355 355 355 355
337 340 331 317 313 316 316 317 318 321 319 321 322 321 327 331 339 341 344 344 344 345 348 357 358 358 353 351 350 349 353 352 351 349 344 345 346 345 348 346 347 346 349 348 350 352 354 355 354
337 329 316 313 312 313 316 317 315 313 314 314 318 319 319 329 343 344 344 343 342 345 348 351 355 354 353 352 351 350 351 351 349 345 342 343 344 341 344 344 343 344 344 345 347 350 351 353 353
328 325 311 308 309 311 313 315 313 312 312 312 312 317 317 328 343 346 345 344 344 345 346 351 356 355 355 353 352 350 351 351 348 344 342 342 342 341 339 340 343 343 342 341 343 346 353 351 351
324 320 311 309 308 309 309 313 311 310 311 310 314 312 319 319 336 348 346 346 346 346 346 347 351 357 359 357 355 352 352 352 348 345 344 342 341 341 339 337 337 338 339 339 340 342 348 350 352
325 321 312 311 307 306 310 311 312 311 309 315 315 310 314 318 333 347 346 345 346 347 348 346 346 349 355 355 359 355 353 353 350 348 347 344 342 341 340 339 337 335 336 336 336 340 342 343 344
321 316 311 307 307 308 311 309 313 314 312 312 313 313 317 324 332 341 342 343 343 344 347 347 345 346 351 353 355 357 355 355 352 350 349 346 343 342 341 342 338 335 336 335 335 335 338 336 340
317 314 308 310 311 310 310 310 310 310 310 310 311 315 320 324 326 327 328 329 329 329 331 333 336 341 349 350 352 352 353 353 352 349 348 347 342 342 337 338 337 337 336 335 335 334 334 335 336
315 311 311 311 312 311 309 308 310 310 307 307 307 310 315 318 320 320 321 322 323 324 326 327 330 335 338 349 354 358 354 356 352 350 348 346 344 342 340 337 337 337 336 333 334 332 329 325 327
311 311 311 311 309 309 308 310 306 309 307 308 309 311 312 313 313 314 314 316 317 319 320 322 326 330 339 340 352 352 350 351 352 351 349 347 346 344 342 338 336 333 331 329 327 325 326 325 323
309 309 309 309 310 310 310 307 306 304 307 309 309 310 310 311 311 312 313 313 314 313 315 317 320 324 330 337 344 346 344 345 345 345 346 345 348 346 344 343 339 336 332 329 326 323 321 321 319
310 308 307 309 309 309 307 306 307 305 307 307 308 308 308 308 308 309 309 310 310 311 311 312 312 315 320 322 326 329 334 340 340 339 339 339 338 341 342 344 344 341 337 332 328 323 320 319 318
308 305 306 307 308 306 309 304 304 306 307 306 306 306 306 306 307 306 307 308 309 310 310 309 310 311 311 312 315 317 319 322 324 326 329 330 335 335 335 336 338 340 340 337 331 326 322 319 318
305 305 301 306 307 307 306 300 305 306 306 305 305 305 305 304 305 306 307 307 309 310 309 310 310 311 311 311 312 312 313 313 314 315 318 319 321 322 325 333 334 336 336 336 333 328 323 321 319
304 298 302 302 306 306 305 302 306 306 305 304 305 305 304 304 304 306 306 307 307 309 309 310 310 310 310 311 311 311 311 312 312 312 313 312 314 315 316 319 323 331 334 331 330 332 328 322 321
299 300 301 300 304 304 304 303 305 304 304 304 304 304 304 304 304 305 305 307 307 308 308 309 309 309 310 310 310 310 310 310 311 310 311 311 311 313 314 315 316 318 321 328 329 326 327 328 322
302 300 300 303 304 301 301 302 303 303 303 303 303 303 303 304 305 306 306 307 307 306 307 308 307 308 308 308 307 307 307 308 309 310 310 310 311 311 312 313 313 315 315 316 320 324 324 321 327
302 301 301 303 303 301 302 302 305 304 302 303 303 303 303 303 304 305 305 306 306 307 307 307 307 307 307 308 308 307 307 307 309 311 310 310 309 309 309 310 312 312 313 314 315 317 318 319 320
302 300 300 299 302 304 301 300 302 304 303 303 304 304 304 303 303 304 305 306 307 307 307 307 307 307 307 308 308 307 308 308 308 309 309 310 309 309 309 309 310 310 312 312 314 315 316 315 320
298 302 300 299 299 295 300 292 301 301 299 300 301 302 303 303 304 304 304 305 306 307 308 307 307 307 307 307 306 305 305 304 306 307 309 308 308 308 308 308 309 309 309 309 310 310 312 314 312
300 301 300 300 298 297 298 293 300 301 297 299 300 302 303 303 303 303 303 304 305 306 307 307 307 307 306 306 306 306 304 305 306 306 306 307 308 309 309 308 308 309 308 308 308 308 308 310 309
302 300 300 299 297 291 297 295 298 298 299 301 302 302 302 302 302 303 304 304 305 306 307 308 306 305 305 305 304 305 305 303 303 304 304 305 307 308 307 308 308 309 309 308 308 309 309 308 309
300 298 292 292 291 292 297 294 297 302 300 302 302 301 301 302 302 302 303 303 304 305 305 305 304 303 304 303 303 303 305 304 302 302 303 303 305 306 307 307 307 307 309 309 309 307 308 308 308
298 297 292 287 289 292 295 291 297 299 301 301 303 302 301 301 302 302 303 303 303 304 304 304 303 302 303 302 302 302 303 303 303 303 302 303 304 305 307 306 306 306 306 307 307 306 307 308 308
296 293 297 292 294 290 294 297 298 297 297 299 299 300 300 301 302 302 303 303 303 304 303 303 302 302 301 301 301 300 301 301 302 302 303 303 304 304 304 305 305 305 305 305 306 305 305 305 306
296 298 292 293 287 287 292 294 294 295 295 297 298 299 300 301 301 301 302 302 303 303 303 303 302 300 300 300 300 300 300 301 302 302 302 303 303 304 304 305 304 304 304 304 304 304 305 304 304
294 293 293 293 292 288 287 292 298 297 298 298 298 300 300 301 301 301 301 302 303 302 302 301 300 299 298 299 300 299 300 300 300 300 301 301 302 303 303 303 302 302 303 303 303 303 303 303 303
294 294 294 290 290 292 290 290 300 298 298 298 299 300 301 302 302 301 301 302 301 301 301 299 298 298 299 299 299 299 299 299 298 298 299 299 299 301 301 301 302 302 302 302 302 302 302 302 302

GFSSGP_sfc_thetae_048.txt.gz
Theta_e
349 343 350 350 330 319 312 315 319 316 316 320 323 323 320 319 316 313 342 339 343 346 352 356 361 359 356 358 357 354 356 353 351 349 351 350 353 352 354 356 357 356 358 357 357 358 357 357 357
342 340 348 340 314 308 310 318 317 318 322 321 320 326 324 322 332 334 334 341 341 347 348 353 360 360 359 359 359 355 354 355 354 351 351 347 349 349 353 352 355 355 355 356 356 357 357 357 357
342 339 336 329 313 309 310 316 319 318 318 318 318 325 322 323 333 332 337 340 340 342 352 354 360 358 359 358 356 354 351 354 354 352 349 345 347 348 351 350 350 351 351 353 354 355 356 355 356
336 341 335 317 310 313 312 313 315 316 314 315 321 316 322 333 336 335 339 340 339 343 353 358 359 357 357 356 353 351 351 352 352 349 344 345 347 344 348 348 347 346 348 348 350 352 353 355 355
337 332 317 312 310 311 314 315 314 311 313 310 315 314 317 331 342 340 338 339 339 345 349 353 358 356 354 353 352 350 348 352 350 345 343 343 343 343 343 344 345 345 344 345 346 349 354 351 352
329 326 312 307 308 309 310 312 311 309 309 309 310 313 313 326 341 341 341 338 340 339 348 349 358 358 357 355 352 352 351 352 349 344 342 341 342 341 340 338 340 342 343 342 342 346 350 352 351
328 321 313 309 308 308 309 311 307 309 307 307 310 311 312 316 329 344 338 340 340 341 341 347 349 355 361 359 357 355 352 353 349 345 344 342 341 341 340 338 336 336 337 337 338 341 346 349 351
327 322 316 310 307 307 312 312 312 308 306 313 313 305 307 316 326 342 339 339 340 341 340 340 350 352 351 353 359 358 355 353 351 349 348 346 344 343 342 340 338 335 335 336 335 338 341 342 345
333 316 308 309 310 308 313 309 311 313 309 309 311 311 316 322 328 334 335 334 333 331 330 329 330 336 346 349 354 355 356 356 356 353 352 349 340 339 340 342 342 337 335 336 336 335 338 339 340
319 315 310 312 311 310 311 310 309 310 308 307 308 313 317 321 321 321 321 321 321 321 322 323 325 329 332 348 350 349 352 348 348 348 346 344 341 337 337 340 340 338 336 337 337 336 335 336 331
318 311 312 313 313 311 311 308 311 309 305 305 305 308 312 314 314 314 315 316 315 316 317 319 321 326 334 337 350 349 348 347 348 348 346 345 346 339 333 333 332 331 336 330 332 330 326 321 322
311 312 314 316 313 311 310 310 306 306 305 308 308 308 309 308 308 308 308 310 310 311 312 314 317 322 329 339 343 343 343 344 344 343 343 341 341 341 342 340 332 330 328 328 323 323 323 321 318
312 310 310 311 312 310 311 308 305 303 306 307 309 309 306 306 305 306 307 308 306 305 306 306 308 312 316 320 327 334 339 340 341 340 340 339 337 338 339 339 340 339 328 324 321 319 316 315 315
312 310 308 309 308 309 306 306 306 305 307 306 307 305 304 304 304 303 304 304 303 303 303 305 305 305 306 307 311 314 314 322 332 332 332 336 335 334 335 335 336 337 337 336 329 321 317 313 312
309 304 305 307 307 307 309 303 302 305 306 304 304 302 303 303 303 301 302 302 302 302 304 304 305 306 304 305 307 308 308 310 310 311 313 313 318 321 327 330 332 335 335 334 334 331 324 316 314
303 302 298 305 307 307 305 297 305 304 304 303 303 300 301 301 302 300 302 302 303 302 303 305 308 305 304 304 305 305 306 306 306 307 308 308 308 309 309 311 321 330 330 330 331 331 328 323 314
302 295 298 302 307 306 302 300 304 304 303 302 300 300 300 299 300 300 301 300 301 302 302 303 304 303 304 304 304 304 305 305 304 304 305 305 308 308 307 308 308 311 323 325 325 326 326 326 324
296 297 299 298 302 303 301 299 303 303 302 301 301 300 299 299 300 301 301 300 301 301 302 302 303 302 303 303 303 303 303 303 304 304 304 305 305 305 305 307 307 307 308 311 321 320 322 324 324
300 298 297 300 304 302 300 300 302 302 301 300 300 299 299 299 301 302 301 299 298 301 301 301 301 301 301 301 300 300 300 301 302 303 304 304 305 305 303 304 306 306 306 306 308 310 315 315 318
301 298 298 303 303 300 299 298 303 302 300 301 301 299 299 299 299 300 301 300 301 301 301 301 301 301 301 301 301 300 299 301 302 304 304 305 304 304 304 301 303 304 304 304 304 305 307 310 314
300 298 298 297 302 302 299 297 300 303 302 301 301 301 300 299 298 299 299 300 302 301 301 302 301 301 302 302 301 301 301 301 300 301 302 303 304 304 303 302 302 301 302 302 303 303 303 303 309
297 302 301 299 297 291 299 287 295 299 297 298 299 299 299 299 299 299 298 297 301 300 302 302 301 301 303 301 300 298 297 296 298 299 300 301 302 302 303 302 302 301 302 300 300 302 300 301 301
299 303 300 300 295 293 293 289 293 298 295 296 297 298 299 299 299 299 299 298 297 300 300 302 302 302 301 300 299 298 297 298 298 298 298 299 300 301 302 302 302 300 300 301 300 299 299 299 298
303 299 299 298 294 286 292 291 292 294 296 297 298 298 299 299 299 298 298 298 299 301 302 302 301 300 300 300 299 297 296 296 296 296 297 298 298 299 301 302 301 300 300 301 301 300 299 299 299
300 295 288 286 286 287 295 292 291 296 297 297 298 298 299 298 297 297 297 298 298 299 301 302 300 299 299 298 297 296 296 296 295 295 296 295 297 297 298 299 299 300 300 301 302 301 299 298 298
298 294 287 282 283 286 294 287 292 297 298 297 299 299 298 297 297 297 298 298 298 299 300 300 299 298 298 297 296 296 295 295 295 295 297 297 297 298 298 299 299 299 300 300 300 300 299 299 299
295 290 295 288 289 285 289 292 294 294 294 294 295 296 296 297 297 297 298 298 298 299 299 298 297 297 297 296 294 294 294 295 295 296 297 298 298 300 300 299 299 300 300 300 299 299 298 299 299
294 296 288 288 282 280 287 288 288 290 291 293 293 293 296 297 297 297 297 298 298 298 298 298 297 296 295 294 294 295 294 295 296 296 296 296 297 297 297 297 298 299 299 299 298 298 298 298 299
291 289 290 289 287 281 280 285 291 293 294 293 294 295 296 297 297 297 297 297 298 298 297 296 295 294 293 294 294 294 294 295 296 296 296 296 296 296 296 296 297 297 297 298 298 298 298 297 298
293 292 291 285 285 287 284 285 294 294 294 295 294 296 296 297 298 298 297 297 297 296 296 295 294 293 293 293 294 294 295 295 295 295 296 296 296 296 296 296 295 295 296 296 296 297 298 297 297

GFSSGP_sfc_thetae_051.txt.gz
Theta_e
350 340 340 341 316 311 305 311 311 311 312 321 325 321 319 319 317 309 334 345 348 351 355 356 362 358 358 357 355 354 354 352 350 350 348 349 351 353 355 356 356 357 357 357 358 356 357 357 358
346 339 341 333 313 306 307 311 308 310 312 325 325 325 322 321 331 330 330 342 349 351 353 354 359 358 360 356 354 351 353 355 351 351 347 345 348 351 351 353 354 354 355 356 356 356 356 356 356
343 338 329 317 312 307 302 309 309 311 309 314 317 319 319 321 329 329 333 339 346 347 351 355 361 358 359 358 354 353 351 353 353 351 344 345 346 348 349 350 349 350 351 352 354 355 356 355 355
327 331 326 310 303 309 304 303 310 309 308 315 317 314 321 326 331 332 336 341 348 348 352 359 360 359 359 357 353 352 351 352 350 347 343 343 344 343 348 348 347 346 347 348 349 351 353 354 353
327 322 308 302 303 305 306 307 307 303 304 310 313 311 313 322 336 336 335 343 347 348 352 353 359 357 356 355 353 351 352 352 349 344 342 342 342 341 340 342 343 343 344 344 345 348 353 351 352
318 317 305 298 299 303 301 303 305 303 303 305 306 307 309 317 324 337 336 338 346 345 349 353 359 360 359 356 354 353 352 353 349 345 342 341 341 341 339 337 337 338 340 340 339 345 348 352 351
317 310 304 300 300 300 303 305 301 302 302 303 306 304 307 313 319 327 337 337 338 344 344 348 352 356 361 359 358 356 351 353 349 345 344 343 341 341 340 337 335 335 335 335 335 340 345 348 351
315 311 305 300 301 300 305 307 307 304 302 308 309 302 302 313 320 328 337 334 328 326 325 344 348 351 352 350 356 357 354 353 351 349 348 348 346 344 343 341 339 336 335 335 334 336 341 341 345
316 306 299 300 303 302 306 305 307 308 305 306 308 308 312 317 321 323 323 321 321 322 320 319 323 339 348 350 352 354 355 355 355 352 353 351 342 338 340 341 343 342 337 335 335 335 336 340 340
308 301 303 307 306 304 307 306 306 304 303 302 304 309 313 313 314 314 314 313 313 312 314 315 319 336 338 350 346 345 348 346 345 345 344 344 343 339 341 342 346 342 339 338 338 337 336 335 330
309 302 307 310 310 307 307 305 308 304 300 301 302 304 308 308 308 308 308 308 307 307 307 310 316 324 342 343 342 342 342 342 343 342 341 343 343 343 338 332 333 330 337 329 332 331 329 323 321
303 307 310 311 310 308 306 306 302 302 301 305 304 304 305 303 304 305 304 304 304 303 302 304 307 313 317 333 337 336 336 336 336 339 337 336 335 337 336 337 339 331 328 327 325 324 325 322 319
304 305 307 307 308 306 307 304 301 300 303 305 306 305 302 302 301 302 303 302 300 300 300 301 302 301 304 309 310 311 328 330 329 330 332 331 331 330 332 332 336 337 338 332 327 320 317 314 315
306 306 305 306 305 306 304 302 303 301 303 303 304 301 300 301 301 299 300 299 298 299 300 301 303 301 302 302 304 304 304 306 309 317 320 315 319 320 323 326 330 334 336 334 334 331 326 318 311
304 299 301 302 303 303 304 299 299 302 303 301 300 298 299 300 299 298 299 298 298 299 301 302 303 303 301 301 302 302 303 304 303 304 304 304 306 307 306 309 314 321 328 330 330 330 331 328 323
298 296 292 299 303 304 301 292 301 301 300 299 298 296 298 298 298 297 299 300 298 299 300 301 304 302 301 300 301 301 302 301 301 302 302 303 305 304 303 304 305 307 317 324 322 322 323 324 326
294 288 291 297 303 302 298 294 299 300 300 298 295 295 296 296 295 296 298 298 299 299 299 300 299 300 301 300 301 301 301 300 300 300 301 302 304 304 302 302 303 304 305 309 319 320 318 318 320
290 290 292 294 300 300 297 295 298 299 299 298 295 295 296 295 296 298 299 298 299 298 298 298 299 299 299 299 299 299 299 300 299 299 300 302 302 302 301 301 301 302 303 303 304 312 315 315 317
295 292 291 294 301 298 295 296 298 299 297 296 296 294 295 296 297 298 299 298 298 297 297 297 299 297 298 297 296 296 296 297 299 300 302 302 302 302 301 300 300 300 300 301 302 303 305 309 312
297 293 293 297 301 297 295 296 298 299 298 299 297 295 295 295 295 296 298 298 299 299 298 297 298 298 298 298 297 297 296 297 298 300 300 302 301 301 302 300 299 299 299 300 300 300 300 304 309
296 293 293 293 298 298 295 293 295 297 297 299 299 298 296 295 295 295 295 297 297 298 297 298 299 299 298 298 298 297 296 296 296 297 298 300 300 301 300 299 299 298 298 298 298 299 298 297 300
292 299 299 297 292 286 294 283 290 293 293 296 296 295 296 295 295 295 295 295 296 297 298 298 299 299 301 298 296 294 293 293 295 295 297 297 299 299 299 299 299 298 298 297 298 300 298 297 296
296 300 297 296 290 287 288 285 287 293 291 293 294 295 296 296 297 297 297 297 297 297 298 299 299 300 298 297 296 295 294 294 295 295 295 295 296 297 298 299 298 298 297 297 297 297 296 296 295
300 296 294 293 289 282 287 287 286 290 293 293 293 295 297 296 296 297 296 297 297 298 299 299 298 298 298 297 296 294 292 292 293 293 292 293 294 296 297 298 297 297 297 297 298 298 297 296 296
296 289 282 282 282 282 290 287 288 292 293 295 295 294 296 296 295 295 295 295 296 297 298 299 298 297 297 295 295 294 293 291 291 291 292 292 293 293 294 295 296 297 298 298 297 297 297 297 295
293 290 283 279 280 282 290 284 287 291 293 294 296 295 295 295 294 294 295 295 296 297 297 297 297 295 296 295 294 292 291 292 292 292 292 292 293 294 295 295 296 296 297 297 297 297 297 296 297
290 285 289 284 282 279 283 286 290 291 291 292 292 293 293 293 294 295 296 296 296 296 296 296 295 295 294 293 291 291 291 292 292 292 292 293 293 296 297 295 295 296 296 296 297 298 297 296 296
290 292 285 284 278 276 281 282 285 287 288 290 291 291 293 294 295 295 296 296 295 295 295 295 294 293 292 291 291 292 291 292 292 292 292 292 293 295 295 295 295 294 295 295 294 295 296 296 297
287 285 286 285 283 278 276 281 288 288 289 289 288 291 294 295 295 295 295 294 295 295 294 294 293 291 291 291 291 291 291 292 292 292 292 293 294 293 294 295 295 294 294 294 294 293 294 295 296
289 287 286 281 280 281 278 281 289 290 291 292 291 293 293 295 295 295 294 294 293 293 293 292 291 290 290 291 291 291 291 291 291 291 293 293 293 294 294 294 294 294 294 294 293 293 293 293 294

GFSSGP_sfc_thetae_054.txt.gz
Theta_e
349 341 335 340 313 308 302 306 308 307 314 320 324 320 315 318 312 304 335 345 348 351 354 358 360 357 358 356 355 353 353 351 350 346 345 349 353 353 354 356 356 356 356 357 356 357 356 357 357
345 339 339 326 308 300 302 308 305 313 321 324 323 322 319 319 328 328 334 346 350 352 353 354 358 357 358 355 351 351 354 350 351 347 343 346 349 351 351 352 352 352 354 355 356 356 355 354 355
337 338 326 314 308 303 299 304 305 308 318 316 315 318 319 320 328 328 333 346 350 350 351 353 359 360 359 354 351 350 353 353 351 345 343 345 344 349 349 349 348 349 350 352 353 354 355 354 354
325 330 319 306 301 304 302 300 307 306 310 313 317 313 322 322 328 330 341 345 345 347 349 357 359 359 359 355 352 351 352 352 348 344 343 343 341 346 347 346 346 344 346 347 349 352 352 354 353
325 319 305 300 302 302 299 303 303 302 306 310 312 311 314 320 321 334 345 346 345 346 350 354 357 357 356 354 353 351 352 352 348 344 342 342 342 339 340 340 341 341 342 343 344 347 352 351 352
317 313 301 296 299 301 298 302 303 301 302 303 308 307 309 315 320 323 346 345 346 345 350 349 358 358 357 354 353 350 348 352 349 345 342 341 341 340 337 336 336 336 337 337 337 343 346 352 351
315 307 302 297 297 299 302 302 301 301 300 302 305 303 307 315 319 322 338 338 330 336 345 349 354 354 357 354 355 353 352 352 349 346 345 343 341 340 340 337 335 335 335 334 334 340 344 347 349
314 310 301 298 299 298 303 305 305 302 300 306 307 302 304 312 319 325 324 320 318 318 328 329 347 350 349 348 353 354 352 352 350 348 348 347 346 345 343 343 340 339 337 336 335 335 341 342 344
315 300 297 299 300 300 305 303 306 306 304 305 307 307 311 315 318 317 315 314 314 316 317 321 328 335 346 348 351 350 353 353 352 349 349 347 344 340 340 342 344 343 341 338 337 336 336 341 342
308 300 300 305 304 301 306 304 304 303 301 301 303 307 309 310 311 311 309 307 307 305 314 316 335 343 341 345 342 342 344 342 342 342 340 340 340 341 341 341 344 345 343 340 339 339 338 335 329
307 302 305 308 306 307 305 304 307 302 299 300 302 304 306 305 306 306 305 303 301 300 303 309 316 334 335 336 337 337 334 337 338 336 336 336 337 338 338 337 336 331 334 331 329 327 329 327 323
303 307 308 309 308 306 303 305 301 302 301 304 303 304 303 302 302 303 301 300 299 299 299 301 303 309 314 317 323 329 329 328 329 333 329 326 329 330 332 333 335 337 333 328 325 320 321 322 322
303 304 307 306 306 305 305 302 300 299 302 303 304 303 300 300 300 299 299 298 298 298 299 300 300 299 301 303 302 302 307 310 317 317 312 315 316 316 323 324 329 331 335 334 333 331 328 322 315
305 305 304 305 304 304 302 300 301 300 302 302 301 299 298 299 299 297 297 297 297 297 299 300 301 299 300 299 300 300 301 301 302 303 303 305 305 304 306 307 310 314 320 331 330 329 329 328 324
304 299 300 301 302 302 303 298 298 300 301 300 298 296 297 297 298 297 297 297 297 297 299 300 301 300 299 299 300 299 301 301 300 300 301 301 302 301 302 303 304 304 308 318 322 321 324 324 326
297 296 291 297 301 302 300 293 298 300 299 298 297 295 297 296 297 296 298 298 297 298 298 299 304 301 299 299 299 299 299 299 299 299 299 301 302 301 300 300 300 302 303 308 311 316 317 316 316
293 287 290 294 302 301 297 293 299 299 299 297 294 294 295 294 293 295 297 297 298 297 297 297 298 299 299 298 299 298 298 298 298 298 298 299 302 302 299 299 299 300 301 301 304 310 312 313 313
288 288 291 291 298 299 295 294 297 298 297 297 294 293 294 294 295 296 297 297 297 296 296 296 297 298 297 297 297 297 297 298 298 297 298 300 300 301 298 298 298 299 299 299 300 300 304 309 310
294 291 291 293 300 297 295 295 296 298 296 295 293 293 293 294 296 296 297 297 296 295 295 296 297 296 297 296 295 294 295 295 296 298 299 299 300 300 298 298 298 298 297 297 298 299 300 302 305
295 292 291 296 300 296 295 295 297 297 297 298 296 294 294 293 293 294 296 296 297 296 295 295 297 297 296 296 295 295 294 295 296 298 298 299 299 299 299 297 297 297 296 297 296 296 297 299 303
295 292 291 292 296 295 293 292 293 296 296 297 296 296 295 294 294 293 294 295 296 296 295 296 297 297 297 296 296 295 295 295 295 295 296 297 298 298 297 296 296 295 295 295 295 296 295 296 296
290 298 297 296 291 286 292 282 289 291 292 294 295 294 294 293 294 295 294 294 294 296 296 297 297 298 299 296 295 293 292 292 293 293 295 295 296 296 297 297 296 295 295 294 294 298 295 294 294
294 299 295 294 288 286 286 284 287 290 289 292 294 294 294 293 294 294 294 295 295 295 296 297 298 299 298 296 294 294 292 292 293 293 292 292 294 295 296 296 295 295 295 294 294 294 294 294 293
299 294 292 290 287 281 285 285 284 288 291 291 292 294 295 294 294 295 295 295 295 295 296 297 298 298 297 296 295 293 291 290 290 290 290 292 292 293 294 295 294 294 294 294 295 295 294 295 294
294 287 280 280 281 281 287 284 285 290 290 292 294 294 294 294 294 294 293 293 294 296 297 298 297 296 296 295 293 292 291 289 289 290 290 290 291 292 293 293 293 293 294 294 294 294 293 293 294
291 288 282 279 279 282 286 283 287 290 292 291 294 294 294 294 293 293 293 293 294 296 296 296 296 295 294 293 292 290 290 290 290 291 291 291 291 292 293 294 294 294 295 295 294 294 294 294 295
289 285 288 283 280 278 281 286 290 289 290 291 291 292 293 294 293 293 293 294 294 295 295 295 295 293 293 291 290 289 290 290 290 291 291 291 292 294 295 294 293 293 293 293 293 294 293 293 293
288 291 284 282 276 276 280 280 283 286 286 288 289 289 291 293 292 293 293 294 294 293 294 293 293 291 290 290 289 291 290 290 291 290 290 291 291 292 292 293 293 293 294 294 293 293 293 292 293
286 284 284 284 281 277 275 279 286 286 288 288 288 291 292 292 292 292 292 293 293 293 292 291 290 289 289 290 290 289 290 290 290 290 291 291 291 291 292 293 293 293 293 293 292 293 293 292 292
288 285 284 280 279 278 276 280 288 286 290 291 290 291 291 292 294 294 293 292 291 291 291 289 288 288 289 290 289 289 289 290 289 289 289 290 291 292 292 292 292 292 293 293 292 292 293 292 292

GFSSGP_sfc_thetae_057.txt.gz
Theta_e
351 341 337 333 310 306 301 303 307 308 314 320 322 316 315 317 310 302 334 346 348 350 353 357 358 358 358 356 353 353 350 349 345 343 347 351 350 352 355 355 355 354 356 357 357 356 356 356 356
346 338 336 321 305 298 300 305 308 313 320 321 319 320 318 317 326 331 334 346 350 351 353 355 357 359 357 354 351 352 350 351 348 341 344 346 350 349 349 352 349 350 353 355 356 355 354 354 354
333 336 321 313 306 300 297 303 306 316 315 315 314 318 319 320 327 333 334 346 350 349 352 351 357 358 357 352 350 351 352 351 347 342 343 342 347 347 347 347 347 348 349 351 352 354 354 354 354
323 325 312 305 300 301 300 299 310 304 310 315 316 316 320 320 322 327 344 348 346 346 347 352 358 356 354 352 350 350 351 348 345 342 342 341 341 345 345 344 345 343 345 347 348 352 352 353 353
324 314 302 299 299 298 298 302 302 303 306 306 312 314 317 317 323 338 344 346 344 344 348 353 356 355 354 353 352 350 351 350 345 342 341 341 340 338 339 339 339 339 341 342 343 346 351 351 352
317 310 299 296 297 299 297 301 301 300 300 302 311 310 312 313 317 329 344 343 346 346 350 350 355 357 355 353 352 348 349 350 347 344 341 340 341 339 337 335 335 335 336 336 336 342 346 350 352
312 306 299 296 296 298 299 301 298 299 298 301 305 303 308 315 319 338 336 321 332 346 346 347 350 351 354 352 351 349 351 350 347 346 344 343 342 340 340 338 336 335 335 334 334 339 343 347 348
313 307 297 296 297 296 302 304 304 301 299 305 306 301 310 310 319 319 316 314 315 319 321 330 347 348 347 346 353 351 350 351 351 351 349 348 346 346 345 343 341 341 340 338 336 335 339 343 344
313 300 296 298 298 299 303 301 305 305 303 305 305 306 309 314 315 312 308 308 315 324 325 337 337 343 346 346 347 348 350 350 348 345 346 344 341 340 340 342 345 344 345 342 340 338 337 338 342
306 299 299 303 303 300 304 302 303 302 301 302 304 306 308 311 310 307 305 303 305 307 319 331 334 335 337 338 337 337 339 337 334 334 333 336 335 336 338 340 344 344 344 344 342 341 341 338 327
306 303 304 306 305 306 304 302 305 301 298 301 303 304 304 305 304 303 300 298 297 300 306 312 322 328 331 331 331 330 330 331 330 326 326 328 328 328 329 331 334 336 338 329 329 325 323 324 324
302 305 306 308 308 304 302 303 301 301 300 303 305 304 302 302 301 299 298 298 298 298 299 301 304 304 303 305 309 313 319 318 312 309 313 315 314 317 321 322 322 321 330 332 331 329 328 321 318
302 304 306 305 305 304 304 301 299 299 301 301 303 302 300 299 298 297 297 297 297 298 298 298 299 298 299 300 300 300 301 303 304 303 304 305 304 304 308 308 312 313 315 325 328 328 329 327 326
304 303 302 304 303 303 301 299 300 299 301 300 300 298 297 298 297 295 295 296 296 296 297 298 299 297 298 298 298 298 299 299 299 299 300 302 301 299 301 301 302 303 305 311 317 318 320 323 325
303 299 299 300 301 300 301 296 297 299 300 298 297 295 296 296 297 295 296 296 296 296 297 298 299 298 298 297 298 298 299 299 298 298 298 299 300 298 299 299 299 299 301 305 306 309 313 314 316
296 294 290 296 300 300 298 291 297 299 298 297 295 293 294 295 296 295 296 297 296 296 297 299 303 299 297 297 297 297 297 297 297 297 297 299 300 299 298 298 297 299 300 302 301 303 307 307 310
292 287 289 293 300 299 296 293 297 298 298 296 294 293 294 293 292 293 296 297 297 296 296 297 298 298 298 297 297 296 296 297 296 296 297 298 300 300 296 296 297 297 298 297 298 300 302 305 305
288 288 289 289 295 297 294 294 295 296 296 296 294 293 293 293 294 294 296 296 297 296 295 296 297 297 296 295 295 295 296 296 296 296 297 298 299 298 296 296 297 296 296 295 296 296 298 301 303
293 290 290 291 297 296 294 294 296 297 295 294 293 292 292 292 294 294 295 295 295 294 294 294 296 295 295 295 294 293 294 294 295 296 297 297 298 298 297 297 296 296 295 294 295 295 297 297 300
294 291 290 294 298 296 293 294 296 296 296 297 296 293 293 292 293 293 294 294 294 294 294 294 295 295 295 295 294 294 293 294 294 296 296 297 297 297 297 295 295 294 294 294 294 293 293 295 298
293 291 290 291 295 294 293 291 292 295 295 297 296 296 295 293 293 292 292 294 294 293 294 295 295 296 296 296 295 294 293 293 294 294 294 296 295 295 295 294 294 293 293 293 292 293 292 292 293
289 296 296 295 290 286 292 283 289 290 292 293 293 292 293 292 293 293 293 293 293 294 294 295 296 296 297 295 294 292 292 291 292 292 293 293 294 294 295 295 294 293 293 292 292 296 293 291 291
293 298 294 293 288 286 286 283 286 290 290 291 291 292 293 293 294 293 293 294 294 294 294 295 296 297 297 295 294 293 291 291 291 291 291 291 292 293 294 294 293 293 292 292 292 292 292 291 291
298 293 290 289 286 280 284 283 285 287 289 291 291 293 294 293 293 293 294 292 294 294 295 295 296 297 296 295 293 292 290 290 289 289 289 290 291 292 293 294 293 292 292 292 293 292 291 291 291
293 286 281 279 280 279 286 283 285 288 289 290 292 294 294 293 292 293 293 292 293 293 294 296 296 295 295 293 292 291 289 288 288 289 289 289 290 290 291 292 292 292 292 293 293 292 291 291 290
289 286 281 278 279 282 285 282 286 288 290 290 292 293 293 293 292 292 293 292 292 294 295 295 295 294 293 291 290 289 289 289 289 289 290 289 289 290 292 292 292 292 292 292 292 291 291 291 291
287 285 287 282 279 277 280 284 288 289 289 290 291 292 292 293 293 293 292 292 292 292 293 294 294 292 290 289 289 289 289 289 289 289 289 289 290 293 293 292 291 292 292 293 293 293 292 292 292
288 290 283 281 276 275 278 279 283 285 287 289 290 291 291 293 292 291 291 292 292 291 292 291 290 289 288 289 289 290 289 289 289 289 289 289 290 290 291 292 292 292 292 292 292 292 292 291 292
286 284 283 282 280 277 275 278 284 284 287 286 288 289 290 291 291 291 291 291 292 291 290 289 288 288 289 289 289 289 289 289 289 289 289 289 290 291 291 291 291 291 291 292 291 291 291 291 291
286 284 283 279 277 277 275 280 287 285 287 288 288 290 290 291 292 292 292 290 289 289 288 287 287 288 289 289 288 288 288 288 288 288 288 289 290 291 291 291 291 291 291 292 292 291 292 291 291

GFSSGP_sfc_thetae_060.txt.gz
Theta_e
352 341 336 326 308 305 299 302 305 309 313 319 320 316 315 316 308 300 332 342 346 348 353 354 356 358 356 354 352 350 349 345 342 344 348 351 349 351 354 353 354 355 356 356 357 356 355 356 356
348 338 332 317 303 296 299 303 306 312 319 318 318 319 317 316 325 330 331 345 348 349 352 354 356 357 356 352 351 350 350 349 342 341 343 348 348 348 349 350 349 349 351 354 355 355 354 354 354
332 335 318 311 303 298 297 302 308 316 314 313 315 318 318 318 327 331 335 345 348 348 352 353 355 355 354 351 351 351 351 349 342 342 341 342 346 346 346 347 346 347 349 350 352 354 354 353 353
324 320 309 303 298 300 299 303 313 307 309 314 317 316 317 319 320 327 341 345 345 346 348 353 356 356 353 351 349 351 350 346 342 342 342 339 342 344 343 342 342 342 343 347 347 350 353 352 352
322 310 301 298 296 297 297 302 303 304 306 306 313 313 315 315 327 334 343 345 342 343 346 351 358 354 353 351 350 350 350 348 344 341 341 341 339 337 337 337 338 337 339 339 340 345 350 352 353
315 307 298 294 295 298 297 300 300 300 300 303 313 313 311 313 322 339 342 342 345 344 348 350 355 356 352 351 351 348 350 349 346 344 341 340 340 339 338 336 335 336 336 336 336 338 344 349 350
310 303 298 296 295 296 299 300 297 298 298 300 308 308 307 316 321 330 318 324 344 346 346 345 349 350 353 353 350 349 350 350 349 348 346 344 343 341 341 341 339 338 339 339 338 336 339 344 347
311 303 295 294 295 295 300 302 302 299 298 305 306 308 308 312 315 314 316 321 323 325 326 339 344 346 345 346 353 352 352 351 350 349 350 349 346 347 346 346 344 344 344 343 341 339 338 338 341
310 299 295 298 297 298 301 301 304 304 303 304 304 305 309 313 310 312 317 316 321 331 333 337 340 342 339 343 345 344 343 340 337 337 341 335 336 337 338 345 346 347 347 346 344 342 342 341 338
305 299 299 303 302 299 302 301 302 301 301 302 302 305 309 308 305 311 316 312 311 313 323 328 331 332 331 335 334 334 331 327 324 325 326 325 325 325 329 332 337 341 340 339 339 338 335 330 327
305 302 303 305 304 304 303 301 303 300 297 302 303 304 305 302 300 302 301 305 304 304 307 309 317 322 325 325 323 319 313 311 308 309 312 313 316 317 318 317 317 318 331 331 331 329 327 322 321
302 304 305 306 306 304 301 303 300 299 299 302 305 303 302 299 298 299 299 302 301 300 301 302 304 303 302 305 307 308 307 304 302 303 305 304 304 304 306 307 309 308 311 318 322 325 327 327 325
301 303 304 304 304 302 303 300 299 299 299 302 302 302 300 298 296 295 296 297 297 298 298 298 298 297 298 299 298 299 299 299 300 299 301 301 300 299 301 301 302 302 303 308 311 314 317 319 321
302 302 301 303 302 302 300 298 299 298 299 299 300 298 298 297 295 294 295 296 295 296 296 297 298 296 297 297 297 297 297 297 297 296 297 300 298 297 298 298 298 298 300 302 302 304 309 311 311
302 298 297 299 300 299 300 294 296 298 299 297 296 295 296 296 295 295 296 295 295 295 296 297 297 297 296 296 297 297 298 297 296 296 296 298 298 297 296 296 296 296 298 300 299 299 303 303 306
296 294 291 295 299 299 297 291 295 298 297 295 295 293 294 295 295 294 296 296 295 295 296 298 302 297 296 295 295 296 296 296 295 295 296 298 300 297 296 295 295 296 297 298 297 298 300 300 301
292 289 289 292 299 298 295 291 295 297 297 295 293 292 293 292 293 292 295 295 295 295 296 297 296 297 297 295 295 295 296 295 294 294 295 296 299 298 295 295 295 295 295 294 296 296 297 298 298
289 288 289 289 294 296 293 293 294 295 295 295 294 292 292 292 293 294 295 295 295 295 295 295 295 295 295 294 294 294 294 294 294 294 295 296 297 297 295 295 294 294 294 294 293 293 295 296 297
291 290 289 291 295 294 292 293 295 295 294 294 293 292 292 292 293 294 295 295 294 294 293 294 295 294 294 294 293 293 293 293 294 295 295 296 296 296 295 294 294 294 293 292 292 292 293 293 296
293 290 289 293 297 295 293 293 296 295 294 296 295 294 293 292 292 292 293 293 293 294 293 293 294 294 294 294 293 293 292 292 293 295 294 296 295 295 296 293 293 293 292 292 291 291 291 292 294
292 289 289 290 294 293 292 290 292 293 294 295 295 294 294 293 292 291 291 292 292 292 293 293 294 294 295 295 294 293 292 292 292 293 293 294 294 294 294 293 292 292 291 291 290 290 290 290 291
288 295 295 293 290 285 291 282 288 290 292 292 293 292 293 293 292 292 292 292 292 292 293 293 294 294 295 294 293 292 291 291 291 291 292 292 292 292 293 293 292 291 291 290 291 294 291 289 289
292 296 293 292 287 285 285 283 286 290 290 291 292 292 292 293 293 292 292 294 292 292 293 293 294 294 296 293 293 292 291 290 290 290 289 290 291 292 293 292 292 291 291 291 291 290 290 290 289
296 291 289 288 286 280 283 282 284 286 289 289 290 293 293 293 292 292 292 292 292 293 293 294 294 295 295 294 293 291 290 289 288 288 288 289 290 291 292 292 291 291 291 291 291 291 290 290 289
291 287 281 279 280 279 285 283 285 288 289 288 289 290 293 293 292 292 292 292 292 293 293 295 295 294 293 292 291 289 288 287 287 288 288 288 289 289 290 291 291 291 291 291 291 290 289 289 289
287 286 280 277 278 280 284 281 286 288 289 289 291 291 292 292 292 291 292 291 291 291 292 294 294 293 291 289 288 288 288 288 289 289 289 288 288 289 290 291 291 291 291 292 291 291 291 291 290
287 284 286 281 278 277 280 282 287 288 289 289 290 292 292 293 292 291 290 291 291 291 292 293 293 290 288 288 288 288 288 288 288 288 288 288 289 291 292 291 291 292 292 291 291 291 291 291 291
287 289 282 280 276 274 277 278 281 284 286 288 287 287 289 290 290 290 291 291 291 290 290 289 289 288 288 288 288 289 288 288 288 288 288 288 289 289 290 290 290 290 291 291 290 290 291 290 290
285 283 282 281 279 277 275 278 283 283 286 285 286 288 289 289 290 290 290 289 289 289 288 287 287 288 288 288 288 288 287 288 288 287 288 288 289 289 289 290 290 290 290 290 290 290 290 290 290
285 283 283 279 276 276 274 279 286 284 285 287 286 288 288 289 290 290 289 288 288 287 286 286 287 287 288 288 287 287 287 288 286 286 287 288 288 290 289 289 289 290 290 290 290 290 292 291 291

GFSSGP_sfc_thetae_063.txt.gz
Theta_e
353 342 344 333 319 314 306 307 311 315 317 323 324 319 319 321 311 309 340 345 348 351 356 355 356 357 356 353 351 350 347 344 341 345 350 350 350 352 352 351 352 354 355 356 356 355 355 356 356
351 339 335 322 312 304 305 309 311 317 323 323 323 323 321 319 329 334 338 348 350 352 356 355 356 355 354 352 351 350 351 347 342 343 344 348 347 347 348 349 348 349 352 352 354 354 354 354 354
335 336 324 318 309 305 304 308 317 320 321 318 322 324 324 323 332 335 342 349 350 351 357 355 356 355 353 351 351 351 350 346 342 343 341 344 346 345 344 344 344 343 348 349 351 353 353 353 353
331 327 317 311 304 307 306 312 320 316 313 321 324 320 322 324 326 334 347 348 347 351 356 355 356 355 352 350 350 350 348 345 342 342 342 339 342 342 340 339 339 339 341 342 344 348 351 352 353
326 318 309 304 301 302 304 314 317 310 312 314 320 319 321 320 336 337 346 346 346 351 353 352 358 355 353 351 350 352 350 347 344 342 342 341 340 338 336 337 337 337 337 337 336 340 346 349 351
324 315 306 302 300 303 304 310 307 307 307 312 321 321 320 323 337 344 347 345 347 349 351 354 355 355 353 352 350 350 351 349 346 344 343 342 341 341 342 339 338 340 341 341 338 337 340 344 348
320 313 306 303 301 301 304 306 305 305 305 311 319 317 317 325 334 342 344 349 348 349 351 352 353 353 353 352 350 350 350 351 351 350 348 349 349 345 345 345 345 344 344 344 342 341 338 339 342
318 311 303 302 300 302 304 306 306 305 305 310 311 316 318 325 321 327 337 339 338 339 341 350 351 350 351 350 351 351 350 346 347 346 346 344 344 346 348 347 347 348 348 347 345 344 344 343 341
315 309 303 304 302 305 305 305 307 308 308 309 310 313 316 317 319 328 331 332 336 338 342 347 347 346 349 346 339 337 335 333 332 332 331 330 333 332 331 336 342 344 342 342 341 341 339 336 335
313 309 308 308 307 305 305 306 306 307 307 308 309 312 314 314 321 330 330 329 330 334 336 341 340 339 340 334 329 325 316 316 315 317 318 318 317 319 318 320 322 326 332 334 334 334 333 333 333
311 310 308 307 308 308 306 305 306 306 304 309 310 312 310 310 315 323 324 328 325 323 324 325 328 330 327 319 315 312 311 311 311 311 312 312 312 312 312 312 312 314 319 318 319 322 325 326 328
308 307 308 309 309 307 305 307 305 305 306 307 313 313 308 309 313 316 316 316 314 314 313 314 315 317 314 313 310 309 308 308 308 309 310 310 309 309 309 309 310 311 312 312 312 313 316 317 317
307 307 306 307 306 305 306 304 304 304 305 308 309 309 306 306 307 307 311 309 307 307 307 306 307 308 307 307 307 307 306 306 307 308 309 309 308 307 308 307 308 308 310 309 309 310 311 312 312
306 305 305 306 305 305 304 302 304 304 304 305 307 307 304 304 305 303 304 304 305 305 305 305 305 306 306 306 306 306 306 306 306 307 308 308 307 306 307 306 307 307 308 308 307 307 309 309 310
305 303 303 303 304 303 304 300 301 303 303 303 304 305 303 302 301 304 304 304 304 305 304 304 304 305 305 306 306 307 306 306 306 305 307 307 307 306 306 305 305 305 306 306 307 306 307 307 307
300 300 300 300 303 303 302 298 300 302 302 302 302 301 302 300 301 302 302 303 303 304 304 304 305 304 304 305 305 305 305 305 305 305 306 306 306 306 306 305 305 305 306 306 306 305 305 305 305
297 297 295 298 302 302 300 298 300 301 301 301 301 300 300 300 299 300 302 303 302 304 304 304 304 303 303 303 304 304 304 305 305 306 306 305 305 304 305 305 305 304 305 304 303 303 304 302 303
296 293 293 295 298 300 298 298 300 300 300 301 300 299 299 299 299 300 301 302 302 302 303 304 303 303 303 303 303 304 304 304 305 305 305 304 305 304 305 305 304 304 303 303 302 301 302 302 302
297 295 294 295 298 298 297 297 300 301 299 299 300 299 298 298 301 300 301 301 301 301 302 302 302 302 303 303 303 304 304 304 304 305 303 304 304 304 304 304 303 303 302 301 301 301 300 301 302
297 294 294 296 299 298 296 296 300 299 299 299 300 299 298 298 298 299 299 300 300 301 301 301 302 302 303 304 304 304 304 304 303 304 303 304 303 303 302 302 302 302 301 301 301 300 299 300 301
296 294 294 294 296 296 295 294 296 297 298 299 300 300 300 299 298 298 299 300 301 300 301 301 302 302 303 303 303 302 302 302 302 303 303 303 301 301 301 301 301 301 301 300 300 300 300 297 299
293 298 297 296 294 290 294 287 292 293 297 296 297 297 298 299 299 299 299 298 299 300 301 301 301 301 302 303 302 302 302 301 302 301 301 300 299 300 300 300 300 300 300 299 300 300 300 299 296
295 298 296 294 291 291 290 288 291 293 294 295 295 297 297 298 299 298 298 299 299 299 300 300 300 301 302 302 302 302 300 300 300 299 298 299 299 300 299 299 299 299 299 299 299 299 298 298 297
297 293 292 291 289 285 287 287 289 290 292 293 294 295 297 297 297 298 297 298 299 300 300 300 300 301 302 302 301 301 300 298 297 297 297 298 298 299 299 299 299 299 299 298 298 298 298 297 297
294 292 287 284 284 283 288 286 290 292 293 292 292 295 297 298 297 297 297 297 298 299 300 300 300 301 301 300 299 298 297 296 296 297 296 296 296 297 298 298 297 297 298 298 298 297 297 296 296
292 292 286 281 282 284 287 285 289 292 293 293 294 296 297 297 297 297 297 298 298 299 300 300 301 300 298 297 295 296 296 297 297 296 296 295 296 296 297 297 297 297 297 296 296 296 296 296 295
291 289 290 284 282 282 285 287 292 292 292 292 292 293 293 295 296 296 297 296 297 298 298 299 299 297 295 295 296 296 296 295 295 295 296 296 296 296 296 296 296 295 295 295 295 295 295 295 295
293 292 287 285 281 279 282 283 287 289 290 290 291 291 293 294 295 295 295 296 296 296 295 295 295 294 294 295 295 296 295 295 295 295 295 295 295 295 295 294 294 294 294 294 294 294 295 294 294
289 287 285 286 284 282 281 284 288 289 289 289 290 291 292 293 294 294 294 294 294 294 293 293 294 294 294 295 295 294 294 295 295 294 294 294 294 294 293 293 293 293 293 294 294 294 294 293 294
290 288 287 285 282 281 281 285 290 289 289 290 290 291 293 294 294 294 294 294 294 293 293 293 293 294 294 294 294 293 294 294 293 293 293 293 292 293 293 293 293 293 293 293 293 293 293 293 293

GFSSGP_sfc_thetae_066.txt.gz
Theta_e
350 346 352 343 323 320 311 313 319 319 320 325 325 322 320 322 315 313 346 348 350 348 350 353 355 357 354 352 351 349 347 342 344 347 350 349 349 350 351 350 352 354 355 356 356 355 355 355 355
347 345 347 333 319 313 310 316 317 322 325 326 325 323 319 317 327 329 332 346 348 346 349 349 355 356 353 351 351 351 349 343 343 343 347 347 347 346 347 346 345 349 351 352 354 354 354 354 353
341 340 333 326 321 315 310 316 322 324 325 324 323 327 323 322 332 331 340 344 344 346 349 353 356 355 352 351 351 351 348 344 344 343 342 346 345 343 342 340 340 342 345 346 349 352 353 353 354
337 332 326 319 314 314 314 320 323 323 321 325 327 321 327 332 333 336 342 342 343 347 349 354 356 355 351 350 351 350 348 345 343 343 342 340 340 339 338 338 338 338 338 338 339 345 349 352 352
338 328 319 315 311 312 314 323 325 318 318 324 326 322 324 330 339 341 343 342 344 347 348 350 356 354 352 350 350 351 350 347 345 343 343 343 342 342 339 338 341 342 342 339 337 339 342 347 349
330 324 315 311 310 310 314 325 322 317 317 321 323 323 325 332 340 344 344 343 345 346 348 350 355 354 352 351 349 351 350 349 347 346 346 346 343 343 344 344 344 344 344 343 342 340 338 341 345
327 320 314 314 311 308 312 324 314 314 314 317 326 319 325 332 344 347 345 345 346 346 348 351 350 352 352 351 350 351 351 350 351 351 350 348 349 349 348 347 348 348 348 347 345 345 344 342 340
328 323 313 313 309 310 313 319 313 312 310 319 323 319 321 333 344 347 348 347 346 346 347 350 349 349 350 351 350 350 348 347 344 343 343 343 345 345 341 346 346 345 345 345 343 342 341 339 339
323 316 312 313 311 312 312 312 311 313 313 318 320 321 327 335 338 341 343 342 343 342 345 349 348 350 351 346 341 337 333 331 331 330 330 332 334 331 327 327 333 336 337 337 337 337 336 337 334
320 316 315 317 316 313 311 312 311 311 312 315 316 318 328 330 336 337 338 338 340 341 344 348 348 349 346 335 322 316 317 319 320 321 322 321 321 319 319 319 320 322 323 323 326 328 329 336 335
319 316 316 314 314 314 312 310 313 311 310 314 314 319 325 328 334 337 338 337 339 341 342 344 343 342 338 326 323 321 320 318 317 316 316 316 316 316 316 316 316 316 317 316 318 319 321 323 324
314 313 314 314 314 312 311 313 310 312 313 314 317 322 325 326 330 334 334 333 333 335 335 335 335 331 324 321 318 315 314 313 313 313 313 313 313 312 312 312 313 313 313 313 313 313 314 315 316
313 312 312 312 311 312 312 311 311 311 312 313 318 322 323 326 330 332 331 328 329 327 326 325 323 319 317 315 313 312 311 310 311 312 312 311 311 310 311 310 311 311 311 311 310 311 311 312 312
311 312 310 310 310 310 309 308 308 311 312 314 317 319 321 323 324 324 323 321 323 320 317 316 315 315 313 312 312 310 311 311 311 312 311 310 310 309 309 309 309 309 309 309 309 309 309 309 310
309 307 308 309 310 308 310 306 307 310 312 313 316 318 318 319 320 320 321 318 316 314 312 311 312 312 312 311 311 311 310 311 311 311 310 310 310 309 309 308 308 308 308 308 308 308 308 308 308
305 307 304 306 307 307 306 308 307 309 310 311 313 316 315 315 315 319 316 314 313 311 311 311 310 311 311 310 310 310 310 311 311 311 311 309 309 309 309 309 308 308 308 307 307 306 306 306 306
302 304 306 305 307 306 304 307 306 308 308 310 311 312 313 313 312 313 312 311 311 311 310 310 311 309 309 310 310 310 310 310 311 311 311 310 310 309 310 309 308 308 308 307 306 306 305 305 305
299 299 302 306 304 304 303 304 307 307 307 308 310 310 310 311 310 310 310 310 310 310 311 311 310 309 309 310 310 310 310 310 311 311 312 309 311 309 309 309 308 308 307 306 306 304 305 305 305
306 302 301 300 302 302 303 303 305 308 307 307 309 309 308 309 311 310 309 309 309 309 309 310 309 309 309 309 308 309 309 309 310 310 309 309 309 308 308 308 307 307 306 305 305 304 304 303 305
301 299 300 300 302 302 302 302 306 305 305 306 307 308 308 309 308 308 307 308 308 308 309 309 309 309 309 310 311 311 310 311 311 311 309 309 308 307 306 306 306 306 305 305 305 304 303 303 304
302 300 300 297 300 301 300 299 301 302 304 304 306 307 309 308 306 307 306 307 308 308 309 309 309 309 310 310 311 310 310 310 308 309 309 308 306 306 305 306 305 304 304 303 304 304 303 300 303
298 300 300 298 297 294 299 291 299 300 302 302 303 305 306 308 308 308 307 307 307 308 310 309 309 308 309 310 309 309 309 308 310 309 309 307 305 305 305 304 304 304 304 303 303 303 302 301 299
299 302 300 298 298 296 295 293 297 300 299 300 302 303 304 306 308 307 307 308 308 309 309 308 308 307 308 308 310 310 308 309 309 307 305 305 306 306 304 304 303 303 303 303 302 301 301 301 299
302 300 299 298 297 291 293 293 294 297 296 299 302 303 303 304 306 307 307 307 307 307 308 308 307 307 308 309 309 309 308 307 305 304 303 304 304 304 304 303 303 303 302 301 301 301 301 300 300
300 298 292 290 290 289 293 291 296 297 297 298 299 302 303 304 305 305 305 305 306 306 307 307 307 307 308 308 308 307 306 304 303 303 303 302 302 302 302 302 301 301 301 301 301 300 299 299 298
298 298 292 285 288 291 292 290 295 296 298 299 301 303 304 304 305 304 304 306 306 306 307 307 306 307 307 306 304 303 302 304 303 303 302 301 301 301 301 300 300 300 300 300 299 299 298 299 298
296 295 296 291 290 289 293 293 296 297 297 298 299 301 300 301 302 302 303 304 304 305 304 304 305 305 303 302 303 302 303 302 302 302 301 301 301 300 300 300 299 298 298 298 299 298 298 298 298
298 298 292 294 286 285 289 290 294 294 295 296 297 298 299 301 301 302 302 303 303 303 303 302 303 302 301 301 303 302 302 301 301 301 300 299 299 299 298 298 298 298 298 298 298 298 298 298 298
294 294 293 293 291 287 286 290 296 296 296 296 297 298 299 300 301 301 302 302 302 302 301 301 301 300 301 301 301 301 301 300 300 299 299 298 298 297 297 296 296 297 297 298 297 297 298 297 297
295 294 295 291 288 290 290 290 295 296 296 296 296 298 299 300 300 301 301 302 302 301 301 301 301 300 301 300 300 300 300 299 298 298 297 297 296 297 296 296 296 296 297 297 297 297 297 295 294

GFSSGP_sfc_thetae_069.txt.gz
Theta_e
354 351 353 349 326 320 312 314 320 318 319 324 324 321 318 321 317 316 341 343 343 344 348 354 357 355 353 351 349 349 344 344 345 348 349 349 348 349 348 347 351 353 354 355 355 355 355 355 355
347 346 350 339 319 312 311 317 317 320 324 325 324 322 319 317 324 330 333 341 342 343 345 349 356 354 352 351 352 350 344 344 343 344 347 347 345 343 342 342 343 348 349 350 353 354 354 354 353
344 344 336 327 320 312 312 317 321 323 324 323 323 326 322 322 329 330 337 339 340 343 346 353 355 353 352 351 351 349 345 344 344 342 343 344 342 340 339 339 339 340 340 342 346 350 353 353 353
339 338 331 320 315 318 317 320 322 321 322 325 324 320 327 335 331 333 337 338 341 343 348 355 356 353 351 351 350 349 348 346 345 345 343 341 340 338 338 341 343 342 340 338 339 343 347 351 352
337 333 321 317 316 318 319 322 323 318 318 321 322 321 324 331 337 337 338 340 341 343 346 349 356 353 351 350 351 350 349 347 346 345 344 343 345 343 342 343 344 345 344 343 341 339 341 345 347
330 329 316 312 314 317 319 323 321 317 318 321 320 321 325 336 336 339 340 341 343 344 346 348 355 353 352 350 352 352 351 350 349 348 350 348 345 346 347 347 347 348 347 346 345 344 341 340 342
327 323 315 315 314 314 316 323 318 315 316 317 323 319 327 333 339 342 341 342 344 345 345 345 348 351 353 352 351 352 352 351 351 350 349 349 349 349 349 349 347 348 349 347 345 344 342 343 341
330 325 316 316 313 313 317 321 318 315 314 324 325 319 321 333 342 342 341 341 342 343 344 345 349 347 350 351 351 349 347 344 343 343 343 345 343 339 338 341 340 342 341 341 340 339 339 339 335
328 318 313 315 314 315 318 318 316 316 315 317 323 323 330 338 343 341 339 340 340 340 341 346 346 346 350 345 341 337 335 333 333 333 334 336 333 331 327 324 326 328 328 328 330 331 333 337 339
320 317 317 320 320 317 316 317 314 312 313 316 318 323 331 337 338 337 336 336 336 338 340 344 345 347 345 338 329 322 323 325 325 325 325 324 322 319 320 323 323 322 322 323 325 326 334 334 328
321 317 321 319 320 319 315 314 316 313 313 317 317 319 327 331 335 335 335 335 336 338 341 342 343 344 340 330 327 327 326 323 319 317 317 316 315 315 315 315 315 316 322 314 316 316 315 316 318
315 321 320 318 316 316 314 316 313 314 317 318 319 321 325 329 332 333 333 334 336 339 340 341 342 340 332 328 326 322 317 315 313 313 313 313 312 312 312 312 313 314 313 312 312 312 312 313 312
315 317 316 317 315 315 316 314 314 314 317 316 318 321 324 326 329 333 334 334 335 336 335 335 333 329 326 321 317 314 312 312 313 312 312 313 312 311 312 311 311 311 311 310 310 310 310 310 310
315 315 313 313 313 314 313 313 311 316 317 315 317 319 322 324 328 331 332 331 332 330 328 329 326 322 318 315 313 312 312 312 313 313 312 311 311 311 311 310 310 310 310 309 309 308 308 308 309
313 310 311 312 312 312 314 310 310 316 315 314 316 318 320 323 327 327 330 328 329 325 321 318 316 315 314 313 312 312 312 312 312 312 312 311 312 311 311 311 310 309 310 309 308 308 308 308 308
310 312 306 310 309 310 309 309 313 313 312 312 315 317 319 320 323 325 327 325 322 318 315 314 313 313 313 312 311 311 312 312 312 312 312 311 311 312 311 311 310 310 310 310 308 307 307 307 307
308 306 308 310 311 310 306 309 309 311 310 311 313 315 317 317 319 321 322 321 317 314 313 312 312 312 311 310 310 311 311 311 312 312 312 311 310 310 311 310 310 310 310 309 308 307 306 305 306
306 306 309 308 312 307 306 307 311 309 309 310 311 312 314 315 315 319 317 317 314 313 312 312 312 310 310 311 310 311 311 311 312 311 312 310 310 310 310 310 310 309 309 308 308 306 307 306 306
310 309 307 308 303 302 304 307 308 310 310 309 310 310 311 312 316 316 314 314 312 312 311 311 310 310 310 310 309 309 309 310 311 311 310 309 310 309 309 309 309 309 308 307 307 306 305 305 306
308 307 307 307 303 302 306 305 307 308 308 308 309 310 311 312 313 313 312 312 311 310 311 311 310 310 310 311 311 312 311 312 312 313 311 310 309 308 308 308 308 307 307 306 306 307 304 304 305
306 305 304 302 303 304 301 299 303 305 306 306 307 309 310 312 311 311 311 310 311 310 310 310 310 310 311 312 312 312 311 312 310 310 310 310 309 308 307 307 306 306 306 306 306 306 306 302 303
305 308 304 302 298 294 301 292 300 303 304 304 306 307 309 310 312 311 310 310 310 311 312 311 311 310 311 312 311 310 309 309 311 311 311 310 309 307 307 306 306 305 305 305 305 304 303 303 300
305 304 302 302 299 298 297 294 298 302 301 302 304 306 307 309 311 310 310 310 310 311 311 311 311 310 311 310 311 311 310 311 311 310 309 308 308 308 307 306 305 305 305 304 303 302 301 302 301
305 303 302 301 299 292 296 295 296 299 298 300 304 305 306 307 309 311 310 311 310 311 312 311 310 309 310 311 310 311 310 310 309 308 307 306 307 307 306 306 305 305 304 302 303 302 301 301 300
303 300 293 292 292 291 296 294 297 299 299 301 302 304 305 307 307 308 307 307 308 309 310 310 310 309 309 309 310 310 310 309 307 306 305 305 304 304 305 304 303 303 304 303 303 302 301 300 299
300 300 293 287 289 293 296 292 296 299 302 303 304 305 306 306 307 307 308 308 309 309 309 309 308 308 309 309 309 309 307 306 305 305 304 303 303 303 304 303 302 301 301 301 301 300 300 300 299
299 295 300 295 295 291 294 296 298 299 300 302 302 303 303 304 305 305 306 306 307 307 307 307 307 308 308 307 306 305 305 304 304 304 304 303 303 302 302 301 300 300 299 299 299 299 298 299 299
300 301 294 295 287 287 292 292 294 295 297 299 300 300 302 303 303 304 304 304 305 305 305 305 305 304 304 304 304 304 304 304 304 303 302 302 301 301 300 299 299 299 298 298 298 299 299 298 299
297 296 296 296 294 289 288 292 300 298 299 299 300 301 302 302 302 303 303 304 304 304 304 303 303 302 303 303 303 303 303 303 303 302 301 301 300 299 298 298 298 297 297 297 297 297 298 298 298
298 298 298 292 291 292 291 291 299 300 300 300 300 301 302 302 302 303 303 303 303 304 304 303 303 302 303 303 302 301 302 302 301 301 300 299 298 298 297 296 296 296 296 297 297 297 297 297 296

GFSSGP_sfc_thetae_072.txt.gz
Theta_e
351 351 349 352 328 322 311 313 319 317 318 321 320 316 314 315 316 315 337 338 341 345 351 354 356 354 352 351 350 344 344 344 347 348 348 346 345 345 344 346 351 352 352 354 355 355 355 354 354
344 345 351 341 320 310 310 315 316 319 321 321 322 320 316 314 325 329 332 338 340 342 348 351 355 353 352 352 350 345 345 344 343 346 345 343 342 341 340 341 343 344 346 348 352 354 354 354 353
341 344 337 329 320 309 309 317 318 320 321 322 320 322 320 320 326 328 334 337 338 347 349 352 354 352 351 352 349 346 346 345 344 342 342 341 339 339 341 342 341 339 340 341 344 348 351 353 353
339 340 333 319 315 314 316 318 320 319 321 322 322 317 326 330 326 329 333 335 337 344 348 356 354 353 352 351 350 349 347 346 346 345 345 345 341 342 345 346 346 344 343 341 339 340 345 348 348
336 334 322 316 315 318 319 320 320 317 318 319 320 317 321 330 331 331 332 337 336 342 347 353 354 352 352 352 351 349 348 347 347 347 346 346 347 347 347 347 348 348 347 347 346 341 340 342 345
327 330 315 311 313 318 318 319 319 315 316 318 318 320 321 330 331 332 335 335 338 339 346 350 355 353 352 353 353 353 352 351 350 351 351 348 348 349 349 350 350 350 349 347 346 345 344 343 340
325 323 315 313 313 315 318 320 316 315 313 315 320 318 323 328 334 334 335 336 338 341 343 345 347 351 355 352 353 352 351 351 350 349 350 350 348 347 347 346 346 344 345 343 342 341 341 340 340
329 326 317 316 311 312 318 320 318 315 314 322 321 316 317 328 335 335 335 335 336 339 343 344 345 347 347 348 351 349 347 347 346 345 347 344 339 336 335 333 334 334 334 332 333 333 336 338 339
332 317 312 313 315 315 318 316 318 315 313 315 318 324 327 335 337 334 332 332 335 337 343 343 343 345 345 343 342 342 341 337 338 337 340 342 321 322 319 324 325 325 325 325 326 328 334 338 341
320 315 315 320 318 317 317 317 312 310 310 312 316 323 333 335 334 331 329 328 330 333 340 340 342 344 343 337 328 321 321 320 320 319 317 316 314 312 317 323 329 327 327 330 330 331 329 322 313
321 313 320 321 322 321 316 316 315 310 309 313 314 317 326 330 331 330 329 329 328 332 338 341 342 342 333 326 320 319 319 315 309 308 309 308 309 308 308 308 309 308 317 308 310 308 308 306 307
315 319 320 323 319 319 314 316 312 312 314 315 316 319 323 324 327 329 328 329 332 335 334 339 341 337 327 323 320 314 309 307 306 306 306 305 306 305 305 305 306 305 305 303 304 304 304 304 304
316 318 319 318 317 316 317 313 314 312 315 314 317 320 320 322 325 327 329 330 333 332 333 334 330 324 321 315 310 307 306 305 306 306 306 306 306 303 304 303 304 303 304 303 302 302 302 302 303
315 318 316 314 316 315 314 313 312 314 315 313 313 315 318 319 322 325 326 326 328 329 328 325 325 318 313 308 306 305 306 307 307 306 305 306 305 303 304 304 304 303 303 302 302 300 301 301 302
315 312 312 313 314 311 312 310 308 314 314 311 311 312 315 318 322 323 326 325 326 324 324 321 314 311 307 305 306 306 306 308 306 306 305 306 307 305 305 304 303 303 304 304 303 302 302 302 303
311 312 305 310 311 310 309 306 310 312 310 309 310 310 313 316 320 322 325 324 323 317 313 310 311 307 306 305 305 305 306 306 306 305 305 305 306 305 305 305 303 303 304 304 302 302 301 300 300
308 302 306 306 314 310 307 305 308 309 309 308 307 309 313 313 316 318 322 320 315 311 307 306 306 306 306 304 304 304 304 305 305 305 305 305 306 306 305 304 304 304 304 303 303 302 300 299 299
303 302 306 306 313 312 307 304 309 313 307 306 305 306 309 311 313 314 317 315 311 308 307 306 306 305 304 303 303 303 303 304 305 304 305 305 305 305 304 304 304 303 302 303 301 299 300 299 299
309 307 305 305 307 309 307 306 309 311 307 306 304 305 305 309 313 314 312 310 307 306 305 305 304 303 303 302 302 302 302 303 303 305 304 304 304 304 302 303 302 302 301 300 301 300 298 298 299
309 306 306 306 304 303 304 305 309 311 306 305 304 303 305 305 309 309 309 307 305 304 305 304 304 303 304 304 304 304 304 305 305 307 305 304 304 303 303 301 301 301 300 299 299 299 298 297 298
308 304 305 303 302 306 303 298 301 304 305 305 304 305 305 305 306 307 306 305 305 304 304 304 304 304 304 305 305 305 305 305 304 304 304 305 305 303 302 301 299 299 299 298 298 298 297 295 296
302 308 307 305 299 295 299 288 297 300 301 302 302 303 304 305 307 308 306 305 304 305 305 305 305 304 305 306 304 303 303 301 304 305 305 305 304 302 302 301 300 299 298 297 297 299 295 294 292
303 306 305 305 298 295 295 290 293 299 298 298 300 302 302 305 306 306 305 305 305 306 305 305 304 304 304 304 305 304 304 305 305 304 302 302 302 302 302 301 299 298 298 297 296 296 295 294 293
305 302 301 300 295 287 293 292 290 293 294 297 300 301 302 302 304 305 306 306 305 306 306 306 304 304 304 304 304 304 303 303 303 303 301 301 301 301 301 301 299 298 297 297 296 295 295 294 293
303 297 290 288 287 286 294 291 291 295 297 299 299 299 301 301 303 303 303 303 304 304 305 306 305 304 304 303 303 303 304 303 301 300 299 298 298 298 298 299 297 296 296 297 296 295 294 294 293
298 297 290 284 285 288 295 287 289 297 299 300 301 300 301 301 302 302 302 302 302 303 304 305 304 303 303 303 302 302 302 300 299 298 298 297 297 297 298 297 297 296 296 295 294 293 293 293 292
298 293 298 291 291 286 290 291 293 297 297 299 298 299 299 300 300 300 301 301 301 301 301 301 302 302 302 301 301 299 298 298 298 297 297 297 297 299 297 296 295 295 294 294 293 292 292 292 292
299 299 291 291 283 282 288 288 288 292 294 296 296 296 297 299 299 299 299 299 299 299 299 299 299 299 299 298 298 298 297 298 297 297 296 296 296 296 296 295 294 293 293 293 292 291 292 292 293
295 294 294 292 291 284 282 285 293 293 295 294 295 297 297 298 297 297 298 299 299 299 298 298 298 298 297 298 297 297 296 297 296 296 296 296 295 294 293 293 293 292 291 291 291 291 292 292 292
296 295 295 288 286 288 285 284 295 295 296 297 296 298 298 298 298 298 298 298 298 298 298 297 297 296 297 297 296 296 296 296 295 295 294 294 292 293 292 292 291 291 291 291 291 291 292 292 292

GFSSGP_sfc_thetae_075.txt.gz
Theta_e
350 342 344 340 318 313 304 308 312 311 312 313 315 314 312 314 318 313 333 344 348 349 353 353 355 351 351 349 345 344 343 346 347 345 343 343 342 342 345 347 348 349 352 354 354 354 354 353 354
346 341 341 332 312 307 303 309 311 313 315 317 318 315 314 314 325 328 328 343 347 350 352 351 353 353 352 349 346 345 343 343 345 344 342 340 340 340 341 342 342 343 346 349 351 353 353 354 354
342 341 327 321 317 306 305 311 312 315 317 317 315 317 318 317 327 328 331 340 347 347 351 350 353 352 353 349 347 347 346 344 343 343 341 340 342 345 346 345 342 340 340 340 342 347 349 349 352
330 330 325 313 313 314 312 311 315 315 317 318 319 317 323 324 324 328 333 345 345 348 349 354 353 352 351 351 350 348 347 347 346 346 347 343 345 347 347 348 348 347 346 344 341 340 342 346 345
326 324 315 310 314 315 314 317 316 313 314 316 317 316 318 323 327 329 331 344 344 348 350 349 353 352 352 351 349 349 348 349 348 347 347 348 348 348 350 351 350 350 348 347 346 345 343 341 340
316 321 309 305 310 315 314 316 316 312 314 314 318 316 317 324 326 327 332 340 345 348 350 348 353 353 354 353 352 353 352 351 351 351 349 349 350 350 349 348 347 347 346 345 344 343 343 342 342
314 314 310 310 309 313 315 316 312 310 312 310 319 315 319 322 327 330 331 339 340 348 348 347 348 351 355 354 353 352 351 351 351 350 349 347 346 344 343 343 341 339 336 336 334 337 338 338 340
321 318 311 310 309 309 315 315 312 310 311 316 320 314 315 323 329 331 331 336 342 343 345 344 346 346 347 347 351 350 349 349 348 348 343 340 336 331 330 329 329 329 328 328 330 334 336 334 341
324 310 307 310 311 312 315 310 311 311 311 312 316 320 323 328 330 328 327 329 338 340 341 344 344 344 343 342 345 344 343 341 342 343 344 326 319 317 317 329 331 326 327 329 330 330 330 326 323
313 308 310 317 316 314 316 311 308 306 306 310 315 326 329 330 328 326 325 328 334 337 339 342 342 340 339 338 330 326 327 322 320 316 321 311 309 312 316 323 324 323 323 323 323 323 321 313 304
315 308 316 319 322 319 315 311 310 305 303 310 312 323 328 327 327 327 326 329 334 336 338 339 340 339 330 325 320 315 314 305 304 304 305 304 305 304 304 305 304 303 312 303 305 303 302 301 301
311 317 319 318 320 316 314 312 307 307 309 312 314 322 325 325 326 327 325 326 333 335 339 341 340 326 323 321 316 312 304 303 302 303 303 302 302 301 301 301 301 301 300 300 300 300 300 300 301
312 315 319 314 316 316 314 310 308 308 310 312 316 320 321 322 324 326 327 332 333 331 333 336 327 321 316 306 304 303 303 302 302 302 303 303 301 301 300 300 300 300 300 299 299 298 299 299 300
314 316 316 314 314 314 310 310 311 310 310 309 314 316 317 319 321 323 327 329 328 325 323 323 321 312 307 303 302 302 303 303 303 302 302 304 301 301 301 301 300 300 300 300 300 299 299 299 299
311 307 309 311 313 310 313 308 307 311 310 308 308 310 314 317 319 321 323 326 325 321 321 318 312 306 303 302 303 303 304 305 303 302 303 304 303 302 301 300 300 300 301 301 300 300 300 299 300
306 306 299 308 310 309 309 303 307 308 308 307 308 306 311 314 317 321 323 323 322 318 311 308 309 304 302 302 302 303 304 303 302 301 302 303 304 303 302 301 300 301 302 301 300 299 299 298 298
303 296 300 301 310 308 308 302 308 314 310 304 304 305 310 312 316 319 321 318 314 307 305 304 303 303 303 302 302 302 302 302 301 302 302 302 303 304 302 301 301 301 301 301 300 299 298 297 297
296 297 301 301 309 309 304 305 311 315 314 309 305 303 307 310 314 316 314 311 307 305 304 304 303 301 301 300 299 300 300 300 301 302 302 303 303 303 302 301 301 301 300 299 298 297 298 297 297
304 301 300 304 312 309 307 307 308 308 307 305 304 302 300 307 311 314 309 307 304 304 303 303 301 299 300 299 299 299 299 300 300 302 302 302 302 302 300 301 300 300 299 298 298 297 296 296 296
306 302 301 302 304 301 303 302 306 309 308 304 304 303 302 300 306 308 306 304 303 301 302 302 301 300 300 301 300 300 299 301 301 302 302 303 302 302 301 299 299 298 298 297 296 296 295 295 295
304 301 300 301 302 301 301 297 299 303 302 303 303 304 304 304 303 303 302 302 301 300 300 301 301 300 302 302 302 302 302 302 301 301 301 302 302 302 300 299 298 297 296 296 295 295 294 292 293
300 306 305 299 296 291 299 286 291 296 297 298 299 299 301 302 303 304 302 301 301 301 301 301 301 301 303 302 302 301 300 299 300 301 302 302 303 301 300 299 298 297 296 295 295 298 293 292 290
302 305 303 300 295 290 291 286 288 294 293 294 296 299 300 301 302 303 302 302 302 302 301 302 301 301 301 301 302 301 300 301 302 301 301 300 300 301 300 298 297 296 295 295 294 293 293 292 291
304 299 298 294 291 284 289 288 286 289 291 293 295 297 299 301 301 301 302 302 301 301 302 301 301 301 301 300 301 301 300 300 300 300 298 298 298 298 298 299 296 296 295 294 294 293 292 292 291
299 293 285 284 282 282 290 287 287 291 294 295 295 296 298 298 298 299 299 300 301 301 302 303 302 301 301 300 299 300 300 299 299 298 296 295 295 295 296 296 295 294 294 294 293 292 292 291 291
295 292 286 282 281 285 291 284 287 294 296 297 297 297 297 298 298 298 299 298 299 300 300 301 301 301 301 299 299 300 299 299 298 296 295 294 295 295 296 295 295 294 294 294 293 291 291 290 290
294 290 295 287 286 282 286 286 290 294 295 295 295 296 296 296 296 296 297 297 296 297 297 298 299 299 298 296 296 295 295 296 295 295 294 295 295 297 296 295 294 294 293 292 291 290 290 290 290
294 296 287 286 279 278 284 283 284 289 292 293 293 293 294 295 295 295 295 296 296 296 296 296 296 296 295 295 295 295 294 294 294 294 293 294 294 294 294 293 292 292 291 291 290 289 289 289 290
291 290 290 289 287 281 279 282 289 290 293 292 292 294 294 294 294 294 295 295 296 295 295 295 295 295 295 296 295 294 294 294 294 293 293 293 292 291 291 291 291 290 290 289 288 288 288 288 289
292 291 290 284 283 284 281 282 291 293 294 294 293 295 294 295 295 295 294 294 294 294 294 294 294 294 295 295 294 293 293 293 292 292 291 291 290 290 290 290 290 290 290 290 289 289 290 289 290

GFSSGP_sfc_thetae_078.txt.gz
Theta_e
347 341 342 338 315 311 302 305 309 309 308 310 313 312 311 315 318 310 334 344 348 350 351 352 352 350 347 345 344 345 346 346 344 342 342 342 342 344 346 348 349 350 351 354 353 353 353 353 354
342 342 340 329 310 305 301 307 309 312 313 313 315 314 314 314 325 331 336 346 349 350 350 348 352 351 347 346 344 343 345 344 343 341 340 340 341 341 341 342 342 344 346 348 351 352 352 353 353
337 340 325 319 315 306 302 309 310 313 314 315 313 317 315 317 328 332 339 347 349 349 349 347 352 352 348 346 346 345 343 343 343 341 341 344 346 346 345 343 342 341 340 340 341 345 346 345 350
328 328 323 312 308 312 311 311 313 313 314 318 318 315 320 325 327 330 343 347 347 347 345 351 352 351 349 349 348 347 347 346 347 346 343 346 347 347 348 349 347 347 347 345 343 342 340 340 340
324 323 313 308 310 313 311 314 314 311 312 314 318 315 315 322 329 340 343 346 345 346 347 347 352 351 350 350 349 348 349 348 347 348 348 348 348 350 351 349 349 346 347 346 345 344 343 343 343
314 319 307 304 309 315 311 315 314 311 312 316 317 315 315 322 329 340 343 344 347 346 346 347 352 352 351 350 350 351 352 351 350 349 349 349 349 349 348 346 345 343 341 340 341 340 339 341 343
312 312 308 308 309 310 313 314 311 310 310 311 319 313 315 319 325 340 341 344 347 347 345 345 348 353 354 353 352 351 351 351 350 349 348 347 344 343 340 338 333 331 331 331 333 332 331 338 338
317 316 310 310 308 308 316 314 315 312 309 316 322 313 312 320 325 335 339 340 344 345 344 343 345 347 347 348 352 351 350 349 348 345 341 337 331 331 330 328 329 328 328 328 327 327 326 326 327
321 308 306 309 311 312 314 308 310 312 311 312 316 319 322 326 326 331 331 337 340 342 342 343 344 345 343 343 346 346 345 346 346 339 336 325 314 315 318 329 328 325 325 325 325 324 323 319 319
312 306 308 315 317 312 313 309 308 307 308 310 317 321 325 326 325 326 329 332 335 336 340 341 342 340 340 343 336 328 326 323 319 328 310 308 310 312 315 319 322 322 320 321 321 320 317 310 301
312 307 314 316 317 319 313 308 309 305 303 310 317 320 324 324 324 324 327 332 334 336 340 341 340 338 334 331 321 315 306 303 303 305 303 303 304 302 302 301 300 300 310 300 302 301 300 299 300
310 316 318 318 316 314 313 313 305 305 306 311 322 324 325 324 324 324 323 331 333 335 338 340 338 330 323 321 314 312 302 301 300 301 302 300 299 299 299 299 299 299 299 298 298 298 299 299 299
310 314 318 317 314 312 313 309 307 307 309 312 322 325 325 325 324 325 324 331 334 334 337 338 331 321 318 311 305 303 302 300 300 301 301 300 300 299 300 299 299 298 299 298 297 298 298 298 299
313 315 316 313 312 314 308 311 312 308 309 312 320 321 322 323 324 323 327 330 330 334 334 330 323 312 304 302 301 301 301 300 300 300 301 301 300 300 300 299 299 299 299 298 298 298 297 297 297
310 308 307 308 310 309 314 305 306 307 308 311 313 314 318 320 321 321 327 326 325 328 323 321 311 304 301 301 302 302 302 302 300 301 302 302 302 300 299 299 298 298 299 299 299 299 298 298 299
306 304 298 306 307 307 311 301 309 314 308 305 307 309 312 315 317 320 327 324 321 320 318 314 309 303 301 301 301 302 302 301 301 300 301 302 303 301 300 299 299 299 300 300 298 298 297 297 296
302 295 298 300 308 308 307 302 308 314 310 306 304 304 308 311 316 319 324 322 320 313 306 303 303 302 301 300 300 301 301 300 300 299 300 301 303 303 300 299 299 300 300 299 298 298 297 296 296
294 296 299 297 304 306 303 302 309 314 315 313 309 305 306 311 316 318 321 318 311 305 303 302 302 300 300 299 298 299 300 299 300 300 300 301 302 302 301 300 300 299 298 298 297 296 296 296 295
301 300 299 302 309 305 301 304 308 311 310 309 307 302 301 307 310 314 315 308 304 303 303 301 300 299 300 298 297 297 298 298 299 300 302 301 301 301 300 300 299 298 298 297 297 296 295 295 294
303 299 298 299 309 304 305 305 309 310 307 307 304 302 300 300 308 306 308 302 304 302 302 300 300 299 299 299 298 298 298 298 299 300 300 301 300 300 300 299 299 297 297 295 295 295 294 294 293
303 300 298 297 301 300 299 296 299 303 302 302 302 301 301 300 305 302 302 302 300 300 300 300 299 299 299 300 300 300 300 300 300 300 299 300 300 300 300 298 298 297 295 295 294 294 293 291 292
299 305 304 301 297 293 298 288 290 295 295 298 298 297 298 299 303 302 300 299 300 300 301 301 300 299 300 300 300 300 299 298 298 299 300 301 301 300 300 298 297 295 295 294 294 296 293 291 290
302 305 304 302 295 290 290 286 288 292 291 294 294 296 296 298 301 301 299 299 299 299 299 299 299 299 300 299 301 300 298 299 300 300 300 299 299 299 298 297 296 295 294 294 293 292 291 291 290
304 298 297 295 291 285 289 288 286 289 291 292 293 295 296 298 298 300 299 299 299 298 299 299 298 299 299 299 299 299 299 299 299 298 298 297 297 297 297 297 295 295 294 293 293 292 291 291 290
300 295 286 284 282 282 288 287 289 289 292 294 294 294 295 294 296 297 298 298 299 299 299 300 300 300 299 298 299 298 298 297 297 297 295 294 294 294 295 295 294 293 293 293 292 291 290 290 289
296 296 286 280 280 283 288 284 287 291 294 295 296 295 295 295 295 296 296 297 297 298 299 300 299 298 298 298 297 297 298 297 296 295 294 294 294 294 295 294 293 293 293 293 292 290 290 289 289
293 291 293 286 284 282 284 285 289 292 292 293 293 294 294 294 294 294 295 295 295 295 296 298 297 296 295 294 294 293 294 294 294 293 293 293 293 296 294 293 292 292 292 291 290 289 288 288 288
295 297 287 285 279 277 281 281 284 288 290 292 292 292 293 293 293 293 294 294 294 294 294 294 295 295 294 294 294 293 292 293 293 292 292 292 292 292 291 290 290 290 290 289 288 287 288 287 288
292 292 291 289 285 280 278 282 287 290 292 291 291 292 293 293 293 293 293 294 294 294 294 294 294 294 294 294 293 292 292 292 292 291 291 290 290 289 290 290 289 289 289 288 287 287 287 287 287
292 290 289 284 282 281 279 281 289 291 294 294 292 293 293 294 294 294 293 293 293 292 292 292 293 292 293 293 292 292 292 292 291 290 290 289 289 289 289 289 289 288 288 288 287 287 288 288 288

GFSSGP_sfc_thetae_081.txt.gz
Theta_e
344 339 341 337 315 308 301 304 307 307 306 309 312 311 311 315 316 307 332 342 348 349 351 346 349 346 345 345 346 346 345 344 342 341 342 342 344 346 348 349 349 350 351 353 352 353 353 353 353
340 341 339 327 308 302 301 305 307 310 310 313 314 313 312 314 326 332 335 345 349 349 349 345 350 347 345 343 344 345 344 342 341 340 340 341 341 341 342 342 343 343 345 348 349 347 348 350 350
334 340 324 317 311 305 301 307 309 311 312 312 313 316 314 316 330 334 339 347 349 347 346 345 350 347 346 345 343 344 343 342 341 341 344 345 345 343 342 342 342 341 340 340 340 340 340 341 341
327 327 322 311 310 314 310 309 311 310 312 317 316 313 317 324 333 333 345 347 346 346 343 350 351 348 347 347 346 345 345 346 343 343 345 346 347 347 348 348 345 346 347 346 345 344 343 344 345
324 322 312 307 310 312 311 313 312 310 311 314 316 313 313 322 332 342 343 347 345 343 345 346 352 349 349 349 348 348 347 347 347 347 346 348 349 348 349 348 346 345 345 345 344 343 343 344 344
313 317 307 304 308 314 311 313 312 309 310 314 315 312 314 327 337 340 344 344 346 344 345 345 350 350 350 349 349 350 349 349 348 348 348 349 349 348 346 343 341 336 337 337 336 337 341 339 334
311 312 307 306 307 309 311 313 309 309 311 312 317 311 313 323 336 341 342 344 345 345 344 344 346 348 351 351 352 351 350 350 350 349 347 346 345 341 338 333 332 332 333 331 331 330 330 330 330
314 313 308 309 308 308 314 314 314 311 309 317 320 311 311 318 337 340 342 343 342 342 342 341 346 348 347 347 351 351 351 350 348 345 341 334 333 331 329 330 330 329 328 328 327 326 325 326 326
320 307 305 308 310 311 313 309 310 312 311 312 318 317 319 323 337 335 335 340 341 340 339 341 342 344 344 344 347 348 349 346 342 335 330 321 313 314 316 329 327 326 326 325 324 323 322 317 318
311 305 307 314 315 311 313 308 306 309 310 311 316 320 322 325 332 330 331 334 337 337 339 340 341 340 340 344 335 328 331 329 330 317 310 308 309 312 314 319 322 322 321 321 321 319 316 308 299
310 306 312 315 316 317 313 307 307 308 305 312 316 317 321 323 329 329 331 334 335 336 340 340 339 339 337 334 323 313 306 305 314 306 305 307 302 300 299 299 299 299 309 299 301 300 299 298 298
308 313 315 316 314 313 311 309 304 308 308 312 319 321 321 320 324 327 329 333 332 334 338 340 339 335 327 322 313 305 301 300 300 300 300 299 298 297 297 298 298 298 298 297 297 297 297 298 298
308 313 317 316 314 311 311 308 305 304 308 314 322 321 321 322 322 326 328 332 333 334 336 339 335 326 320 314 309 301 301 299 300 300 300 299 298 297 298 297 298 298 298 297 297 297 297 297 297
310 312 314 315 312 313 308 308 308 307 309 319 321 320 321 322 322 321 323 330 332 335 336 335 330 320 313 309 304 300 300 299 299 299 299 300 299 298 298 298 298 298 297 297 297 297 296 296 296
312 308 308 308 309 309 313 304 303 308 308 315 318 317 320 322 323 322 324 330 332 335 333 329 321 314 311 305 301 300 300 301 299 299 300 300 300 299 298 298 297 297 298 298 298 298 297 297 298
305 303 299 305 307 306 308 300 306 312 309 309 313 315 317 319 322 321 327 330 333 331 327 321 318 307 303 303 301 301 300 300 299 300 301 302 301 300 298 298 298 298 299 298 297 297 296 296 295
299 294 296 300 308 306 305 300 305 313 309 306 305 308 312 313 311 319 326 325 328 327 318 312 304 304 302 300 300 300 300 299 298 299 299 301 302 301 299 299 298 299 298 297 297 296 296 295 295
293 295 296 296 303 306 303 302 307 312 313 306 304 306 309 310 312 321 323 323 325 318 316 305 303 300 299 298 298 298 298 298 298 298 299 300 301 301 299 299 298 298 297 296 296 295 295 294 294
300 298 297 299 305 302 302 303 305 311 311 310 310 306 302 305 312 319 319 311 305 303 302 301 300 298 299 296 296 296 297 297 297 298 300 299 300 301 299 298 298 298 297 296 296 295 294 294 294
301 300 297 299 307 302 301 301 306 309 308 307 308 304 300 304 310 313 309 303 306 302 302 300 300 298 298 298 296 297 296 296 297 299 300 300 299 299 299 298 298 297 296 295 294 294 293 293 292
300 298 296 298 301 299 300 297 300 303 305 302 300 300 300 301 307 306 303 301 299 299 300 300 298 298 298 298 299 299 300 299 298 298 298 299 299 299 298 297 297 296 295 294 293 293 292 291 291
297 304 302 300 297 292 298 289 292 294 297 296 296 296 297 299 303 303 302 299 299 299 299 299 298 298 298 299 299 299 298 297 298 298 299 299 299 298 298 297 296 295 294 293 293 294 292 291 289
300 305 303 300 295 292 291 288 291 290 291 293 294 295 296 297 300 299 298 301 298 298 298 298 297 297 297 298 298 298 297 297 297 299 299 299 298 299 298 297 295 294 293 292 293 292 291 290 289
304 298 296 295 292 286 291 291 290 289 291 291 292 294 295 296 297 298 297 298 297 297 297 297 296 296 297 297 298 298 297 297 298 297 297 296 296 296 295 296 294 294 293 293 292 291 290 290 289
299 294 284 284 286 285 289 288 292 290 291 293 294 292 293 293 294 296 296 296 297 297 297 298 297 297 297 297 297 297 297 295 296 296 295 294 293 293 293 294 293 293 292 292 291 290 289 289 288
295 294 285 281 280 283 288 284 288 290 293 293 294 293 293 293 293 295 296 296 297 297 298 298 297 297 297 296 296 296 297 297 295 294 293 292 293 292 293 293 292 292 292 291 290 289 289 288 288
294 291 297 286 283 282 283 285 288 291 291 292 292 292 292 292 293 294 294 294 295 295 296 297 295 294 294 293 293 293 293 293 293 292 292 292 292 295 292 291 290 290 289 289 288 287 287 287 287
295 300 289 287 280 278 280 281 284 287 289 291 291 290 291 291 292 292 293 293 293 293 293 294 294 294 293 293 292 292 291 292 291 291 291 291 290 290 289 289 289 289 288 288 287 286 286 286 286
291 289 288 287 284 279 278 282 287 289 291 290 291 291 291 291 292 292 292 292 292 292 292 292 293 293 292 292 291 291 291 291 291 291 290 290 289 288 289 289 288 288 288 287 286 286 286 286 286
293 289 290 285 283 280 279 282 287 288 292 292 291 292 292 293 293 292 291 291 291 291 291 291 291 292 292 292 291 291 291 290 290 289 289 288 288 288 288 288 288 287 287 287 286 286 287 286 286

GFSSGP_sfc_thetae_084.txt.gz
Theta_e
344 339 340 335 314 307 301 303 306 305 305 308 311 311 311 314 314 305 332 342 347 348 348 344 347 346 347 347 346 345 344 342 341 342 343 345 346 348 348 348 348 351 352 352 351 350 351 350 351
338 341 337 325 308 302 302 305 306 308 309 313 313 313 310 313 326 330 334 344 349 349 346 342 348 346 345 345 345 344 342 340 340 340 340 341 342 343 344 343 343 343 344 344 343 343 344 343 344
333 338 323 316 307 303 302 305 308 310 312 311 313 314 312 315 330 332 336 347 348 346 343 344 348 346 345 344 345 344 342 341 341 342 343 343 342 342 342 342 342 342 342 341 341 341 344 344 343
328 326 320 311 307 312 309 308 310 309 310 315 315 311 316 325 332 335 344 348 345 343 342 349 349 347 345 344 344 344 343 342 342 344 345 346 347 347 347 345 346 346 346 346 345 345 346 344 344
324 320 310 306 308 311 311 312 310 308 310 314 314 311 312 323 334 342 345 346 344 341 342 344 350 348 348 347 347 346 347 345 345 346 345 348 349 349 348 347 345 344 343 340 342 344 341 338 337
312 316 306 303 307 312 311 312 311 309 309 313 313 312 313 327 337 340 344 343 345 342 344 346 349 349 349 349 348 348 348 348 349 347 348 349 348 346 343 340 337 337 336 335 335 335 335 333 332
308 311 306 305 306 309 312 312 309 308 310 312 316 310 312 325 337 341 342 342 343 343 342 342 343 347 350 349 351 350 350 349 349 349 348 346 343 339 335 333 334 332 333 332 330 331 331 330 329
313 312 306 306 307 307 312 313 313 310 309 317 318 310 309 323 337 340 341 340 340 340 341 340 342 342 343 347 352 352 350 351 348 345 340 336 333 332 333 331 331 331 329 328 327 326 326 326 326
319 307 304 308 309 311 313 310 310 312 313 314 318 315 317 331 337 338 338 340 339 339 337 340 343 343 344 345 348 350 351 347 340 333 331 320 312 314 318 329 328 327 326 325 324 323 320 317 318
311 305 307 314 315 311 313 309 307 309 310 310 314 317 325 335 335 334 334 333 335 336 337 339 342 341 341 345 335 333 337 328 322 311 308 308 309 314 317 321 324 323 323 322 321 318 315 307 298
309 305 310 315 316 316 313 309 310 309 306 311 314 315 326 331 332 332 334 333 333 336 338 341 341 338 338 334 323 318 316 321 311 307 307 301 300 298 298 298 298 299 308 298 300 299 298 297 298
305 311 313 315 314 313 310 310 304 310 311 312 318 318 323 329 329 330 331 333 332 334 338 341 339 336 333 327 317 308 304 310 303 303 301 298 297 296 296 297 297 297 296 296 297 297 297 297 297
307 310 314 314 313 311 311 307 305 307 309 312 318 319 320 326 328 330 332 334 333 333 337 339 338 330 326 317 306 302 302 302 299 299 299 298 297 296 297 296 296 296 297 297 296 296 296 296 296
307 311 314 315 310 312 307 307 306 305 308 316 317 317 318 321 325 324 329 331 331 333 336 338 335 325 319 311 305 303 299 299 298 298 298 298 298 297 297 297 297 297 297 297 297 296 296 296 296
308 306 307 310 308 308 310 304 303 309 309 315 314 314 317 319 321 323 327 330 332 334 336 335 329 322 319 313 302 301 299 299 298 298 298 299 299 298 297 297 297 297 297 298 297 296 296 296 297
305 305 299 306 306 306 307 299 305 310 310 313 314 315 317 319 322 322 325 331 334 335 333 330 329 320 312 308 303 300 300 299 298 298 298 300 300 299 298 298 298 298 298 297 297 296 296 295 295
298 293 295 299 305 305 305 299 304 311 310 310 312 314 317 318 318 321 325 330 333 334 330 324 317 313 308 302 301 299 299 298 298 298 299 300 301 300 298 298 298 298 298 296 297 295 295 294 294
291 293 294 296 302 304 301 301 306 310 309 308 308 310 314 318 320 318 326 328 332 329 324 315 311 307 303 299 298 297 297 296 296 297 299 300 301 300 298 298 298 297 296 295 295 294 294 293 293
298 297 295 297 303 302 301 302 305 309 311 309 306 305 305 307 312 320 321 323 323 317 310 307 306 304 300 297 297 296 296 295 296 297 298 299 300 299 298 297 297 297 296 295 295 294 293 292 292
300 299 297 298 304 300 300 301 305 307 309 310 310 309 308 302 309 316 312 307 313 312 309 306 304 299 298 298 296 296 295 296 296 298 298 298 298 299 298 298 297 296 295 294 293 293 292 292 291
301 298 298 297 300 298 299 297 299 305 307 306 302 305 303 301 306 310 305 303 304 306 306 304 301 299 298 297 297 297 298 297 297 297 297 298 298 298 298 297 296 295 294 294 292 292 292 291 290
295 302 301 300 297 292 297 289 294 296 299 297 296 297 298 298 304 307 304 300 300 304 303 299 298 297 298 298 298 297 297 296 297 297 297 298 297 297 297 297 295 294 294 293 292 293 292 291 290
297 304 300 299 293 291 290 289 292 290 292 294 294 296 296 296 298 302 302 300 298 298 298 298 297 296 296 296 297 297 296 296 296 297 297 297 297 297 297 296 294 293 293 292 292 291 290 290 289
302 298 297 293 291 285 292 291 291 289 291 291 292 295 295 295 296 297 297 297 296 297 297 296 296 295 295 296 296 296 295 295 296 296 296 296 295 295 294 295 293 293 292 292 292 291 290 289 288
299 294 285 284 284 285 288 289 295 291 290 292 294 293 292 292 294 294 294 295 296 296 296 296 295 295 295 295 296 296 296 295 296 295 295 294 293 292 293 293 292 292 292 291 291 290 289 288 287
294 294 286 281 281 284 288 286 291 292 292 293 293 292 292 292 293 293 294 295 295 296 296 297 296 295 295 295 295 295 296 296 295 294 293 292 292 292 292 292 291 291 291 290 289 288 288 287 287
293 290 293 284 281 281 284 285 288 291 291 292 291 291 291 292 293 293 294 295 295 295 296 296 295 294 293 293 293 293 293 293 293 291 291 291 291 294 291 290 289 289 288 288 287 286 286 286 285
294 297 292 288 279 277 279 280 285 287 289 290 289 290 290 290 291 292 292 292 292 294 294 293 293 293 292 292 292 292 291 291 291 290 290 290 289 289 289 288 288 288 288 287 286 285 285 285 285
290 288 289 292 287 282 279 282 287 288 290 290 290 290 290 291 291 291 290 291 291 291 291 291 292 292 292 292 291 290 290 290 290 290 289 289 288 288 288 288 288 287 287 287 285 285 285 285 285
293 290 290 285 282 280 281 283 287 287 290 292 291 291 291 291 291 291 290 290 290 290 291 291 291 291 291 291 290 290 290 290 289 289 288 288 287 287 287 287 287 287 286 286 285 285 286 285 285

GFSSGP_sfc_thetae_087.txt.gz
Theta_e
344 349 347 342 323 317 310 311 313 312 311 314 316 316 316 319 317 312 338 345 348 350 350 349 349 348 348 348 347 346 344 342 343 344 346 347 347 349 348 347 350 350 349 348 348 348 348 347 347
341 342 343 332 316 309 310 312 312 314 315 319 318 318 316 318 330 333 339 347 350 350 348 345 348 348 348 347 345 343 341 340 340 341 341 343 344 345 344 343 343 343 342 341 343 344 345 345 346
338 340 333 325 315 310 311 312 315 315 318 316 318 319 318 320 332 337 343 349 350 348 345 345 347 347 346 346 345 343 342 341 342 343 342 341 342 342 342 343 344 344 344 344 345 345 345 346 347
336 333 327 319 313 317 316 315 316 313 315 316 320 315 323 330 335 340 347 349 348 346 346 349 347 346 345 346 345 343 342 343 345 346 346 346 346 345 347 346 346 346 345 345 346 344 341 342 346
331 328 317 313 313 318 319 318 315 313 315 318 318 315 318 331 340 345 347 347 346 345 346 346 348 346 345 345 345 346 344 344 345 345 347 348 349 349 348 345 345 341 341 344 340 338 336 338 343
321 323 313 310 312 317 319 319 316 314 316 318 318 318 322 334 340 344 346 346 347 345 346 346 348 348 348 347 347 348 347 347 348 348 348 349 348 345 341 339 339 337 337 338 337 335 334 334 342
316 317 311 312 312 313 317 318 314 314 316 318 321 316 320 333 341 345 346 347 346 345 346 348 345 348 350 350 349 349 349 350 349 349 348 346 340 337 336 336 335 335 333 333 333 332 331 330 331
319 319 311 312 311 313 317 315 317 316 315 321 323 316 318 331 342 345 345 344 345 345 346 346 346 346 346 349 352 351 350 349 349 346 340 336 336 335 334 333 332 331 330 329 327 326 327 327 326
323 312 308 311 313 316 315 315 316 318 318 320 323 321 323 336 342 341 340 340 342 343 345 346 346 346 348 350 349 350 349 348 342 338 331 326 325 328 328 330 329 328 327 326 324 322 319 317 319
317 310 310 317 319 317 316 315 314 314 316 316 320 322 332 338 338 335 334 335 336 339 342 345 346 346 348 347 347 347 342 333 328 321 319 320 323 324 324 326 326 325 324 322 320 318 315 311 308
313 309 314 317 319 318 316 313 315 313 312 318 319 321 332 335 335 334 335 336 336 339 341 344 347 348 348 345 343 341 336 326 317 316 316 315 313 312 311 310 310 311 312 308 309 308 308 307 307
307 313 315 317 319 316 314 314 309 314 319 312 321 326 332 333 333 334 335 336 337 338 340 344 345 345 346 339 337 332 330 322 315 315 309 308 308 307 307 307 308 308 308 308 308 307 307 307 306
308 312 315 318 315 313 313 310 310 311 316 317 322 328 331 332 333 335 337 338 337 336 339 341 341 343 342 332 325 317 327 323 314 312 308 308 308 307 307 307 308 308 308 308 308 307 307 307 306
309 312 314 317 313 314 311 309 309 309 314 318 320 322 329 331 332 334 335 335 336 337 337 340 339 340 336 328 318 314 316 317 311 310 308 307 308 307 308 307 307 307 308 307 307 307 306 306 306
309 306 311 314 313 312 312 307 307 312 313 318 318 319 323 329 332 331 334 335 337 337 339 338 337 337 331 321 314 310 309 308 308 309 307 307 308 308 308 307 307 307 307 306 306 306 306 306 306
305 307 301 310 310 310 312 307 309 313 316 317 318 318 319 322 328 331 334 336 337 337 338 339 337 332 327 319 310 308 307 308 308 307 307 307 307 308 308 308 308 307 308 308 307 307 306 305 305
301 296 300 303 309 307 309 305 308 313 313 316 318 319 320 321 322 325 330 335 336 337 338 336 333 328 322 313 310 306 306 307 307 307 307 307 308 307 308 308 308 308 308 308 308 306 306 306 305
294 297 299 301 304 306 305 305 308 312 311 313 316 318 320 320 322 325 326 333 336 338 338 334 329 322 313 310 305 305 305 306 306 307 308 307 308 307 308 308 308 307 307 307 307 306 306 305 304
299 299 299 301 305 305 304 305 307 311 313 311 311 313 315 319 320 321 328 332 335 334 331 327 321 314 309 304 304 304 305 305 305 307 307 308 308 308 308 308 307 307 307 307 306 306 304 304 303
294 295 298 303 304 304 303 304 308 310 311 313 312 310 310 309 314 321 324 328 329 329 326 321 320 311 309 306 305 306 305 305 307 307 306 307 308 308 307 308 307 306 306 305 305 305 304 304 303
294 294 298 300 302 303 302 301 304 308 310 312 313 314 314 314 309 315 317 320 323 323 319 318 313 310 308 305 304 304 305 305 305 305 306 306 306 307 307 307 307 306 306 305 304 303 303 303 302
293 302 302 300 300 295 300 293 300 303 305 306 309 305 309 307 307 313 315 312 314 318 315 313 311 307 305 305 306 306 306 305 307 307 307 307 306 306 306 305 305 305 304 304 303 303 303 302 301
297 304 302 300 298 297 295 296 299 295 297 301 302 301 303 303 305 310 312 310 310 309 310 311 307 304 305 305 307 307 305 305 306 306 305 306 306 305 304 304 304 303 303 303 302 302 301 302 301
302 300 298 296 296 291 296 296 296 296 298 297 298 300 301 301 301 305 307 304 304 306 306 305 304 303 304 304 304 305 305 305 305 306 306 306 305 304 303 303 303 303 302 302 302 301 300 300 299
301 298 289 288 289 288 291 293 298 296 295 297 298 299 299 299 301 300 301 301 301 303 303 303 303 301 302 303 303 304 305 304 305 305 306 304 303 302 301 301 301 301 301 301 301 300 299 299 298
297 297 289 283 286 289 291 289 296 295 296 296 297 298 297 298 298 299 300 301 302 302 301 301 301 300 301 302 302 303 304 304 304 303 303 301 301 301 300 300 300 299 298 299 298 298 298 297 296
295 293 297 287 285 286 289 291 293 294 294 294 295 296 296 296 297 298 299 300 300 300 301 301 301 301 301 302 302 302 302 302 301 300 300 300 300 299 298 297 297 297 297 296 296 296 295 295 295
298 300 293 293 283 281 284 285 292 291 293 294 294 295 295 295 296 297 297 298 299 300 299 300 301 300 299 299 299 298 298 299 298 299 298 299 298 297 297 296 296 296 295 295 295 294 294 293 294
294 292 292 295 290 285 283 288 292 292 294 294 295 295 295 295 295 295 295 296 297 297 298 298 298 298 298 298 297 297 297 297 297 298 297 297 296 296 295 295 295 294 294 294 294 293 293 293 293
295 292 294 291 285 285 284 289 292 292 292 296 295 295 295 295 294 294 294 295 296 296 297 297 297 297 297 296 296 296 297 297 297 297 296 295 295 294 294 294 293 293 293 294 293 293 293 292 292

GFSSGP_sfc_thetae_090.txt.gz
Theta_e
343 351 355 349 325 322 313 315 321 317 316 320 321 320 319 323 318 317 346 346 347 348 348 351 349 351 351 350 349 348 344 345 347 348 347 348 349 348 348 349 350 348 347 347 347 347 347 348 352
344 346 347 341 319 310 311 319 318 321 320 322 322 322 321 320 333 337 341 347 348 348 346 349 349 349 349 348 346 344 342 341 342 343 344 346 346 345 344 343 342 341 342 345 346 346 347 349 353
343 345 337 325 318 311 312 320 321 320 321 321 320 323 319 323 334 337 345 348 348 347 347 347 349 349 347 346 343 342 341 342 342 342 342 343 343 343 343 344 344 344 345 345 345 345 346 348 352
339 340 334 320 314 319 320 323 322 319 320 322 323 317 325 333 336 340 347 347 345 345 347 348 349 347 347 346 344 343 343 344 345 346 345 345 346 347 346 346 346 344 346 345 341 340 343 347 351
338 333 319 316 316 320 325 326 323 319 320 321 322 317 322 336 342 345 346 345 342 343 345 346 347 346 346 346 345 344 344 346 346 346 348 348 348 349 347 345 342 344 343 340 338 338 343 346 347
324 327 315 312 315 321 324 327 323 321 321 323 319 320 325 340 341 343 345 343 342 343 343 344 347 346 346 346 347 347 346 347 349 349 349 349 348 343 342 340 339 339 339 337 336 335 338 343 344
320 320 314 315 316 318 322 327 323 323 321 321 324 319 327 336 341 343 343 343 343 344 343 342 344 347 348 348 348 349 349 349 350 349 348 343 341 339 338 337 336 335 335 334 333 332 332 333 334
321 321 315 316 315 316 323 323 324 324 321 327 328 319 323 335 342 343 343 342 341 341 341 341 342 344 346 349 350 349 350 349 349 346 343 340 338 337 336 334 333 332 330 328 327 328 328 327 326
325 314 311 314 315 318 323 321 322 325 322 325 326 326 329 339 342 341 341 340 338 339 342 342 341 343 347 350 349 349 348 348 343 338 335 334 335 333 333 331 330 329 327 325 324 322 319 319 320
317 312 313 320 321 321 323 322 321 320 321 321 324 328 335 339 339 338 337 336 336 337 340 341 342 344 347 347 348 348 347 342 337 332 328 329 329 329 328 329 327 326 324 321 319 317 316 319 312
313 309 316 319 322 324 322 321 322 320 318 321 321 328 335 337 337 337 337 337 336 337 340 341 342 345 347 346 347 346 342 333 327 325 324 325 325 324 321 318 316 315 314 313 313 313 312 312 312
307 311 314 318 322 322 320 322 319 321 323 324 325 331 335 335 334 336 336 337 337 337 339 343 344 346 347 347 345 344 338 329 322 320 317 317 315 313 313 313 314 314 314 313 313 313 313 312 311
306 308 312 316 319 321 322 320 320 319 325 321 321 330 333 335 335 336 338 339 338 337 339 343 346 347 346 346 344 342 336 328 323 318 315 315 314 312 313 313 313 313 314 313 313 312 312 312 311
306 309 308 312 317 319 316 318 314 319 322 320 324 327 333 334 335 335 337 338 338 338 338 343 345 347 346 342 340 338 336 330 323 318 315 313 314 313 313 312 313 313 313 313 312 312 312 311 311
306 301 306 311 309 316 318 314 312 320 317 320 322 326 330 333 334 334 337 338 339 339 339 342 344 345 344 339 333 323 331 328 322 318 314 313 314 313 313 312 312 312 313 312 313 312 313 312 312
301 304 296 304 312 313 315 308 318 319 316 317 321 324 325 331 334 337 338 339 340 340 337 340 342 344 343 333 324 318 321 324 319 316 314 313 313 313 313 313 313 313 314 314 314 314 313 313 312
298 292 298 299 312 312 312 308 317 318 317 318 321 322 324 326 333 336 337 339 340 341 341 341 341 341 337 323 314 315 314 316 314 314 313 313 312 313 313 313 314 314 313 314 314 314 313 312 312
291 292 296 298 305 312 310 311 313 316 316 319 321 323 324 325 326 332 334 337 339 339 340 342 341 338 327 317 313 311 312 313 313 313 313 312 313 313 313 314 313 313 313 313 313 312 313 311 310
296 294 294 300 305 308 308 309 311 314 314 316 320 322 323 323 325 327 328 334 334 338 339 341 338 335 326 322 313 311 311 311 312 313 312 312 313 313 314 314 313 313 313 313 312 312 310 311 311
296 294 295 301 305 307 306 309 313 313 314 315 316 319 321 322 326 327 328 331 333 336 339 340 336 332 325 321 316 316 314 313 313 313 313 314 314 313 313 313 313 313 312 312 311 311 310 309 309
296 295 294 297 305 308 305 303 309 313 314 316 317 318 318 319 321 325 328 330 334 336 338 338 334 327 325 320 315 313 313 312 311 312 312 313 313 313 313 313 313 312 312 311 312 311 310 307 309
293 299 297 300 300 296 307 293 304 310 311 313 316 317 317 316 318 318 325 327 333 335 337 335 333 327 322 319 314 313 311 309 310 311 312 313 312 312 312 312 312 312 312 311 311 310 309 308 306
296 301 298 299 300 301 301 297 303 308 308 312 314 317 317 318 318 316 319 322 325 331 331 331 327 324 320 315 314 313 312 313 313 312 312 312 312 312 312 311 311 310 310 310 309 308 307 307 306
304 301 301 301 300 292 298 299 299 303 307 310 312 313 313 312 311 313 318 320 320 324 325 325 326 320 314 312 314 314 313 311 310 311 311 311 312 312 310 310 311 311 310 309 309 308 307 307 305
303 298 290 288 286 289 299 298 302 306 304 305 304 307 309 308 308 310 313 315 316 318 321 322 317 311 310 312 311 311 312 311 310 311 311 311 311 310 310 309 308 309 309 308 308 306 305 305 304
298 298 291 285 288 291 296 294 299 303 302 302 302 306 306 305 307 308 310 313 314 318 318 312 309 307 308 309 309 310 311 311 311 311 311 311 310 309 308 307 307 306 305 305 305 304 304 303 302
298 296 297 290 292 294 296 298 302 299 300 300 302 303 303 303 305 305 308 311 312 312 308 306 304 305 306 308 308 309 310 310 310 309 309 308 307 306 305 305 304 304 303 302 302 301 301 300 300
300 302 291 292 287 286 291 292 297 298 299 300 300 302 301 302 303 304 306 307 307 307 305 305 305 306 308 308 308 308 307 307 307 306 305 305 305 304 303 303 303 302 301 301 300 300 300 299 299
298 296 298 298 294 290 289 291 298 298 298 300 301 302 302 302 303 304 305 306 305 306 305 304 306 306 306 306 305 305 304 305 304 304 304 304 304 303 302 301 300 300 299 299 299 299 298 297 297
295 295 299 295 291 292 292 293 297 298 298 302 301 301 301 301 301 302 303 303 304 305 305 305 305 304 304 304 304 304 304 303 303 303 303 303 302 301 300 299 298 298 298 299 298 297 297 296 296

GFSSGP_sfc_thetae_093.txt.gz
Theta_e
346 348 357 350 327 321 312 315 321 319 318 321 322 320 319 321 321 321 346 342 343 345 348 347 353 354 354 351 350 347 346 349 350 348 349 350 349 349 350 349 348 346 348 348 348 348 350 353 351
344 344 348 339 317 309 312 318 317 322 323 323 322 322 320 322 334 339 340 344 344 344 346 347 350 352 351 350 348 344 343 344 345 345 346 347 347 345 344 343 343 344 346 347 347 348 350 353 351
346 345 335 325 316 310 312 319 321 324 324 323 321 324 320 325 335 337 343 344 344 342 345 348 351 350 349 346 344 342 342 342 343 343 344 344 344 344 345 345 345 345 346 344 343 346 350 352 351
338 340 335 319 313 318 318 321 324 322 323 324 323 316 325 333 334 339 343 344 343 342 347 349 350 349 347 344 343 343 344 344 344 343 344 345 346 347 347 345 346 348 343 341 342 346 349 351 350
335 334 320 314 314 318 323 325 326 323 322 322 323 317 322 333 339 341 342 342 340 341 345 347 349 348 347 345 344 344 346 346 346 347 347 348 349 349 345 344 345 343 340 339 341 347 348 349 349
325 327 315 310 314 320 323 326 327 324 324 324 321 318 325 338 338 340 341 341 339 341 341 344 347 347 347 347 346 345 347 347 348 348 348 348 346 344 342 341 342 340 339 337 337 340 342 344 344
321 320 314 315 315 318 322 327 325 325 324 323 324 317 329 333 338 340 340 339 340 341 340 339 340 346 348 348 348 347 348 349 350 349 346 344 342 341 340 338 337 337 336 335 334 333 335 335 334
323 321 315 317 314 316 324 325 327 326 325 329 327 318 324 332 338 339 340 338 339 339 338 338 339 341 343 347 350 350 349 349 349 346 342 343 341 338 337 336 334 332 330 329 329 329 328 327 326
326 314 311 314 316 318 324 322 328 329 326 326 326 326 331 337 338 337 337 335 336 336 338 339 338 342 345 346 349 349 350 348 343 340 342 339 335 334 332 331 331 329 327 325 323 320 319 323 322
315 310 311 319 320 319 323 324 324 322 323 324 324 330 335 337 336 335 334 332 333 334 338 338 339 340 344 344 346 348 347 344 338 334 332 331 331 331 329 329 327 325 323 321 319 317 318 324 312
311 308 312 315 320 322 322 323 326 322 320 324 323 327 334 334 335 335 335 334 333 336 338 338 339 341 342 341 344 344 343 336 331 327 326 327 327 326 324 321 317 316 320 314 316 315 313 313 313
304 309 311 312 316 320 320 324 322 323 324 329 328 329 334 333 334 335 334 334 333 335 337 338 339 341 342 342 344 342 336 330 325 324 321 320 317 315 314 314 315 316 315 314 314 313 314 313 312
302 305 309 311 313 316 321 321 321 322 327 327 326 328 333 334 334 336 336 335 335 334 337 339 341 342 341 343 342 341 336 328 324 320 317 316 315 313 314 314 314 314 315 314 314 313 313 312 312
304 305 307 308 309 313 312 315 320 323 327 325 324 324 331 334 334 335 335 334 334 335 337 340 341 342 342 341 342 340 336 329 324 320 317 315 314 314 314 314 314 314 314 314 313 313 313 312 312
305 301 303 304 308 307 313 311 313 322 323 322 323 326 329 333 335 334 335 335 335 336 338 340 343 344 343 342 335 335 336 328 324 320 316 314 315 313 313 313 313 313 313 312 313 312 313 313 313
301 300 296 304 303 308 307 303 313 319 321 319 322 324 327 331 334 335 336 336 337 336 337 341 345 344 343 341 330 323 321 325 324 318 316 313 314 314 314 314 313 313 314 314 313 313 313 313 313
299 293 295 298 306 303 307 302 311 315 320 319 321 322 326 330 333 336 336 337 337 338 338 340 344 343 336 326 322 317 319 321 320 317 315 314 314 314 314 314 314 314 315 313 313 312 312 312 312
294 294 296 295 300 304 303 306 310 312 318 318 321 322 322 326 331 331 334 339 338 339 340 340 342 343 331 320 316 317 315 318 317 315 314 313 314 313 315 315 315 314 314 313 313 312 313 312 311
297 295 294 297 301 300 303 305 309 312 318 317 320 321 321 322 330 334 336 338 338 340 336 341 340 335 327 322 316 314 313 314 314 315 313 313 314 313 314 314 314 314 314 313 314 312 311 311 312
297 294 294 297 300 300 301 303 309 312 316 317 319 321 321 322 326 331 334 336 336 332 331 340 340 335 332 326 321 318 315 315 315 318 314 314 314 313 313 314 314 313 314 314 313 313 311 312 311
297 294 294 294 298 301 302 300 305 310 316 317 319 322 322 321 323 326 329 332 332 330 335 339 337 334 332 329 322 320 319 316 315 314 313 313 314 314 313 313 313 313 314 313 314 314 313 309 311
293 299 297 296 294 292 303 293 301 306 312 315 317 318 318 320 322 325 327 328 330 333 338 339 338 334 332 328 322 318 313 312 313 313 313 313 313 313 313 313 313 313 313 313 313 312 312 312 307
296 301 298 297 294 296 298 295 299 305 306 311 316 318 318 318 320 321 325 329 332 335 336 338 337 333 331 325 321 318 316 314 313 312 312 312 313 313 313 313 313 312 313 312 311 311 310 309 308
304 299 298 298 297 288 293 296 296 300 304 309 315 318 319 320 319 319 321 324 328 334 337 336 334 332 327 324 320 318 316 313 312 312 312 312 313 313 312 312 312 312 312 311 311 311 310 309 308
303 296 286 286 288 289 297 293 298 306 310 310 312 316 319 319 316 315 318 320 322 326 329 331 329 326 323 318 316 315 316 314 312 312 311 312 312 312 312 311 311 311 311 310 309 308 308 307 306
299 296 289 282 285 289 299 294 298 306 307 307 308 313 313 311 312 313 316 318 319 323 325 327 326 318 316 314 313 313 315 313 312 312 312 312 312 312 311 310 309 308 307 307 306 305 305 305 303
298 293 298 287 290 287 293 299 302 304 304 306 307 307 308 308 310 310 314 317 320 322 323 321 315 313 311 310 310 310 311 312 312 312 312 311 310 309 308 307 306 305 304 304 303 302 302 302 301
300 301 291 292 287 285 291 292 293 300 302 303 304 306 305 306 306 308 312 314 318 315 314 313 309 307 308 309 309 310 311 311 310 309 308 307 307 306 305 304 304 303 303 302 302 301 301 299 300
298 297 296 298 295 288 287 289 298 298 302 303 304 305 304 305 306 307 309 310 310 309 309 308 307 307 307 308 309 308 307 307 307 306 306 305 305 304 303 302 301 301 301 300 299 299 299 298 298
299 295 298 291 290 295 292 290 302 302 304 305 303 304 304 305 306 307 307 307 307 306 306 306 306 306 307 307 307 306 306 305 305 304 304 304 303 302 301 301 300 299 299 299 298 298 298 297 297

GFSSGP_sfc_thetae_096.txt.gz
Theta_e
346 340 354 351 325 322 310 313 320 318 318 318 319 318 316 323 323 320 341 341 345 339 343 353 358 356 354 353 350 349 352 351 350 351 352 351 351 351 348 347 346 348 349 349 350 351 353 351 350
345 341 349 338 318 307 309 317 316 320 321 320 319 318 315 322 334 336 335 340 343 344 341 348 356 355 353 352 347 346 346 347 348 348 349 348 346 345 345 344 345 346 347 346 348 351 352 351 351
342 342 335 325 315 308 307 317 319 322 322 321 318 319 316 325 335 335 338 338 341 341 342 346 355 352 351 348 344 343 343 344 344 346 345 345 346 346 346 346 347 345 343 344 348 351 352 351 350
335 338 332 317 312 315 314 317 324 321 322 323 320 315 324 332 333 336 339 339 337 341 343 351 352 350 347 344 344 344 345 344 344 344 345 346 346 347 346 348 345 343 343 346 348 350 351 350 348
333 332 318 312 311 315 318 321 326 321 320 320 320 314 319 331 337 337 338 339 336 343 344 347 350 348 345 345 345 346 347 347 347 347 349 350 349 347 346 346 343 341 341 345 347 347 348 348 346
322 326 313 309 312 316 319 322 325 323 322 321 319 319 321 333 333 335 338 337 337 341 342 344 349 348 346 346 346 347 348 348 349 348 348 348 346 344 344 343 342 340 339 339 341 342 342 341 340
319 317 312 312 312 315 318 325 323 323 322 320 322 317 325 329 334 336 336 335 337 338 339 339 341 346 349 348 347 349 350 350 350 349 346 345 343 342 341 340 339 338 336 335 335 335 335 334 332
321 318 311 313 312 313 321 324 327 324 323 328 326 318 320 328 334 335 334 333 335 335 334 334 337 340 341 344 351 351 350 350 348 345 345 343 340 339 337 335 334 332 331 330 329 327 326 325 324
325 311 307 310 313 315 322 320 326 327 324 325 324 324 329 333 334 332 330 331 332 333 331 333 334 337 341 343 348 349 351 349 345 343 344 341 330 327 327 331 331 329 327 324 322 321 324 325 328
313 308 308 315 317 316 320 320 323 321 321 321 321 328 332 332 331 329 328 327 328 329 331 333 334 338 340 344 344 343 343 339 333 332 332 329 326 325 326 326 326 324 323 321 319 316 323 320 306
309 305 310 311 313 315 315 319 324 320 317 321 320 326 329 329 329 330 329 328 327 329 332 333 335 340 338 342 342 342 342 336 326 325 323 323 323 322 318 316 312 312 319 309 311 308 308 306 306
301 306 307 310 312 311 310 319 319 320 322 325 327 329 330 328 329 330 329 328 328 330 331 333 335 336 338 341 340 340 331 323 319 318 316 316 314 310 311 309 308 308 308 307 307 306 306 305 305
300 302 305 307 308 309 312 312 316 319 324 326 328 326 329 329 329 332 331 330 329 330 331 331 333 334 338 340 336 335 323 319 316 312 311 310 308 306 307 307 308 307 307 306 306 305 305 304 305
303 302 302 305 306 307 306 310 312 316 322 323 325 323 329 330 330 331 331 329 328 331 331 333 333 336 339 339 338 333 326 319 316 313 309 309 308 307 307 307 308 307 307 306 306 305 305 304 305
304 299 301 302 303 305 307 302 306 313 317 321 321 322 323 330 331 331 332 330 329 331 332 334 334 338 338 333 332 332 326 321 315 313 309 308 309 307 307 307 307 306 306 306 307 306 306 306 308
299 299 292 300 302 303 303 296 305 313 314 315 320 320 321 327 331 332 333 332 331 331 332 336 338 338 336 330 326 323 324 320 317 314 311 310 310 310 309 308 307 307 307 307 306 306 306 306 306
298 291 293 296 302 301 299 296 306 309 311 312 317 319 321 323 329 332 333 333 333 332 333 339 339 334 329 325 325 323 322 319 315 312 309 310 310 310 309 309 309 308 308 307 306 305 305 305 305
293 292 294 294 299 300 298 296 303 308 308 310 315 319 319 322 328 331 333 335 334 333 334 341 340 330 327 322 318 317 319 316 314 310 309 308 309 309 309 309 308 308 307 306 305 304 304 304 304
299 296 294 296 299 297 295 297 301 306 309 309 313 317 317 323 328 331 333 333 334 333 335 339 336 327 322 318 318 317 312 311 309 310 309 307 308 309 308 308 308 308 307 306 306 304 303 304 304
299 295 294 296 298 296 295 294 299 306 309 311 315 316 317 318 325 329 329 328 329 334 335 337 332 325 322 320 320 318 311 310 310 310 309 308 308 308 308 308 307 307 306 305 305 305 304 304 304
297 295 294 293 296 297 295 292 295 303 308 314 316 317 319 318 319 326 325 328 333 330 327 336 332 327 324 322 321 317 312 311 309 308 307 307 308 308 307 307 307 306 306 306 306 306 305 302 304
293 299 297 295 293 286 295 285 294 301 303 310 313 314 316 317 319 325 328 329 330 329 329 338 334 331 328 326 319 314 310 307 307 308 308 307 307 307 308 307 306 305 306 305 305 308 304 303 300
296 300 297 297 292 290 290 288 294 301 300 308 311 313 315 317 317 321 326 327 330 328 333 336 333 331 330 326 320 313 309 309 309 310 307 306 306 306 307 307 306 305 305 305 304 303 302 302 300
304 299 297 296 293 284 289 291 292 297 300 307 311 313 314 315 316 317 320 326 326 332 334 335 332 330 328 325 317 313 313 307 308 305 307 305 306 306 306 307 305 305 305 305 304 303 302 301 300
301 295 284 283 284 283 294 290 292 300 304 305 308 310 314 314 314 314 315 319 323 328 331 332 330 327 326 319 316 314 309 308 308 307 308 306 305 306 305 305 304 304 304 303 302 301 300 299 298
298 294 286 278 283 286 294 288 294 305 306 308 310 314 316 314 310 312 316 317 320 322 325 326 326 322 321 314 313 312 309 307 307 309 308 308 305 305 304 303 302 302 302 301 299 298 298 297 296
296 293 296 287 289 287 288 294 300 304 303 304 305 306 306 306 307 310 313 314 317 319 321 323 318 315 311 309 308 306 306 308 308 308 308 305 303 305 302 301 300 299 298 298 297 295 295 294 294
300 300 290 289 283 281 288 287 289 296 299 301 301 300 302 303 304 307 310 314 317 319 317 313 309 306 305 305 305 306 308 309 307 305 302 301 300 300 299 299 298 298 297 296 295 294 294 293 293
296 294 296 294 292 286 283 286 295 296 299 299 299 300 301 302 303 305 307 307 308 307 305 304 304 303 303 307 305 305 305 305 303 300 300 299 299 298 298 297 297 296 295 294 293 292 293 292 291
299 295 297 290 288 290 288 286 297 300 300 300 300 304 303 303 303 303 303 302 303 303 304 304 305 304 305 305 303 302 301 300 298 298 298 298 297 297 296 296 295 294 294 293 292 292 292 291 291

GFSSGP_sfc_thetae_099.txt.gz
Theta_e
349 342 344 342 317 315 306 310 313 314 311 312 315 315 319 322 323 311 338 340 340 346 353 355 360 357 355 354 355 354 352 353 353 353 353 352 351 349 347 347 348 348 349 350 352 352 351 349 349
344 342 337 328 311 302 304 314 314 314 314 315 316 314 316 322 333 333 334 337 338 347 352 353 358 356 352 350 350 351 351 350 350 350 348 346 346 345 345 345 346 345 347 350 353 352 351 350 349
341 340 326 318 311 305 304 311 314 319 316 316 314 315 320 326 333 332 337 338 339 342 349 352 357 354 351 347 346 346 346 346 347 346 345 346 346 346 346 346 344 345 347 350 353 352 351 349 348
329 330 325 313 309 312 312 315 319 320 320 319 315 315 319 333 333 332 339 341 338 338 346 354 354 352 348 345 344 344 344 345 345 345 346 346 347 347 349 346 345 347 348 349 351 350 349 348 347
325 324 312 309 311 314 314 317 324 321 320 320 315 313 317 329 335 335 335 340 338 340 346 348 351 348 345 345 346 346 345 345 346 348 350 350 348 348 347 344 343 344 346 346 347 345 346 344 342
315 319 308 307 309 315 316 318 325 322 322 323 318 317 320 330 333 334 337 340 341 342 344 345 348 347 346 346 348 349 349 350 350 350 350 348 346 346 344 343 341 340 342 342 343 342 340 339 336
312 310 307 309 310 313 317 323 318 319 321 322 324 316 322 326 332 333 336 340 341 342 341 341 341 344 349 349 349 350 351 350 350 349 347 345 344 343 342 341 339 338 337 336 335 335 334 332 330
314 311 306 308 309 310 320 323 326 324 322 330 328 318 317 326 332 332 335 337 338 338 338 335 338 340 340 344 352 352 352 351 348 347 345 343 341 340 338 336 334 333 332 330 329 327 325 327 328
319 305 303 306 310 313 320 317 325 326 323 325 326 324 327 331 332 328 329 331 332 333 334 336 336 338 340 343 349 351 351 347 346 345 345 336 325 326 326 331 331 328 325 324 325 326 324 325 329
308 303 305 313 314 313 313 311 322 319 318 320 322 327 330 331 329 326 327 326 327 328 330 334 335 337 341 346 343 342 343 336 333 333 330 325 321 321 324 326 326 325 323 324 325 321 322 312 303
303 301 308 309 311 311 309 308 324 320 316 322 321 324 328 328 327 325 326 327 326 327 330 332 334 338 341 342 342 341 337 333 329 329 324 323 323 319 315 312 311 311 317 307 307 306 304 302 303
296 302 307 309 311 309 306 309 311 320 321 327 328 326 328 326 326 325 325 325 324 327 329 331 334 339 341 341 340 340 337 328 319 319 321 318 316 312 311 309 306 305 306 303 303 303 302 302 302
296 298 303 304 304 304 305 305 307 316 319 324 326 329 328 326 326 328 326 326 326 327 329 331 337 338 340 339 336 335 320 316 311 310 312 310 309 306 307 304 304 303 303 304 303 302 302 302 302
299 299 300 301 301 303 303 304 305 310 322 322 324 326 327 328 329 329 328 326 326 327 328 332 336 337 339 336 330 322 316 312 310 307 306 306 305 304 304 304 303 304 303 303 302 303 303 302 302
301 295 297 298 300 299 303 299 301 309 314 319 320 321 324 328 330 329 330 327 328 329 328 331 335 338 337 334 326 322 316 312 309 308 305 306 306 305 305 304 304 302 302 304 303 303 303 304 305
297 295 289 296 298 300 299 292 300 305 307 308 316 317 319 327 328 330 331 328 330 330 330 331 337 335 333 329 328 320 316 313 312 311 309 308 309 307 307 305 304 304 304 304 303 303 303 303 302
293 287 289 293 299 298 296 293 299 304 306 306 310 317 319 318 325 327 331 330 330 331 331 334 333 330 325 325 324 322 321 315 312 307 306 307 308 309 306 307 306 307 305 305 304 302 302 302 302
291 290 292 291 296 297 294 292 298 302 305 305 305 316 318 319 323 328 331 331 330 331 334 335 333 326 325 322 321 322 322 321 316 307 306 307 307 307 306 307 305 306 303 303 302 302 302 302 302
296 294 293 296 299 294 293 293 295 298 300 302 304 309 317 319 323 329 330 330 330 333 336 334 331 325 321 319 317 317 320 318 310 308 307 307 306 306 306 306 304 304 303 303 303 302 300 301 301
296 293 291 295 298 294 292 292 295 296 299 302 304 306 311 317 325 327 329 329 330 330 336 332 329 324 322 322 321 322 320 311 309 309 307 307 305 306 306 306 304 304 304 303 303 302 301 302 301
295 293 293 293 296 295 291 289 291 296 297 303 308 312 315 318 320 324 327 328 328 331 336 331 327 324 323 323 322 320 315 308 307 306 305 306 306 306 306 305 305 304 303 303 303 303 302 300 301
292 299 298 295 291 284 290 282 288 292 295 299 306 310 316 318 317 322 326 326 325 330 333 330 326 324 324 322 320 316 312 307 307 306 306 305 306 305 305 305 304 303 303 303 303 305 302 301 299
296 301 297 296 291 287 289 283 286 292 295 298 303 309 315 317 317 319 326 325 327 331 334 331 328 326 324 321 320 316 311 310 313 309 305 304 306 305 305 304 303 303 303 303 303 301 300 300 299
302 299 297 295 292 281 287 286 285 292 295 299 304 310 313 314 315 319 324 329 327 328 334 332 330 328 327 323 318 314 311 309 310 305 304 305 303 305 305 304 303 303 303 302 302 301 300 299 298
301 293 282 279 281 282 292 287 288 298 302 303 304 307 310 312 312 316 319 322 324 330 330 331 329 327 327 324 316 315 312 310 308 304 304 305 303 305 304 304 303 302 301 301 300 299 298 297 295
296 293 284 276 280 284 289 285 293 301 305 306 308 310 310 311 311 313 316 318 322 325 329 329 327 326 324 319 317 315 309 307 306 305 307 305 307 306 304 303 301 301 301 299 298 296 296 294 293
294 293 294 285 287 285 287 291 299 302 303 304 305 305 305 306 310 311 313 316 318 320 322 321 323 321 316 311 311 305 304 305 305 306 305 305 303 304 302 299 297 297 297 296 295 294 293 292 292
296 300 290 289 283 277 286 286 288 297 299 300 300 304 305 307 308 310 312 314 316 314 311 313 312 308 307 307 306 307 306 305 305 303 301 300 301 300 297 297 296 296 295 294 293 292 292 291 290
292 291 295 294 289 285 281 284 296 295 297 296 296 299 301 301 303 303 304 303 302 303 305 305 305 303 304 306 306 305 303 303 301 301 300 300 299 297 296 296 295 295 294 292 291 290 290 290 289
293 290 296 288 287 290 288 285 295 296 297 298 297 299 299 300 300 300 300 300 299 299 301 300 302 305 304 303 301 301 301 298 300 298 297 297 295 295 295 294 294 293 293 291 291 290 290 289 289

GFSSGP_sfc_thetae_102.txt.gz
Theta_e
346 341 342 338 312 312 304 307 311 313 312 311 315 316 317 322 318 305 337 341 344 349 353 356 360 357 355 357 357 356 356 355 355 354 353 351 349 349 348 348 347 348 349 352 351 349 350 351 351
343 341 334 325 308 300 300 311 312 316 317 312 319 320 320 322 332 331 332 341 348 350 353 354 358 356 354 355 354 352 353 353 351 349 348 347 346 345 346 345 346 348 351 352 351 350 349 350 349
339 340 325 316 308 301 301 309 312 318 316 316 312 319 323 325 332 334 335 342 349 349 352 353 356 353 351 351 351 350 350 350 348 345 345 345 345 346 345 345 346 348 352 352 351 349 349 345 349
328 328 323 312 307 311 309 309 317 320 322 322 316 314 322 332 332 332 336 343 346 347 349 355 355 349 348 347 347 346 346 346 345 346 346 346 348 347 346 347 348 348 350 350 349 348 346 343 351
324 323 311 308 310 313 316 317 318 319 323 321 318 314 319 330 333 335 335 339 342 344 348 350 353 349 346 345 345 345 345 345 346 347 349 351 349 347 345 346 347 346 347 347 346 345 343 340 342
312 316 306 305 309 314 315 317 320 322 321 322 321 316 319 329 334 335 337 335 342 345 346 346 349 347 345 346 346 346 346 348 348 350 349 348 348 346 344 343 344 344 344 343 342 341 338 335 338
308 309 305 306 309 312 316 321 315 318 322 321 325 316 320 324 331 337 336 338 342 344 342 340 339 343 349 349 349 350 350 351 351 349 348 346 345 344 342 341 340 339 338 336 335 334 332 330 334
313 309 303 305 307 310 318 323 325 324 322 329 328 318 318 327 331 337 338 338 339 340 339 335 336 339 340 344 352 351 351 351 349 347 345 344 342 341 339 337 336 335 332 329 328 330 328 332 331
315 303 300 304 308 312 318 314 324 325 321 324 327 323 327 330 334 335 334 335 336 337 335 336 335 337 339 344 348 351 351 350 348 344 343 335 325 326 326 331 330 328 327 327 327 326 325 328 328
304 300 303 311 312 311 311 309 320 319 316 318 322 326 329 331 329 331 330 329 330 332 334 335 335 336 340 347 342 340 342 337 334 332 323 321 320 321 323 327 329 326 325 326 324 325 321 311 303
299 299 307 309 311 311 308 307 314 317 314 319 319 322 329 331 327 328 329 329 328 331 334 335 335 338 341 343 341 337 333 330 331 325 321 320 321 317 313 311 310 308 314 303 305 303 302 300 302
293 299 300 307 310 309 306 306 311 319 320 326 328 324 327 328 329 326 326 327 327 328 332 334 336 339 341 342 340 336 332 327 326 323 321 318 312 310 308 305 305 304 303 301 301 300 299 300 299
294 296 300 301 302 302 303 302 303 315 322 327 329 327 327 328 329 329 328 328 326 327 330 333 335 339 340 339 338 336 329 323 321 321 318 316 309 307 307 304 303 302 301 302 300 300 300 299 299
297 299 299 300 300 300 300 301 304 308 321 323 325 325 326 327 328 329 328 325 325 327 328 332 335 339 339 337 336 334 319 314 315 316 315 313 308 306 304 302 301 301 301 301 300 301 301 300 299
300 295 297 298 298 297 300 296 298 305 319 317 320 322 326 327 329 328 329 326 325 327 328 330 335 338 337 334 329 319 315 311 309 307 305 308 305 303 303 302 301 300 301 301 301 301 301 302 302
296 294 288 296 297 298 297 289 297 302 302 310 315 322 325 326 328 330 330 328 327 328 328 332 336 338 336 329 321 315 310 309 307 305 305 307 306 304 303 303 302 303 303 302 302 302 302 302 300
292 286 289 292 299 297 295 290 297 299 300 301 302 314 320 324 326 325 330 328 330 329 330 333 335 334 329 324 319 316 313 310 309 305 305 305 306 306 304 303 302 304 304 302 303 302 302 301 300
289 289 291 291 295 297 294 292 295 298 298 299 301 304 315 322 325 327 329 329 331 331 333 333 332 327 326 322 320 319 319 319 310 307 305 305 306 306 304 303 303 303 303 301 302 301 300 300 300
294 292 291 295 299 295 294 293 294 296 295 295 297 300 307 316 325 327 328 328 330 331 332 331 328 325 322 320 317 316 315 318 313 307 305 305 307 306 304 304 303 303 302 301 301 301 300 300 299
296 292 291 294 297 295 294 292 294 295 295 295 296 299 305 312 317 325 326 327 329 330 332 331 330 324 322 321 321 320 320 320 311 308 306 306 305 306 306 304 303 303 303 302 301 301 300 300 299
295 292 292 292 296 295 291 290 291 294 295 296 297 300 304 309 321 325 325 326 327 331 332 331 325 324 324 324 322 321 316 314 313 308 307 305 305 306 306 305 304 303 302 302 302 301 301 299 300
291 298 297 296 293 286 290 282 287 290 292 294 299 301 309 318 323 325 326 325 327 331 334 330 325 324 324 323 323 320 319 314 312 309 307 304 304 304 306 304 304 303 303 302 302 303 301 300 299
295 301 298 297 293 290 290 284 285 290 292 297 299 302 306 318 323 324 325 326 329 331 331 327 325 325 324 324 323 321 317 313 311 311 311 306 303 304 304 304 302 302 302 302 302 301 300 300 298
302 299 295 293 291 282 288 285 283 291 295 298 303 305 305 315 319 324 326 328 328 331 329 326 325 326 324 323 320 319 314 311 311 310 309 307 303 303 305 303 303 303 301 301 300 299 299 298 297
299 293 283 278 281 282 289 286 285 295 299 301 302 304 307 309 314 319 322 323 325 329 329 327 326 325 324 322 319 317 314 312 311 311 309 305 302 302 302 303 304 301 300 300 299 298 296 296 295
295 294 285 275 280 282 290 284 291 298 302 304 304 306 309 310 313 316 323 323 324 329 330 329 328 326 325 320 318 317 317 315 313 311 308 304 304 304 303 304 302 301 300 299 297 296 295 293 292
293 290 294 286 287 282 287 292 296 302 302 304 304 305 305 309 311 314 318 321 325 327 327 326 325 324 321 318 317 316 313 309 308 308 308 305 305 303 301 301 299 297 297 295 294 293 292 291 290
294 297 289 289 281 275 284 285 287 297 298 301 304 304 305 307 309 311 314 313 314 316 318 322 320 318 315 311 306 305 306 306 305 304 301 301 299 300 298 297 297 295 294 293 292 291 291 290 289
289 288 294 291 290 283 278 282 293 293 296 296 301 306 304 303 303 300 300 302 303 304 304 304 308 307 307 307 305 304 303 302 301 300 300 298 299 297 297 296 294 294 292 291 290 289 289 289 288
290 288 292 286 285 289 286 284 293 293 295 297 297 298 299 301 301 299 299 299 299 300 304 304 305 304 303 303 302 301 300 298 299 298 296 298 295 294 294 293 293 292 291 290 290 290 289 289 288

GFSSGP_sfc_thetae_105.txt.gz
Theta_e
345 340 343 333 311 309 301 305 308 309 312 309 313 313 311 316 311 302 335 340 343 348 349 356 359 357 357 357 356 356 356 355 354 354 353 350 349 348 348 346 347 350 350 349 350 350 350 350 348
342 339 334 323 305 297 299 309 310 313 317 319 317 317 317 319 329 333 333 342 346 349 352 352 358 359 357 357 355 355 355 354 353 351 348 347 346 346 344 346 347 350 350 349 350 349 348 349 346
334 339 323 315 306 299 298 307 310 317 317 314 312 319 321 323 332 333 335 344 347 350 352 351 358 357 357 355 354 353 353 350 347 347 345 345 345 344 345 346 349 351 350 349 348 345 349 346 344
327 326 322 311 305 309 306 308 315 317 318 322 318 313 322 329 333 334 342 346 347 347 349 355 356 354 354 353 351 349 349 348 345 345 346 345 345 346 346 346 350 350 349 348 346 345 349 345 343
322 322 309 308 309 313 313 317 319 317 319 319 318 315 319 328 333 337 343 346 345 345 350 350 352 349 349 349 348 347 346 345 345 346 346 348 346 346 349 348 345 348 348 346 344 342 345 343 340
311 315 307 304 308 314 315 316 320 322 320 320 320 318 320 330 331 334 342 343 345 346 348 348 351 349 347 346 345 345 345 346 346 349 350 348 346 345 346 345 345 345 344 343 341 338 341 340 336
307 307 302 303 307 311 316 321 314 319 320 320 325 316 318 327 331 333 334 341 344 344 343 342 341 343 348 346 345 345 346 348 350 349 348 347 345 344 343 343 342 341 340 339 336 334 338 336 332
309 308 301 303 306 308 317 322 324 322 322 328 328 315 315 323 334 334 335 339 340 339 338 334 335 338 339 341 350 349 350 350 349 347 346 344 343 342 341 339 336 333 330 330 329 332 334 332 329
314 302 298 302 306 310 316 311 322 324 321 323 326 321 325 332 334 333 334 336 336 336 332 333 334 336 338 341 347 350 350 350 348 346 344 336 326 327 326 333 333 331 328 327 328 330 330 328 328
302 299 301 309 310 310 311 308 307 314 316 317 322 325 328 333 332 331 331 331 333 331 332 333 333 335 338 346 342 341 345 339 335 331 324 322 321 321 323 328 332 327 326 327 326 326 326 315 306
298 297 305 306 307 308 308 306 307 313 311 316 317 321 326 330 331 331 331 332 331 332 334 334 334 336 340 341 338 335 333 332 328 322 320 318 320 316 311 309 307 306 312 303 306 302 301 301 303
292 297 298 300 304 305 303 305 302 315 314 321 323 324 325 327 329 330 330 330 329 331 333 334 336 338 340 341 338 332 330 327 324 321 319 317 312 309 307 306 304 303 300 299 298 298 298 299 301
292 295 299 300 300 300 301 300 301 302 315 321 328 326 326 325 327 330 331 330 328 329 332 334 335 338 340 339 336 331 328 327 324 319 319 313 308 306 304 302 302 300 300 299 298 298 298 297 298
296 297 298 299 299 299 298 298 301 303 310 320 325 324 324 326 325 327 328 328 326 328 330 334 335 338 339 339 336 332 328 325 322 318 317 310 306 305 303 301 300 300 300 299 299 299 298 297 297
299 294 296 296 297 296 298 294 295 301 307 314 319 322 325 325 326 325 328 329 327 327 330 331 333 338 338 337 336 331 327 320 320 317 315 311 306 305 301 301 300 300 299 300 300 300 299 299 299
295 292 288 296 297 298 296 288 297 299 298 298 307 315 323 325 326 327 329 329 328 328 328 330 334 338 337 335 334 326 317 314 316 313 312 310 306 303 301 301 300 300 300 301 301 301 300 299 299
291 287 288 292 298 297 294 290 296 300 297 297 298 304 319 323 326 328 328 329 328 328 328 329 333 336 336 334 328 318 310 310 310 309 307 306 305 304 302 301 301 302 301 301 302 300 300 299 299
288 288 290 290 296 296 294 292 295 297 296 295 295 298 309 322 324 328 329 330 328 328 329 331 334 336 336 327 319 315 312 311 306 306 307 305 305 304 302 301 301 302 301 300 300 299 299 299 299
293 291 290 293 297 294 293 293 294 296 295 293 294 294 298 311 324 328 328 330 328 328 329 331 333 335 329 321 317 314 312 313 311 307 307 305 305 304 303 301 301 302 301 299 300 299 299 299 298
295 292 291 294 297 294 293 293 294 294 294 295 294 294 295 300 310 323 326 326 327 327 330 332 333 331 327 323 320 317 316 319 316 309 305 307 306 305 303 303 301 301 301 300 300 301 299 299 298
294 292 291 292 297 295 292 289 291 293 294 295 295 296 300 299 305 322 324 325 327 327 329 331 332 329 323 321 321 318 318 317 316 311 305 305 306 306 306 304 303 302 303 301 300 300 300 298 299
290 297 297 296 294 288 294 283 290 292 291 293 299 299 302 305 313 322 324 324 326 327 330 330 329 324 322 322 320 317 316 313 317 315 309 307 305 305 305 304 303 302 302 301 301 302 300 300 298
293 299 297 295 291 290 289 286 285 290 293 297 301 303 305 305 317 321 323 325 326 331 330 326 326 326 324 323 322 320 319 315 313 312 310 306 304 304 304 303 303 301 301 300 301 300 300 299 298
299 297 294 291 288 281 288 287 282 291 295 298 301 303 305 306 318 320 324 325 326 331 329 326 325 325 326 325 324 323 317 314 311 311 310 311 307 303 303 303 301 303 301 300 300 299 299 297 296
297 291 282 277 278 282 289 287 285 293 298 301 300 302 308 310 314 323 321 323 325 326 329 327 326 323 324 324 322 320 317 315 312 310 309 310 308 303 302 303 303 300 300 301 299 298 297 296 295
293 290 286 275 278 281 290 284 291 299 302 306 306 307 311 313 317 318 321 322 322 327 326 326 325 325 324 320 319 319 317 313 313 313 311 310 308 304 303 304 302 301 300 299 297 296 294 293 292
291 287 291 286 287 281 286 292 296 301 302 305 305 304 305 310 313 315 318 322 324 327 326 327 326 324 322 321 321 318 315 315 315 312 308 308 305 304 304 302 299 299 297 296 294 293 292 291 289
293 294 287 287 280 278 282 283 286 292 297 299 304 302 302 304 306 308 311 314 316 319 323 323 322 320 319 318 317 315 313 313 308 305 305 303 300 300 299 297 295 296 295 294 292 291 290 290 288
287 285 291 289 289 282 278 282 290 292 295 295 299 300 301 300 300 302 302 304 306 308 313 314 315 312 307 305 304 303 302 302 301 301 300 298 297 296 297 296 295 293 291 290 289 289 289 288 288
289 285 289 283 280 287 286 283 292 291 295 297 297 300 299 300 299 299 299 301 301 304 306 305 304 303 302 302 301 300 299 299 296 296 297 296 294 295 295 293 292 291 290 289 289 289 289 288 288

GFSSGP_sfc_thetae_108.txt.gz
Theta_e
344 339 342 331 307 307 299 302 306 308 311 312 312 309 307 313 309 301 332 340 341 341 349 353 360 359 358 357 357 357 356 355 355 354 353 349 348 347 346 346 351 349 348 350 350 351 349 348 347
339 338 332 322 303 295 297 306 308 311 315 316 314 314 317 317 329 330 335 341 343 346 346 353 359 358 358 357 357 356 355 355 354 351 347 347 346 345 345 346 350 350 350 350 348 350 347 345 343
331 338 322 314 305 297 297 303 308 315 317 316 311 319 320 322 331 332 335 343 346 345 351 352 359 357 357 356 356 355 354 353 351 347 346 345 344 344 346 348 350 350 348 346 348 348 346 344 343
328 325 321 311 304 308 304 305 312 315 317 322 317 312 322 329 333 335 342 345 346 347 348 356 358 358 356 355 355 354 350 347 347 345 345 345 344 345 347 351 350 349 347 346 349 347 345 342 341
322 320 308 308 307 313 314 316 317 315 317 320 320 312 319 328 334 340 343 346 346 346 349 351 357 356 355 353 350 350 349 346 345 345 345 345 345 347 346 349 349 348 346 344 348 346 343 341 338
311 315 307 303 306 313 315 316 316 318 319 320 318 316 318 329 335 341 344 344 346 346 348 348 354 353 352 350 349 348 346 345 345 347 348 347 348 348 347 347 346 345 344 341 343 344 339 335 334
308 306 302 301 305 310 315 320 314 315 317 319 324 315 317 325 335 340 341 342 344 345 344 342 342 346 350 348 347 346 345 346 348 349 349 347 346 346 345 344 344 343 341 338 341 341 336 332 331
308 307 299 302 304 306 316 319 322 320 317 328 327 314 315 324 332 335 340 339 338 338 339 335 336 337 337 340 348 347 347 350 349 350 348 346 344 343 342 341 338 337 335 334 337 336 331 330 330
312 300 295 300 304 308 313 309 317 323 318 321 324 321 325 331 332 334 337 339 336 335 332 333 333 335 336 337 342 348 350 349 349 348 347 339 329 329 328 335 335 331 331 332 334 332 330 331 332
301 298 299 307 308 307 310 308 306 307 308 314 322 324 331 331 329 330 331 331 335 333 331 331 332 334 336 342 342 341 344 341 339 333 326 323 321 321 324 331 335 330 329 330 332 329 326 316 308
297 295 303 302 304 304 304 303 307 307 306 313 315 321 328 329 329 329 330 331 332 334 333 333 333 334 337 340 338 337 338 333 329 324 321 319 320 314 311 308 307 307 319 307 307 303 302 302 305
291 296 297 298 301 300 299 301 301 308 307 312 318 322 328 327 328 329 330 331 331 331 332 333 334 336 338 340 336 335 333 328 323 320 318 317 312 308 305 303 300 299 299 297 298 298 299 301 301
291 293 298 300 300 299 299 297 298 299 307 313 320 323 325 328 329 331 332 333 332 332 332 334 335 336 339 339 334 331 330 326 321 318 318 313 309 306 303 301 300 298 298 297 296 297 297 298 299
295 296 297 298 298 298 297 297 297 300 302 305 318 321 323 327 329 330 330 330 330 332 332 334 335 337 340 341 334 330 327 324 320 317 316 310 307 304 302 300 299 298 298 298 297 297 296 296 297
299 294 296 295 296 296 297 294 293 298 299 302 312 319 322 324 328 328 330 329 330 332 333 333 334 337 339 339 335 330 328 324 320 318 314 307 305 303 301 300 299 298 298 299 299 297 297 297 297
294 292 289 296 297 298 295 290 297 298 297 297 296 304 321 322 325 328 330 330 329 330 331 333 335 336 338 338 335 328 326 322 321 318 314 308 306 303 301 300 299 298 299 300 300 299 298 298 297
291 286 288 292 297 297 293 291 297 300 298 296 295 295 306 321 325 327 329 331 328 328 329 330 332 335 337 335 333 323 317 316 318 316 314 308 306 303 301 300 299 300 300 300 301 299 299 298 297
287 287 289 289 295 295 293 292 296 298 296 295 294 293 294 311 323 327 328 330 329 328 329 329 331 334 336 332 321 315 312 311 311 315 314 309 306 303 302 301 300 300 300 299 299 298 298 298 298
292 291 289 294 297 294 293 293 295 297 295 294 293 293 294 295 318 327 329 329 328 328 328 328 330 334 330 322 319 316 315 311 308 308 311 312 307 303 302 302 301 301 300 299 299 298 298 298 297
294 291 290 294 297 294 294 293 297 297 296 295 295 294 293 294 297 317 326 327 326 326 327 329 331 333 333 331 325 318 316 316 314 314 307 306 306 304 303 303 302 303 301 299 299 299 298 298 297
292 290 290 291 296 296 295 289 291 295 294 294 297 299 301 302 303 304 322 325 326 325 327 329 331 333 334 327 322 319 318 317 313 311 306 306 306 306 305 304 304 302 302 300 300 301 301 298 298
289 295 295 294 290 285 295 282 289 292 292 297 299 300 302 303 305 307 320 323 325 325 327 329 331 331 327 323 321 317 317 312 317 314 311 311 309 306 305 304 303 302 302 300 300 301 299 299 297
292 297 295 293 289 285 289 284 284 292 292 296 300 302 304 306 305 310 320 323 326 326 327 329 330 327 322 322 321 318 317 317 315 312 311 310 309 307 305 304 302 301 301 300 301 300 299 299 298
298 295 291 289 286 281 289 285 283 290 294 296 301 303 307 309 310 316 319 323 323 326 328 328 326 325 323 323 321 319 318 316 313 312 310 308 308 306 304 304 302 301 302 301 300 300 299 297 296
296 289 280 278 277 276 290 287 288 296 300 303 303 305 309 311 315 316 316 319 322 325 327 326 325 323 323 324 322 321 318 317 315 312 311 309 308 304 303 303 303 302 302 302 299 298 297 296 295
292 289 282 279 279 281 289 284 290 298 302 305 306 306 309 312 314 317 321 321 322 326 326 325 324 323 324 323 320 320 320 321 319 315 313 311 311 311 306 304 303 302 302 299 298 296 295 294 294
288 286 290 285 282 281 280 290 296 297 297 300 304 304 304 305 310 311 316 320 326 323 324 325 325 323 321 321 321 320 319 315 314 314 314 313 310 307 306 304 301 299 299 298 295 294 292 292 290
293 293 285 284 276 277 280 281 286 291 294 298 301 300 300 300 302 306 307 311 317 322 323 322 322 320 321 322 322 317 316 316 316 313 309 306 305 304 301 299 297 296 295 294 294 292 290 290 288
286 284 288 287 286 277 280 281 291 291 294 297 300 301 300 300 299 301 304 306 312 313 314 315 313 311 310 308 310 307 308 305 304 302 301 299 298 297 296 296 294 293 293 292 290 289 289 288 287
287 284 287 282 281 284 282 284 291 291 295 298 297 299 298 298 297 299 299 300 302 301 302 301 301 300 301 301 300 299 299 298 296 296 295 296 296 295 294 293 292 291 290 289 289 289 289 288 287

GFSSGP_sfc_thetae_111.txt.gz
Theta_e
344 342 351 339 316 315 306 307 311 312 315 318 317 313 314 317 314 310 340 344 343 341 356 357 362 362 359 359 358 357 357 356 355 353 351 349 348 347 348 351 348 350 350 352 350 348 347 347 347
341 338 338 329 310 302 303 312 311 316 320 320 321 320 320 321 332 332 336 343 341 351 355 355 362 361 360 358 357 357 356 355 354 352 349 347 346 345 347 351 350 351 349 351 349 347 345 344 345
332 338 329 322 311 302 303 308 312 317 322 321 317 325 326 326 332 334 341 344 341 351 353 354 361 361 360 359 357 356 355 354 351 348 347 346 344 345 347 351 351 350 347 350 348 346 345 343 342
333 332 327 314 308 311 308 311 314 319 321 324 320 317 328 333 336 340 345 345 343 349 354 358 358 358 359 357 356 355 354 352 349 347 345 344 345 347 351 351 350 347 348 349 347 344 343 341 340
330 326 314 309 309 314 317 319 321 319 319 321 323 316 324 332 339 343 345 345 342 349 354 354 357 357 358 356 355 354 352 349 347 345 345 345 346 349 351 350 349 347 349 348 346 343 341 339 338
319 322 308 304 308 315 318 321 320 319 321 322 321 321 323 335 339 343 346 344 343 349 352 351 356 357 356 355 353 352 349 347 345 347 346 348 348 348 350 349 347 345 346 347 344 340 337 336 337
314 314 306 307 308 312 316 322 318 319 318 321 326 318 324 331 339 344 345 344 349 350 350 350 351 353 355 354 352 350 347 346 346 350 349 349 349 348 346 345 345 343 342 345 341 337 334 333 334
316 314 305 308 305 308 317 319 323 318 317 328 328 319 321 331 340 343 344 345 348 348 347 347 347 347 347 346 350 348 347 348 350 351 350 348 346 345 344 344 343 340 340 343 336 333 332 332 333
317 306 301 304 306 308 314 311 316 324 315 320 326 325 327 333 338 340 339 341 343 343 344 344 343 343 343 343 344 348 348 351 349 348 349 344 339 341 338 339 340 336 337 338 333 332 332 333 334
308 303 302 309 311 309 310 307 309 307 307 311 321 328 331 333 336 336 335 334 338 339 339 342 341 341 340 341 343 344 347 347 345 343 340 338 337 334 332 334 337 334 336 334 332 332 331 327 328
302 299 304 306 305 305 303 303 306 305 305 311 309 324 329 330 334 333 334 334 336 338 337 339 339 340 340 340 345 346 343 341 341 338 337 335 332 330 329 326 325 327 329 326 320 316 317 322 325
296 298 300 301 302 301 300 303 301 305 307 312 314 324 330 329 331 332 332 333 334 336 338 337 338 339 341 345 345 342 340 336 338 335 333 330 325 323 321 319 319 319 318 312 311 312 314 316 320
296 297 299 301 302 301 302 300 300 301 306 313 314 322 328 330 330 333 334 335 336 335 337 337 338 339 342 344 343 338 337 337 335 331 328 327 322 318 315 313 314 311 311 310 310 311 311 312 312
299 299 300 301 301 301 299 300 300 302 305 304 307 314 322 329 331 332 333 334 334 335 336 337 337 338 342 341 342 338 336 336 331 328 327 323 320 315 312 310 309 309 310 310 310 310 310 310 311
301 297 299 300 300 300 300 298 297 301 302 303 303 309 324 326 331 331 334 333 333 335 337 336 336 338 340 341 340 337 336 333 329 327 325 320 318 313 311 309 309 308 309 308 308 308 308 308 309
297 297 294 301 301 301 300 294 301 305 301 303 304 301 308 326 328 333 335 335 336 336 335 336 336 338 341 341 339 336 336 332 329 327 323 317 316 313 311 310 309 308 309 309 309 309 308 308 309
295 291 292 295 300 299 298 296 302 305 303 302 304 302 301 310 326 330 334 335 335 336 335 335 335 337 340 340 338 335 333 332 328 326 322 315 313 311 311 310 309 309 310 310 309 309 310 308 308
291 291 293 293 298 299 297 296 301 303 302 302 302 303 301 301 310 329 332 335 334 334 335 335 334 336 339 338 331 328 328 327 328 325 322 311 311 309 310 310 308 310 311 310 310 310 310 310 309
295 293 292 296 300 297 296 297 299 302 302 301 302 302 301 301 303 313 330 333 332 331 332 333 333 335 337 328 324 323 322 321 323 323 321 311 309 306 309 309 309 310 310 311 311 309 309 309 309
296 293 293 296 299 297 296 295 299 299 299 299 299 302 304 306 306 308 322 330 330 329 330 331 332 335 334 332 331 327 323 321 320 316 311 311 307 306 306 309 309 309 309 308 309 309 308 309 307
294 292 292 293 297 298 295 293 295 299 300 302 305 305 308 308 309 311 312 328 330 328 329 330 332 334 334 331 324 321 321 318 316 311 307 307 308 306 308 308 307 307 309 308 309 309 310 307 305
290 296 296 295 292 287 295 284 291 297 298 300 304 305 307 309 311 312 312 321 329 329 330 331 332 334 334 328 325 322 320 315 316 311 310 310 311 310 308 307 307 307 308 306 307 309 310 311 308
293 298 296 294 291 290 290 286 290 296 294 295 301 305 308 311 313 314 313 317 330 330 329 330 332 332 330 327 328 324 320 316 312 311 310 310 311 312 312 309 307 307 307 307 307 307 308 309 309
299 296 293 291 289 285 288 287 288 291 293 296 303 304 308 313 317 320 320 324 327 329 329 330 330 329 326 325 323 320 315 312 310 310 309 310 311 312 311 309 307 307 308 308 309 309 309 309 309
298 292 285 284 283 283 290 288 289 294 297 299 303 304 308 312 316 321 323 324 326 327 328 328 328 323 324 322 321 319 318 318 314 312 311 310 311 310 310 308 305 305 308 308 308 307 307 306 306
294 292 285 278 280 283 289 285 290 296 300 303 306 305 305 307 311 314 321 324 326 326 325 324 323 322 324 323 322 321 321 320 320 316 315 312 311 311 310 306 305 304 305 306 306 305 303 304 304
292 289 294 286 285 283 286 291 295 297 297 300 304 303 302 303 305 308 313 321 323 323 324 323 323 322 321 320 320 320 322 321 318 318 316 315 313 313 311 307 304 303 303 302 303 302 301 301 300
294 296 288 287 279 279 285 285 285 290 293 299 301 300 301 302 303 305 308 314 318 321 322 323 324 322 322 322 322 320 321 318 317 315 313 313 312 309 307 304 302 300 300 301 300 299 299 298 297
289 288 290 291 289 283 281 286 293 292 296 297 299 300 300 300 301 303 303 306 310 310 310 312 311 311 310 312 315 313 311 309 308 306 305 304 303 303 301 300 299 299 299 299 299 298 297 297 297
291 288 289 285 284 288 287 286 294 294 297 298 297 298 299 298 298 299 303 303 302 302 300 301 302 302 303 302 302 301 300 298 298 297 298 300 298 298 298 298 298 297 297 297 297 296 296 296 295

GFSSGP_sfc_thetae_114.txt.gz
Theta_e
345 345 357 347 320 315 307 307 313 312 318 323 324 319 318 321 318 316 344 346 345 336 355 360 362 362 360 360 359 358 357 356 356 354 352 350 348 352 350 349 351 352 352 350 347 347 347 347 347
344 342 347 335 313 306 307 314 311 316 320 325 323 324 321 319 333 337 341 346 346 339 353 357 362 361 361 360 358 358 357 356 354 352 350 348 346 348 352 350 351 350 351 348 347 345 345 346 346
338 343 331 320 313 306 306 313 314 318 322 323 321 328 327 328 337 339 345 346 340 346 351 353 361 360 360 358 358 357 356 355 353 350 348 346 345 347 352 351 350 350 350 348 346 345 343 343 344
336 336 331 316 310 314 313 315 317 319 321 324 325 321 332 338 339 343 347 343 343 352 354 359 360 360 358 358 357 357 355 353 350 348 346 345 345 347 351 350 348 351 349 347 345 343 342 341 341
336 328 312 311 310 315 320 321 322 320 321 322 325 320 326 338 344 346 345 341 345 347 349 356 359 358 358 356 356 355 354 352 348 346 345 345 347 351 351 349 347 350 348 346 344 342 340 339 339
319 322 305 302 306 314 320 323 323 322 323 323 324 324 328 340 343 345 345 342 345 344 346 351 357 358 357 357 356 354 351 349 347 346 346 347 351 351 350 349 349 349 348 345 341 339 338 338 337
313 311 302 303 304 309 315 323 321 321 321 323 328 321 330 337 343 345 345 344 343 345 350 350 353 354 356 355 356 353 349 347 347 346 348 352 351 350 349 347 345 348 345 342 338 336 336 336 337
317 313 304 306 303 305 314 318 324 321 318 325 330 322 324 336 342 345 344 342 340 345 348 348 351 351 352 351 354 352 349 348 350 350 351 350 350 347 346 346 343 345 344 339 335 333 334 335 335
322 305 300 303 304 306 315 314 319 321 319 317 321 326 331 341 343 341 341 341 341 345 347 347 348 349 348 347 348 348 349 350 350 349 350 347 345 342 344 345 344 343 341 336 334 333 334 334 335
310 303 300 307 308 308 311 312 314 313 316 316 318 326 333 340 341 339 336 337 340 342 344 345 345 345 345 341 342 340 341 346 347 345 343 342 341 341 337 340 341 341 337 333 334 334 332 333 327
306 300 303 305 308 309 308 308 310 309 308 313 314 317 331 336 337 337 336 337 339 341 343 344 344 344 340 336 337 338 340 350 345 344 341 339 338 334 332 332 333 336 334 327 326 326 325 328 328
300 303 304 304 305 304 303 305 303 304 306 311 313 314 320 331 335 336 337 336 337 340 342 342 343 342 336 335 337 341 347 347 343 342 340 337 334 332 329 328 329 331 326 316 316 319 324 326 326
301 304 305 306 306 307 308 305 305 305 308 310 310 313 318 325 331 339 340 339 338 337 340 342 343 341 335 335 339 346 340 342 342 342 338 335 332 329 328 326 324 323 316 315 315 316 317 318 320
305 306 306 307 307 307 304 305 303 306 308 308 308 309 312 316 326 334 337 337 336 337 338 343 341 340 334 336 343 344 341 341 342 340 335 332 329 326 324 322 319 316 315 315 315 315 315 315 315
306 302 305 305 306 305 304 302 302 306 308 307 308 310 310 318 321 326 335 337 336 337 339 341 341 339 334 336 343 344 339 339 340 336 332 329 327 324 321 318 315 314 315 314 315 314 315 315 315
302 302 299 304 305 305 303 297 305 309 308 308 309 310 310 310 324 330 335 336 339 338 338 339 339 338 334 337 342 342 340 339 339 332 329 326 324 321 317 315 314 314 314 314 314 314 314 314 314
302 296 297 300 306 304 303 299 306 310 309 308 309 309 310 311 312 330 336 338 339 339 337 337 339 337 335 339 343 343 341 340 337 331 328 324 320 317 315 314 314 314 314 314 314 314 314 313 313
295 296 297 297 302 303 301 301 305 308 307 307 309 309 310 310 310 315 334 337 339 340 339 340 339 338 336 342 340 339 340 338 334 330 329 320 318 316 315 315 314 314 314 314 315 314 315 314 313
299 297 297 300 303 301 300 300 302 305 305 304 306 308 309 308 310 310 320 335 338 339 338 338 338 337 337 335 330 331 332 333 332 330 329 319 317 313 311 314 313 315 315 315 315 315 314 313 314
299 297 297 300 302 301 299 298 300 305 305 306 307 308 310 312 312 313 315 329 334 336 337 338 338 337 337 337 332 333 329 331 331 330 329 320 315 312 312 313 313 315 315 316 315 315 313 314 314
298 295 296 297 300 301 299 296 298 303 306 306 308 311 312 312 313 314 316 322 331 333 335 336 338 338 338 336 328 325 323 323 321 317 316 315 313 311 307 309 311 314 315 314 315 315 315 311 312
294 299 299 298 296 291 298 290 296 300 301 303 306 308 311 314 315 316 318 319 328 331 335 337 336 337 338 335 330 328 326 320 319 311 310 311 311 311 311 310 308 309 311 311 313 313 314 313 310
296 302 299 298 296 295 295 291 294 298 294 298 302 306 310 314 317 317 318 320 323 332 333 334 333 334 333 330 327 327 321 316 314 310 310 311 312 314 313 312 311 308 309 310 311 311 312 314 312
302 300 298 297 296 291 292 290 291 291 293 296 301 305 307 311 318 322 324 323 323 332 332 333 333 333 332 331 329 320 315 311 309 309 309 310 312 313 313 313 311 309 310 310 310 311 312 312 312
301 298 294 291 291 288 294 292 291 295 297 299 303 304 306 309 313 320 325 326 328 328 330 331 330 324 325 324 320 317 313 311 310 309 310 311 311 312 313 312 311 310 311 311 312 313 312 313 313
297 297 291 283 285 289 295 289 293 297 302 306 306 305 305 306 310 314 323 325 327 328 328 326 323 321 322 320 319 321 320 315 315 313 312 313 313 314 314 312 312 309 308 309 310 311 311 311 311
295 293 298 290 290 288 292 294 298 300 303 304 304 303 302 304 307 310 315 323 323 324 323 323 323 322 323 321 321 321 322 322 320 319 317 317 315 313 313 313 312 307 307 306 306 308 308 309 309
297 299 292 295 285 283 288 289 289 296 298 301 303 301 300 302 304 306 309 312 316 319 323 323 325 324 323 323 323 323 322 322 321 318 316 314 314 313 309 308 305 304 304 304 303 304 305 305 304
295 294 294 295 293 287 285 288 296 297 299 299 301 302 300 299 303 304 305 305 307 308 309 312 313 316 316 315 315 312 310 308 308 308 308 309 310 308 307 304 302 301 301 302 303 304 303 303 302
295 293 292 290 287 293 290 290 299 299 300 301 301 302 300 300 302 304 303 303 305 306 305 304 305 304 305 305 303 301 301 300 300 300 301 302 302 304 304 303 303 302 302 303 303 301 300 300 300

GFSSGP_sfc_thetae_117.txt.gz
Theta_e
347 345 350 347 321 316 309 311 315 312 316 323 325 322 320 322 321 320 345 345 341 338 353 359 363 362 361 361 360 359 358 357 356 353 351 350 354 350 349 351 353 352 349 348 347 347 347 347 349
344 341 345 333 314 306 308 314 312 313 319 324 324 324 323 319 333 338 340 345 339 343 353 356 363 362 361 359 358 358 357 356 355 352 350 348 351 351 350 351 352 351 349 347 346 346 346 347 348
340 340 330 321 314 306 307 314 316 317 320 321 322 327 327 329 338 340 347 346 337 347 352 357 362 362 360 359 358 357 356 355 353 351 349 347 347 352 351 351 352 350 348 346 345 344 344 345 347
331 331 328 314 310 313 314 317 317 318 320 323 324 321 331 339 339 345 348 346 338 347 350 359 361 360 360 359 357 357 355 354 352 349 347 346 345 351 351 350 352 349 347 345 343 342 342 342 344
330 322 310 307 309 313 316 320 321 319 319 321 323 320 326 340 346 347 345 340 341 349 351 356 360 358 359 357 357 356 355 352 350 348 346 345 347 351 350 348 351 349 346 345 342 341 340 340 341
317 316 305 301 305 311 315 320 319 320 321 322 322 322 328 343 343 345 343 341 348 347 351 354 358 359 358 357 356 355 353 351 348 346 345 347 351 351 350 349 349 348 345 342 341 340 339 338 339
314 310 304 304 303 305 310 319 316 318 318 319 328 321 331 338 344 345 342 343 345 345 345 350 351 354 357 356 356 355 352 349 347 346 347 351 351 350 349 349 348 347 343 340 338 338 338 337 338
318 311 305 306 302 304 312 314 320 320 319 326 328 320 323 339 344 344 343 341 342 342 343 345 348 351 351 351 353 354 352 348 349 349 351 351 349 349 348 348 347 345 341 337 335 336 336 336 336
318 306 301 303 303 306 312 312 318 321 319 321 322 326 331 341 343 340 340 338 338 340 345 347 346 346 346 347 350 351 351 350 350 350 350 348 345 343 344 345 346 341 338 336 334 335 335 335 333
310 305 304 308 308 307 309 310 313 314 314 315 317 324 331 340 341 337 335 334 334 337 340 346 346 345 345 344 347 344 343 341 344 344 343 344 341 341 341 341 345 339 336 334 335 334 334 333 327
306 302 305 305 307 307 307 308 311 308 306 311 314 319 328 332 337 337 336 336 335 340 341 344 346 345 343 340 341 336 335 339 348 343 340 338 338 336 336 334 338 334 334 328 327 329 327 326 327
302 305 305 307 308 307 304 307 305 306 306 310 312 316 319 323 331 335 336 337 336 338 340 343 344 345 340 339 335 333 334 345 349 342 339 337 334 331 331 330 333 331 324 319 320 323 326 326 326
305 306 308 309 309 308 309 307 306 307 310 311 310 310 311 314 327 333 337 339 338 337 340 342 342 339 338 335 333 334 345 348 344 341 338 336 332 329 328 327 329 327 318 316 317 321 322 323 324
308 307 307 308 308 308 306 307 308 308 310 309 309 309 310 313 319 326 333 337 337 337 339 340 340 341 336 333 333 340 345 346 343 341 339 333 330 328 327 326 322 320 315 316 316 316 317 317 318
308 304 307 306 307 306 307 302 304 309 309 308 309 309 310 311 314 316 327 334 338 338 339 339 340 339 336 332 335 344 344 342 343 341 337 330 328 326 325 322 317 315 315 315 316 315 316 315 315
305 305 300 306 306 307 305 299 307 310 309 308 310 311 311 312 312 317 321 329 336 338 339 339 341 337 336 332 342 343 343 341 341 338 332 328 326 324 322 319 315 315 315 316 315 315 315 315 314
304 297 299 302 307 305 304 301 307 311 310 309 310 311 311 311 313 314 323 328 334 340 339 338 340 336 336 334 342 343 341 340 339 336 328 326 324 321 318 316 316 315 316 315 315 315 314 313 314
295 297 299 299 304 304 302 302 306 308 307 307 308 310 311 311 311 313 321 331 335 342 337 338 339 338 337 336 341 340 342 340 339 331 327 324 321 318 316 317 316 315 316 316 317 314 315 314 313
300 298 298 302 304 302 301 301 302 306 307 307 307 310 310 311 313 313 314 330 336 338 335 331 335 338 336 336 339 337 335 337 335 331 327 322 318 316 317 317 315 317 316 316 317 315 314 314 314
299 298 298 302 303 302 301 299 303 305 306 307 307 308 311 312 313 314 314 319 330 336 335 336 337 337 336 339 337 335 334 336 333 332 328 321 317 315 315 315 315 313 317 317 316 318 315 315 315
299 297 297 297 302 303 300 298 300 303 305 306 307 309 310 312 312 314 315 317 326 334 335 336 337 338 337 339 335 329 325 325 328 328 327 319 314 313 313 314 313 315 318 318 319 318 320 315 316
295 301 301 300 298 293 301 291 298 301 302 303 305 307 310 312 315 316 316 318 322 329 338 338 336 336 337 336 330 326 323 320 323 319 317 316 315 312 310 310 309 309 310 312 316 315 317 316 312
298 302 301 301 298 297 296 292 295 300 296 299 302 306 307 309 315 318 316 318 320 327 332 338 335 333 333 332 330 330 325 322 318 313 312 311 313 313 311 310 309 308 309 308 309 310 312 314 313
303 302 302 301 299 291 294 292 293 294 295 298 304 305 305 308 312 320 321 320 321 328 334 335 331 330 329 329 330 323 317 314 312 312 311 312 311 313 313 312 311 311 310 309 309 310 311 312 312
301 299 294 291 291 289 296 293 294 299 300 303 303 303 305 307 310 316 321 321 323 330 333 331 329 326 329 325 322 318 315 314 313 312 310 310 312 312 311 312 310 311 311 311 310 309 311 313 312
298 298 291 283 286 289 296 290 295 303 304 306 306 303 304 306 308 312 324 326 327 329 328 324 323 322 321 319 319 318 315 313 312 313 313 313 313 314 313 312 311 311 310 308 308 310 313 313 313
297 294 299 292 294 291 294 295 302 304 304 304 304 302 302 304 307 309 313 321 323 323 323 323 322 320 320 321 321 320 319 318 316 315 314 317 315 315 314 313 312 310 308 307 308 310 310 310 310
298 300 294 296 286 285 290 290 290 297 300 303 303 300 301 304 306 307 308 310 313 318 322 323 322 320 320 322 323 322 322 320 319 318 317 316 314 313 311 307 306 306 306 306 308 307 307 306 305
297 296 296 297 294 288 286 289 298 298 301 301 303 300 300 303 303 304 306 308 309 313 318 318 313 317 313 310 313 310 308 308 308 307 309 311 311 310 308 307 306 305 304 303 302 302 301 302 302
297 294 295 290 289 293 292 291 301 301 303 303 302 302 302 303 305 305 305 306 305 305 306 310 308 306 306 304 302 302 302 301 301 301 302 304 306 307 306 305 304 303 303 302 302 303 303 303 302